GFSSW_700_rhum_000.txt.gz
RH
24 29 29 27 31 42 43 42 42 40 41 36 32 32 34 40 40 37 43 54 49 41 32 18 20 36 41 46 44 48 70 59 51 46 28 36 50 49 49 47 43 40 41 47 49
24 28 34 28 36 41 42 44 50 48 45 43 42 43 43 53 71 35 68 73 59 57 53 45 35 26 32 45 50 48 56 54 36 37 32 32 50 53 52 50 48 43 38 45 47
22 28 33 32 32 36 41 51 55 53 52 47 48 48 75 94 83 49 78 68 66 48 53 50 54 43 30 40 51 49 45 50 40 38 40 37 40 44 54 53 50 48 44 56 52
20 22 32 35 28 30 40 55 61 64 57 53 52 55 56 58 73 59 55 53 52 54 49 57 48 46 42 34 38 49 44 47 43 42 42 46 40 52 54 53 55 53 48 49 55
23 22 22 33 34 25 33 51 58 66 65 63 64 66 62 56 54 55 50 50 51 52 47 40 48 60 47 46 40 60 48 46 44 42 50 53 51 58 55 55 62 58 52 49 50
20 24 24 26 38 25 24 38 57 70 60 55 60 63 62 56 56 57 51 45 46 49 51 47 43 50 68 63 62 63 79 60 53 48 48 52 49 58 56 52 54 56 49 42 40
20 23 27 25 38 35 18 30 52 65 59 52 56 57 54 57 56 53 54 50 48 46 45 41 38 51 78 73 68 73 77 93 62 59 70 78 76 59 62 60 55 51 42 38 37
18 19 29 30 34 42 22 20 39 54 53 64 57 54 44 57 57 53 55 51 50 50 50 54 53 78 94 94 89 83 81 97 77 83 71 88 73 60 63 64 60 56 41 49 57
15 16 28 35 37 47 37 16 24 39 47 54 60 58 51 45 53 58 55 53 50 50 49 79 90 86 96 98 97 99 97 92 87 83 87 79 79 70 63 70 63 55 57 57 61
47 17 26 38 42 51 47 26 22 24 34 46 54 55 46 43 54 56 56 54 56 55 52 70 100 99 100 97 95 88 86 76 85 84 74 75 73 72 70 65 63 51 56 56 54
89 56 48 40 48 54 57 40 34 35 30 36 40 39 44 44 49 63 65 62 60 68 66 57 67 80 58 68 99 87 85 85 89 85 83 90 88 80 68 57 60 52 54 49 46
72 88 87 49 55 58 60 52 35 34 31 28 28 33 50 60 60 64 70 68 62 65 77 89 92 72 54 47 87 100 97 87 79 82 93 90 81 80 71 69 63 53 61 54 45
78 82 98 97 73 59 63 59 46 39 39 33 33 31 38 75 92 77 85 82 74 68 81 89 71 58 57 55 64 65 87 92 91 71 83 87 80 81 62 64 65 55 59 58 53
86 82 99 100 83 68 65 64 54 42 46 41 36 44 50 59 98 79 96 97 95 80 71 100 74 67 68 79 71 79 64 64 66 89 93 86 91 77 57 59 63 58 54 61 56
94 85 100 98 90 71 70 67 58 49 70 54 62 60 62 68 88 77 92 100 94 87 87 87 75 68 68 63 67 77 69 76 83 89 88 69 95 90 70 69 56 54 53 58 62
98 99 93 99 95 83 80 73 63 71 90 56 60 61 68 68 96 96 92 93 96 97 98 96 98 87 76 63 68 89 93 86 89 87 92 75 89 74 65 51 50 50 53 53 64
98 99 86 99 83 89 82 66 64 100 53 70 59 73 79 76 80 100 98 98 98 99 98 98 93 92 82 81 82 79 92 93 97 91 81 62 77 71 59 49 45 50 52 59 56
98 97 86 86 97 96 77 77 96 51 58 70 73 82 82 80 95 97 97 95 92 99 97 100 98 92 77 72 90 82 80 85 91 97 77 58 76 72 44 40 52 47 46 51 52
98 92 95 98 97 94 86 96 50 42 63 72 90 100 100 100 94 90 94 94 99 99 99 96 91 67 63 74 74 81 96 53 92 71 79 77 76 38 22 27 41 45 38 40 48
97 98 88 98 99 99 98 69 52 67 73 86 88 92 91 87 96 98 99 67 80 72 84 89 88 72 82 98 97 79 60 89 92 100 92 77 82 56 35 35 37 39 40 42 46
99 98 99 89 100 99 97 77 68 62 74 88 84 99 84 84 84 84 77 66 67 75 80 84 96 92 86 74 86 100 94 76 67 79 98 92 77 44 43 42 43 44 37 40 42
98 98 97 100 98 98 92 92 92 81 83 97 97 98 87 88 86 89 80 68 63 66 77 76 97 99 87 75 76 86 94 84 71 63 78 99 69 55 44 39 39 38 36 35 38
99 98 99 100 98 98 82 96 98 99 100 98 96 99 99 91 95 83 80 67 63 82 93 90 98 97 90 98 97 99 91 63 65 65 96 97 66 60 46 44 36 35 35 36 40
98 98 99 99 97 89 83 100 99 100 100 98 98 99 92 96 92 88 71 67 74 88 98 98 96 95 94 98 100 100 100 97 95 87 77 83 85 58 42 38 37 38 41 44 48
98 98 98 97 99 96 99 99 100 100 100 95 98 98 98 98 91 83 77 72 88 91 98 98 96 94 93 97 97 100 88 81 99 96 85 65 57 61 46 34 32 33 40 47 52
98 99 91 89 98 97 100 99 99 99 100 98 98 97 98 85 72 79 80 78 85 94 98 97 96 97 97 99 98 99 95 99 100 100 97 91 66 64 37 33 41 39 34 37 48
98 95 90 91 98 100 95 90 93 99 92 95 96 100 100 87 83 84 91 86 95 98 99 98 98 99 99 100 100 100 91 85 90 96 96 95 72 40 38 44 47 46 43 33 35

GFSSW_700_rhum_003.txt.gz
RH
22 20 26 36 31 32 41 48 45 42 44 43 38 32 34 25 23 25 29 37 38 41 35 20 18 29 32 40 49 47 66 48 40 36 25 28 42 51 46 47 50 49 44 39 47
26 22 22 33 34 35 43 48 49 50 52 53 48 46 45 42 36 33 65 47 46 43 47 45 35 24 25 39 52 54 55 48 38 38 31 33 40 50 50 51 49 50 48 45 42
26 24 22 28 36 32 42 43 52 61 59 56 54 52 54 49 45 44 72 55 56 51 51 46 54 51 37 27 45 51 44 48 44 42 43 36 37 44 51 52 52 56 54 51 43
25 25 26 25 34 33 32 37 50 65 69 61 58 58 58 61 73 57 58 61 59 52 54 51 50 49 54 46 33 50 45 49 44 47 53 42 38 41 46 50 55 57 58 55 52
22 25 24 28 29 37 27 29 42 61 65 67 66 64 61 61 62 60 57 54 53 50 48 50 55 59 54 47 42 43 34 50 53 46 47 56 45 43 43 48 57 57 59 60 54
15 23 26 28 29 36 33 24 32 47 64 72 67 66 66 60 61 58 52 53 53 50 50 48 46 58 58 64 61 50 52 49 54 57 53 54 55 52 39 42 56 59 59 60 54
14 20 26 26 34 34 40 24 23 38 57 67 55 53 52 61 59 56 52 50 50 51 51 48 49 53 66 63 72 65 56 61 65 51 57 56 50 47 45 39 48 57 58 61 51
20 37 64 25 36 37 44 36 19 28 52 63 61 59 51 58 56 53 57 53 52 50 49 47 45 42 62 90 93 94 85 70 46 65 62 60 53 56 50 42 39 46 54 53 46
82 81 89 65 32 47 44 48 23 20 40 58 53 55 56 51 53 49 52 59 59 52 46 45 44 76 74 99 97 88 89 84 90 60 73 76 64 56 50 60 46 50 44 46 50
87 87 90 76 43 46 52 55 36 22 27 39 43 52 54 56 53 54 53 51 56 54 51 46 50 95 98 97 96 98 98 92 92 76 82 62 76 87 78 69 51 57 50 50 58
99 87 88 93 58 50 53 54 39 34 29 30 45 47 46 46 49 52 48 47 58 58 55 56 63 88 88 98 85 94 96 97 85 89 76 83 90 71 72 75 62 56 58 51 56
99 95 93 91 100 74 63 57 46 40 41 40 39 38 33 28 31 49 54 57 63 62 61 74 66 59 69 87 83 85 94 87 83 84 86 82 77 64 65 62 62 60 52 46 50
99 98 93 100 94 100 70 60 50 45 44 38 38 35 32 43 47 52 55 64 70 72 69 66 67 60 69 62 64 64 75 88 92 92 81 79 70 60 66 52 48 48 46 54 57
97 99 98 100 99 98 91 67 51 47 61 44 40 45 40 50 62 48 52 75 90 82 79 96 86 75 73 66 69 78 69 65 65 77 89 66 73 65 69 53 39 39 49 54 58
97 99 98 98 94 99 66 79 57 61 77 52 57 54 61 65 81 69 73 87 100 100 94 88 77 66 71 63 64 91 75 83 78 83 89 73 87 72 61 61 50 45 44 49 58
68 99 98 98 96 89 99 81 68 69 88 61 68 67 73 74 95 90 76 88 98 100 98 95 92 92 79 71 72 85 89 91 98 93 96 82 84 58 58 56 47 57 46 44 53
51 99 98 97 83 79 99 76 87 99 54 67 62 59 64 89 98 99 98 98 97 99 99 96 94 99 90 82 79 82 92 96 98 96 82 69 67 57 52 56 40 40 42 45 43
58 99 98 98 100 99 96 86 76 55 47 63 67 68 71 75 76 91 94 94 99 100 98 97 95 92 95 78 80 79 78 87 84 96 78 50 60 56 52 38 31 32 43 48 47
59 91 97 96 97 100 94 96 65 46 51 59 80 92 89 90 91 98 96 97 90 86 100 96 96 77 66 74 95 96 97 65 73 79 97 64 59 45 28 24 28 29 41 44 54
93 94 98 98 97 99 100 86 61 47 53 69 74 78 98 100 96 99 100 68 96 77 91 99 92 76 80 91 93 98 85 96 97 95 94 69 64 58 33 21 18 27 33 44 45
93 96 97 98 98 99 99 84 69 50 70 96 87 88 99 81 72 92 82 58 63 67 87 98 98 94 88 92 85 98 98 93 82 74 93 91 53 38 55 49 32 26 30 41 44
85 95 98 95 97 99 94 75 71 59 60 90 78 95 99 87 83 95 74 69 59 62 81 92 100 96 79 76 84 93 83 84 96 79 68 73 73 61 61 60 45 51 30 39 44
97 98 99 99 96 94 82 78 84 88 83 76 85 95 98 97 95 84 83 70 78 72 77 84 97 94 92 97 98 97 93 86 66 75 63 64 42 42 56 55 56 51 44 40 36
96 97 97 98 94 70 87 91 94 95 92 92 98 99 99 100 87 91 84 74 72 85 97 96 97 92 84 90 97 100 95 81 93 86 82 73 63 41 57 67 56 45 39 36 36
97 99 85 98 98 72 86 88 92 95 97 96 98 98 98 100 100 87 80 82 98 97 97 98 98 96 91 95 98 96 98 90 100 75 74 69 86 30 72 58 61 43 42 43 45
98 98 90 78 88 100 94 88 91 98 98 98 99 98 99 99 96 80 81 82 88 95 98 98 98 98 97 97 97 99 100 99 76 83 91 87 86 47 43 57 47 44 48 51 50
99 96 85 76 97 99 96 83 95 98 97 88 97 99 98 98 94 75 80 91 98 99 98 99 98 98 94 99 99 99 84 93 85 88 90 93 48 60 59 51 38 34 39 46 53

GFSSW_700_rhum_006.txt.gz
RH
22 23 26 23 21 31 32 38 47 49 47 48 44 38 34 31 24 21 18 20 19 20 22 17 12 17 28 30 42 49 61 48 42 39 30 34 31 37 51 45 42 47 48 43 39
23 23 26 26 24 27 34 38 50 50 51 58 54 51 58 68 42 25 54 35 34 32 37 44 37 28 18 27 49 54 55 42 40 40 38 37 42 48 50 52 48 51 47 45 46
18 47 26 29 26 28 34 33 46 50 63 66 63 61 77 80 69 39 56 49 48 49 46 55 51 52 44 30 30 51 45 40 39 36 39 38 36 42 50 53 51 54 55 56 52
20 53 39 29 28 28 36 33 36 47 67 74 69 64 64 85 72 52 61 61 70 94 82 72 64 54 55 50 41 39 32 38 42 44 46 42 40 36 40 44 51 55 57 57 57
45 25 92 31 29 32 32 37 29 40 65 69 72 72 67 65 65 66 70 63 60 64 69 71 69 65 57 49 48 54 42 38 39 42 42 45 41 38 36 37 43 52 58 56 57
96 68 68 89 30 31 33 37 31 29 48 66 75 75 73 64 73 69 68 69 70 67 62 59 56 64 61 61 60 56 44 45 43 42 42 42 37 46 28 35 40 48 64 64 60
99 83 57 92 86 30 35 36 40 25 34 59 73 68 59 63 69 66 60 59 59 59 60 58 61 55 49 46 52 50 53 52 47 35 36 34 30 29 28 32 36 41 58 64 64
98 98 69 74 95 51 37 41 44 35 23 43 68 69 61 66 63 64 61 58 59 58 57 55 55 55 51 48 64 84 83 59 44 43 51 55 41 42 41 33 31 35 42 51 60
99 100 89 76 84 89 55 50 49 45 24 26 46 63 56 61 62 59 56 56 62 60 59 56 50 50 50 51 52 70 83 88 84 83 68 67 59 43 44 40 33 29 31 37 44
65 99 98 82 90 100 94 68 57 52 34 21 28 51 56 60 61 62 60 56 56 63 62 57 56 57 77 66 67 59 93 91 89 88 67 73 88 60 57 55 40 34 38 35 37
8 87 99 94 87 100 91 97 68 51 46 30 36 43 38 52 57 58 54 56 56 55 54 53 59 66 53 54 67 73 85 98 91 88 90 78 76 67 74 51 49 32 35 42 43
1 19 99 98 92 99 99 74 75 58 44 38 34 30 32 37 46 54 53 49 52 53 59 65 56 53 62 69 90 100 99 94 84 81 77 77 68 67 66 54 42 39 30 39 46
1 60 98 99 99 99 98 98 74 62 54 42 39 38 38 40 43 39 41 53 63 65 68 65 58 66 63 76 86 95 100 99 73 52 50 76 56 48 36 45 41 33 28 30 41
29 7 96 98 99 95 99 85 75 72 54 45 37 38 35 39 41 38 45 62 79 76 74 75 68 80 83 76 90 84 74 68 74 77 93 60 74 51 46 37 32 32 35 28 40
89 25 76 99 98 99 88 84 78 67 85 49 54 47 47 46 62 49 62 77 86 84 84 73 78 76 82 82 84 96 81 79 90 90 94 91 92 67 46 37 27 30 30 24 32
82 44 56 98 98 99 97 100 96 67 83 66 66 78 66 65 89 86 71 86 100 100 100 96 96 99 94 81 87 93 93 90 94 100 95 88 86 58 50 37 32 29 28 35 25
75 62 68 98 98 98 98 99 78 78 61 66 78 81 100 92 100 100 80 100 98 100 96 92 82 95 96 91 93 97 97 96 98 97 88 66 79 56 47 44 50 36 24 48 35
69 64 84 96 96 99 98 95 80 64 60 66 69 85 99 100 99 100 98 99 100 99 95 96 92 76 70 82 83 82 88 91 88 92 85 60 72 61 52 48 51 30 25 44 47
65 72 88 95 97 98 98 96 67 58 58 55 74 98 100 94 93 100 100 99 100 99 97 96 95 82 72 64 90 98 97 68 82 70 92 70 59 52 42 32 25 26 24 28 42
92 80 90 100 98 98 99 86 77 66 51 56 55 66 76 82 94 100 94 64 87 86 100 99 98 84 80 83 99 97 96 98 98 96 94 69 63 60 44 52 64 45 20 21 32
97 98 93 98 98 98 99 94 76 63 50 74 73 80 94 99 100 100 75 57 60 64 81 98 98 90 95 90 82 94 99 97 92 92 91 86 52 36 32 49 56 55 42 21 28
100 66 94 98 97 96 97 95 76 65 56 90 95 81 83 97 89 96 75 62 66 65 85 96 100 100 84 70 74 68 68 74 85 81 82 71 57 39 66 61 60 70 39 34 25
98 86 97 98 97 98 93 79 78 74 69 63 65 70 84 100 98 87 83 70 79 83 77 86 96 96 93 92 93 97 86 90 81 86 75 75 50 37 52 45 80 80 64 46 23
98 98 98 98 98 79 79 80 77 79 81 78 81 77 93 99 99 86 91 86 79 74 86 91 96 93 86 90 96 98 93 95 100 97 82 76 66 48 32 61 75 80 78 60 51
98 100 98 97 97 87 72 78 82 89 89 95 88 93 98 99 95 98 86 78 97 95 97 98 94 92 94 97 98 97 97 96 98 85 91 65 72 46 70 69 96 73 73 57 49
96 98 88 86 94 89 76 81 88 93 98 96 91 95 98 99 96 93 91 98 100 91 97 98 98 98 98 98 98 98 92 96 98 89 95 82 73 43 69 86 98 84 63 54 50
98 98 94 95 98 90 76 77 81 89 99 99 98 99 97 97 98 97 98 100 91 100 99 99 98 98 91 98 99 98 97 99 90 93 93 89 38 62 96 96 85 62 55 55 54

GFSSW_700_rhum_009.txt.gz
RH
46 23 41 29 28 26 26 32 32 33 40 48 46 38 36 32 18 17 16 14 12 12 13 13 13 16 22 26 33 38 54 47 38 37 34 36 33 30 38 50 46 41 46 46 38
47 43 48 62 31 28 28 32 35 38 47 51 53 50 69 76 48 23 37 25 18 20 24 25 24 21 14 22 36 44 42 28 25 30 36 37 38 39 42 45 48 43 47 50 45
91 47 28 94 45 33 29 30 35 38 47 52 62 61 65 93 89 55 68 35 33 68 53 48 49 48 37 26 31 50 33 27 26 28 33 34 34 37 40 49 51 49 54 51 49
77 94 50 49 78 41 31 30 38 35 42 53 70 66 65 93 93 61 61 58 58 79 75 69 61 58 48 46 47 42 25 30 32 39 43 34 34 33 34 34 52 54 54 55 50
98 99 92 48 89 59 34 33 36 34 36 56 68 73 67 78 72 72 80 77 77 83 94 91 79 69 66 55 57 60 45 40 34 32 32 32 27 25 26 30 37 49 53 54 55
57 100 86 90 60 85 52 36 38 39 30 50 64 71 74 66 81 75 69 87 82 71 73 73 66 69 66 61 65 58 46 42 44 41 37 32 21 33 16 23 31 36 42 50 53
9 74 99 96 68 81 83 44 42 42 33 32 47 64 72 76 74 70 68 63 62 66 68 68 70 64 59 60 63 64 60 56 40 35 44 39 32 29 22 21 22 28 35 40 48
2 55 100 99 82 80 89 82 51 49 42 29 30 43 61 72 67 71 69 65 63 64 64 67 71 66 64 62 63 61 69 55 44 38 38 45 40 35 32 26 22 21 26 34 40
2 18 94 100 98 82 95 89 73 57 49 41 28 28 48 65 70 69 69 69 67 64 65 65 62 63 60 56 55 52 60 66 59 61 60 56 52 38 35 33 28 23 22 26 33
2 1 52 99 100 88 99 94 89 76 54 48 33 26 36 60 61 68 66 63 63 67 69 66 67 64 60 50 58 53 63 68 70 67 62 61 58 44 41 40 29 29 26 26 27
4 2 1 78 98 91 99 99 97 79 58 41 35 33 37 50 54 61 68 65 66 69 69 71 68 58 49 52 55 66 72 87 88 79 81 60 51 51 44 43 36 29 25 28 28
50 32 1 42 98 99 99 99 86 75 55 54 47 34 38 40 47 61 64 62 60 56 60 63 56 52 62 66 64 68 82 78 81 80 77 73 43 44 40 37 34 30 28 25 26
98 97 42 2 82 98 99 100 93 84 63 53 47 40 36 35 43 45 58 63 57 51 54 57 59 62 59 69 79 92 100 99 98 96 64 62 45 34 29 28 28 29 29 26 24
94 98 83 9 36 98 98 100 99 81 61 48 39 40 40 41 45 50 51 56 53 54 65 63 58 63 68 76 78 82 86 82 83 93 96 73 70 51 38 36 34 28 25 26 26
72 91 95 26 74 98 98 99 100 87 64 42 48 44 42 45 50 43 48 54 64 65 66 57 67 71 73 68 83 89 88 83 80 91 98 99 97 57 52 45 37 31 27 26 24
86 76 77 73 64 98 98 99 99 71 77 53 54 62 54 63 84 71 66 90 98 93 98 93 94 95 93 88 90 87 97 100 92 94 96 79 90 59 55 42 34 31 26 24 26
92 67 58 74 52 98 98 98 96 65 53 67 65 95 98 83 100 98 99 100 98 100 100 90 88 83 90 98 90 91 97 94 97 97 83 61 85 60 49 48 42 34 29 32 30
97 69 58 70 59 97 98 98 94 60 63 61 64 99 99 99 99 97 100 98 98 100 100 93 79 69 62 59 75 88 90 90 89 81 73 67 83 62 54 42 31 35 30 34 36
78 70 59 49 90 98 98 97 68 58 50 57 99 100 99 98 99 99 98 98 97 99 91 87 91 82 75 74 76 98 100 69 96 95 97 72 56 49 43 31 53 52 49 27 30
98 86 66 35 97 98 98 92 73 56 49 51 58 84 99 98 98 100 99 81 87 78 98 91 99 80 89 82 80 90 100 99 98 95 90 69 70 52 37 39 33 56 64 56 26
96 98 96 53 95 98 96 96 72 58 55 54 58 69 81 91 96 100 86 62 60 58 97 100 99 91 82 82 62 91 99 99 97 97 86 71 46 36 38 42 46 49 66 53 42
98 99 94 94 98 98 97 92 77 67 62 62 61 64 79 91 100 99 85 61 60 62 73 79 100 96 80 72 74 73 78 82 96 87 94 80 66 47 39 46 60 55 76 75 56
100 83 98 98 99 98 97 84 75 66 61 59 56 71 75 80 88 92 87 78 77 75 82 80 98 97 85 84 95 98 91 94 93 94 93 84 62 43 43 44 49 32 74 82 68
96 98 96 98 93 88 98 86 82 78 72 67 64 62 72 96 99 95 85 89 92 81 86 92 94 84 77 76 98 97 96 97 97 96 82 83 74 57 49 41 34 38 77 93 76
98 99 90 98 97 91 90 90 85 81 74 73 82 94 81 91 100 88 87 96 94 86 96 98 99 97 84 93 98 97 97 96 97 81 94 63 75 55 64 59 52 50 95 94 86
98 99 96 94 100 94 95 86 73 72 71 85 91 98 97 99 94 89 93 83 79 84 96 100 98 99 96 92 98 98 99 98 98 96 98 90 79 61 75 72 58 98 99 80 76
99 96 89 95 95 87 81 75 72 74 89 94 94 94 98 99 98 88 98 84 97 99 99 99 100 98 94 96 98 98 95 99 99 99 89 95 52 88 89 96 99 99 81 74 69

GFSSW_700_rhum_012.txt.gz
RH
90 71 40 58 68 32 27 26 25 34 32 33 34 33 33 33 28 14 14 12 12 12 13 15 22 25 27 27 29 34 69 53 54 56 48 34 28 27 30 36 40 42 42 42 39
90 98 84 48 56 74 36 29 27 34 36 44 48 46 49 47 38 31 27 20 14 10 11 12 14 19 21 26 33 40 70 55 57 60 55 50 37 37 31 33 40 45 43 44 42
77 76 95 77 29 86 67 34 29 33 37 47 51 52 58 63 83 56 67 38 25 33 18 18 26 32 29 19 30 50 64 63 40 31 32 41 28 35 35 44 36 50 46 43 45
12 51 90 99 71 69 82 53 32 33 37 45 54 65 65 73 89 62 83 63 42 85 65 48 51 60 60 50 35 38 22 42 33 32 37 33 35 24 30 29 56 47 47 44 48
6 57 99 100 99 77 84 79 38 35 38 39 56 72 71 74 75 70 83 69 64 80 81 83 82 76 74 63 60 58 45 35 32 27 28 34 28 34 40 23 31 43 52 49 51
2 8 70 82 98 94 80 94 63 41 41 35 53 71 74 70 72 79 83 83 80 76 93 95 99 99 95 84 74 60 47 43 42 40 41 37 25 46 15 19 25 32 39 53 52
2 2 3 43 92 99 84 94 90 44 46 36 41 63 69 73 76 74 70 78 86 82 92 80 78 77 68 73 71 61 51 47 38 38 43 39 35 33 23 25 20 20 29 33 48
2 2 2 2 53 99 96 99 94 73 54 44 32 41 52 71 75 72 72 71 77 88 83 84 81 70 72 63 60 56 53 66 56 43 44 47 50 62 31 25 23 21 19 24 30
4 4 2 2 18 99 95 96 99 88 62 51 39 30 40 51 70 69 69 73 74 73 76 78 70 77 65 61 77 78 68 84 76 44 56 56 72 74 41 36 33 29 29 24 21
22 12 5 2 14 98 98 99 99 95 69 60 37 42 34 39 67 72 72 74 75 75 78 74 72 76 57 74 64 66 86 80 70 74 47 49 70 54 56 42 41 36 31 28 24
64 65 22 4 5 96 98 99 99 99 80 47 36 40 32 39 67 68 72 72 76 80 88 73 80 58 53 56 73 57 68 81 83 55 55 37 34 49 38 37 39 34 34 31 26
90 85 96 66 8 53 98 98 91 89 83 51 54 39 35 55 63 62 71 76 76 76 85 79 71 60 60 59 58 62 86 83 82 85 70 70 24 31 28 21 25 29 29 29 29
92 91 97 94 13 52 98 98 100 99 98 71 50 53 44 41 50 54 63 70 74 76 69 72 65 52 58 64 72 92 94 88 87 88 92 81 44 30 37 27 21 24 26 26 27
90 87 81 98 35 25 98 98 99 98 98 82 54 45 47 40 42 44 68 76 71 69 64 66 78 65 77 80 72 91 92 93 98 99 81 84 55 42 44 42 30 25 26 27 24
91 98 82 81 89 51 89 98 99 98 94 67 53 48 44 47 46 46 59 75 70 63 57 68 63 66 70 59 74 93 81 96 100 96 95 76 98 45 42 51 49 33 30 31 30
89 94 89 61 90 72 61 98 98 97 88 68 64 56 46 53 55 54 66 76 76 77 70 90 78 77 79 77 83 88 99 100 100 100 92 55 63 52 40 42 45 36 33 38 31
96 98 87 79 90 86 89 97 97 95 64 81 79 100 77 93 95 69 77 94 88 97 100 99 82 69 81 96 95 100 100 74 82 93 64 44 51 48 46 50 41 35 32 38 39
98 92 47 64 70 98 89 98 96 84 90 82 93 100 100 95 100 98 95 98 99 97 98 99 80 77 51 51 91 95 96 66 62 43 41 45 58 39 38 52 46 36 26 30 33
97 80 71 68 79 98 96 97 96 69 54 79 99 100 99 98 99 95 98 98 97 98 92 93 92 56 55 69 80 100 99 85 87 72 82 58 53 55 44 59 46 45 44 54 39
95 90 84 75 87 87 97 96 85 64 47 62 97 100 100 98 98 98 99 82 99 92 95 99 95 58 78 78 72 90 99 94 99 79 66 40 50 46 36 43 47 61 79 66 57
99 98 97 84 70 58 96 95 78 74 57 68 65 82 96 98 100 99 97 70 67 53 96 100 92 96 84 76 74 97 100 98 93 88 70 64 39 32 40 46 43 50 41 50 64
97 98 94 94 97 97 98 88 73 80 68 61 63 55 62 69 84 97 93 70 57 62 78 82 99 97 96 76 81 86 89 98 97 81 97 83 64 46 47 47 38 47 48 54 49
97 98 99 90 94 95 97 90 76 69 65 61 60 61 63 58 77 90 83 74 67 64 73 91 96 99 76 79 82 100 75 92 98 98 93 86 54 46 47 46 52 45 44 41 37
98 98 93 86 97 80 95 89 76 70 66 59 57 58 60 69 76 92 84 81 77 78 90 92 100 87 70 64 81 98 97 97 97 98 78 83 70 59 63 61 59 58 60 42 53
89 94 96 100 90 95 92 85 74 68 66 66 65 65 66 74 92 88 86 89 90 86 84 98 100 95 78 88 98 100 99 99 98 84 95 64 70 65 71 73 75 77 58 58 81
98 90 71 72 84 88 92 88 85 75 75 69 70 81 91 95 90 94 88 91 89 90 99 100 99 91 91 96 99 99 97 100 100 99 99 98 94 57 98 98 84 77 96 81 98
99 98 96 97 88 80 76 83 83 78 90 94 88 87 94 95 98 95 99 99 98 100 94 94 92 98 94 97 98 98 99 100 96 97 99 99 60 96 95 98 98 97 100 99 90

GFSSW_700_rhum_015.txt.gz
RH
64 91 83 76 44 83 85 50 29 27 26 30 29 30 31 27 25 21 15 13 13 14 14 18 24 26 25 24 28 37 71 54 47 38 37 38 42 48 44 42 42 42 41 44 44
2 10 56 98 83 76 83 88 57 30 28 33 34 40 45 42 42 32 29 18 14 12 13 14 19 25 27 26 36 65 65 51 41 39 41 45 52 47 52 44 39 48 44 36 40
1 1 5 87 98 85 82 86 92 42 32 33 37 47 52 57 81 56 41 28 18 15 12 16 25 26 31 25 58 81 68 52 49 53 61 62 54 54 56 55 45 44 48 54 43
1 1 2 21 77 99 79 89 97 73 36 35 37 49 60 82 92 84 75 51 37 50 31 19 23 36 70 54 34 74 70 65 64 72 68 73 63 58 61 56 51 51 53 60 53
1 1 1 2 62 97 96 88 96 89 47 38 37 49 70 83 96 80 85 71 55 72 82 57 62 92 93 85 88 91 72 64 73 60 62 78 62 73 75 64 58 56 65 58 47
2 1 1 2 30 99 100 88 98 97 71 39 38 48 72 79 97 100 92 82 68 78 84 90 97 100 99 97 89 88 87 81 76 53 77 66 30 73 47 16 30 40 55 46 49
4 3 2 2 2 62 91 99 92 100 92 42 40 48 70 87 87 85 99 90 77 71 85 93 95 97 96 98 99 76 67 66 45 45 77 74 57 40 26 30 26 26 25 23 35
33 11 3 2 2 2 16 99 95 99 97 50 45 44 69 71 82 80 85 95 89 77 96 100 99 100 100 97 71 59 83 75 62 62 72 73 62 53 56 60 51 42 44 39 28
68 46 20 4 3 2 5 78 100 99 99 82 52 39 60 54 75 83 79 85 82 82 92 96 96 100 90 88 82 80 64 61 61 68 73 71 66 56 62 51 62 53 61 58 52
75 66 55 48 12 3 32 42 100 99 99 100 56 48 44 42 55 79 80 77 79 75 79 81 99 99 91 91 63 58 70 64 56 55 71 71 66 59 62 60 60 49 35 48 59
77 72 76 73 81 24 87 87 98 99 98 97 49 47 48 35 44 74 80 82 84 81 70 77 92 81 85 85 79 75 69 60 57 61 67 66 61 57 54 47 35 25 23 24 29
86 83 75 85 97 100 92 98 98 98 98 98 57 45 49 39 60 74 84 84 92 84 99 94 77 82 91 89 89 85 78 71 66 66 68 67 34 46 20 14 17 18 16 16 19
78 78 79 82 84 95 64 98 98 98 98 99 81 56 49 55 59 68 76 87 93 99 100 99 90 61 88 94 80 83 80 74 70 70 74 64 44 23 37 26 19 14 13 15 16
88 72 88 78 78 70 72 95 98 100 97 98 83 61 52 48 56 59 76 92 99 98 98 99 92 76 70 75 83 79 73 75 80 80 65 72 49 36 29 29 32 35 27 18 18
55 58 74 96 89 96 83 66 98 98 96 97 98 91 63 55 67 56 75 78 99 98 98 96 69 82 82 57 92 85 89 89 88 83 82 61 68 44 29 25 28 32 39 43 38
88 97 97 93 91 83 82 97 98 98 95 98 100 77 58 84 60 67 78 74 96 100 100 89 95 72 86 72 76 97 95 98 94 94 86 56 51 40 29 23 29 30 37 38 44
93 97 84 77 96 80 91 86 97 97 96 97 90 96 81 100 100 74 100 96 88 99 99 98 96 74 68 86 97 100 99 71 82 93 64 35 38 39 29 32 34 38 39 38 42
97 94 59 74 75 72 98 83 97 91 95 95 97 98 100 100 100 100 100 100 100 95 94 98 86 96 82 86 87 100 96 62 52 38 34 37 36 35 36 33 40 38 44 44 50
82 88 67 62 83 87 97 83 97 90 87 98 100 99 99 98 96 100 100 100 97 99 95 92 91 80 84 63 88 96 96 73 81 67 63 47 40 38 37 38 38 43 46 44 59
89 96 82 64 90 82 56 96 98 100 63 98 96 97 97 99 99 98 100 95 100 98 96 93 90 80 97 81 89 94 88 92 95 80 54 34 33 33 32 35 37 39 42 48 65
76 96 89 87 96 98 79 98 99 92 99 99 94 93 93 97 93 97 94 92 96 98 100 99 91 97 84 67 73 99 100 99 87 88 74 63 41 37 39 42 41 39 43 66 73
80 98 88 73 92 97 96 98 99 94 84 72 98 86 84 88 87 84 82 87 76 83 100 98 96 95 84 78 85 84 94 91 96 70 93 86 70 53 47 46 49 49 67 56 58
78 83 99 98 70 76 99 96 95 94 84 92 79 77 77 89 87 89 90 86 65 58 95 98 98 90 86 83 83 86 86 87 97 99 95 93 62 45 46 54 48 53 58 61 65
97 98 92 84 68 70 98 98 94 90 72 59 57 62 56 89 82 92 90 78 71 67 97 99 97 83 67 57 73 95 96 99 98 98 83 79 75 69 65 78 85 72 66 59 62
76 100 76 67 95 95 95 93 94 92 66 65 63 61 79 87 93 94 96 81 83 82 81 96 96 99 97 96 98 93 91 97 98 94 99 73 84 79 75 90 92 82 89 79 92
56 63 61 68 97 87 83 100 97 72 73 69 81 73 73 91 97 98 100 100 100 91 97 99 99 98 99 81 92 99 99 99 100 99 100 100 90 88 98 86 87 87 86 71 92
84 83 93 85 78 86 97 97 84 82 75 69 71 80 86 96 90 93 84 92 95 98 94 100 99 100 90 85 90 92 100 99 96 91 100 100 92 96 96 93 90 98 99 94 98

GFSSW_700_rhum_018.txt.gz
RH
1 1 2 24 76 72 68 87 87 65 35 29 24 28 28 24 24 22 19 16 14 14 14 15 19 21 19 22 29 44 81 72 57 48 44 36 33 36 38 39 39 40 38 43 46
2 2 1 1 10 46 88 78 88 88 64 32 27 33 36 36 35 29 30 22 16 14 17 15 16 27 31 28 37 48 51 51 49 49 44 39 38 40 45 46 41 41 41 42 44
3 2 2 1 1 12 70 88 83 91 91 51 31 35 41 48 52 39 38 31 27 16 17 16 23 38 36 48 60 48 42 47 27 48 45 45 46 49 48 51 50 36 43 47 40
4 3 2 2 1 1 16 96 84 85 100 85 36 37 44 57 96 66 58 53 42 29 20 15 22 56 50 66 78 72 76 50 32 51 61 53 49 53 53 54 51 49 44 47 52
6 5 3 2 2 1 3 63 95 82 100 92 50 39 47 65 85 72 86 78 73 69 46 22 21 32 57 62 77 81 69 68 64 45 65 67 56 46 48 55 45 44 50 49 59
24 9 4 3 2 2 2 39 100 82 96 93 69 40 44 76 83 97 96 85 76 78 78 80 88 86 88 86 84 85 86 84 62 65 47 46 34 38 31 18 38 37 45 50 53
78 62 31 7 3 2 2 32 89 93 96 100 84 45 41 67 86 92 99 97 85 90 85 99 99 94 86 91 91 87 84 72 54 34 39 42 52 46 25 26 24 20 20 24 33
74 84 82 59 22 12 4 4 94 99 96 99 95 50 40 60 62 80 98 97 94 99 92 97 96 98 90 89 92 76 80 73 48 44 43 67 58 35 59 50 37 29 29 26 19
82 79 73 53 51 46 16 3 38 62 98 99 98 55 45 42 62 76 86 86 100 97 99 99 97 97 100 88 85 83 75 66 63 60 64 68 64 53 65 56 59 59 55 39 29
82 75 69 68 72 66 64 8 7 24 99 98 99 70 47 38 48 73 83 84 92 91 96 100 99 99 92 97 79 71 72 64 59 60 58 60 71 64 55 63 64 51 40 36 36
87 80 83 81 74 70 82 50 43 58 99 98 96 73 55 31 40 55 84 83 99 96 100 100 100 97 81 86 80 79 76 67 58 56 59 61 60 54 32 34 19 29 28 21 19
87 86 77 77 75 80 94 79 100 89 99 99 93 95 54 40 37 48 82 86 98 98 99 100 92 79 86 82 82 83 83 76 65 55 62 56 35 29 19 13 14 14 14 12 14
88 86 68 83 84 82 76 78 99 98 99 99 95 82 54 48 38 43 76 96 99 98 99 99 84 70 74 90 80 77 84 78 72 70 65 56 33 21 29 26 19 16 13 10 8
72 68 69 76 80 89 77 72 97 98 99 98 99 84 60 70 54 79 87 100 100 99 97 98 97 92 70 90 85 86 74 73 72 76 71 67 72 25 21 23 22 16 10 13 18
56 74 93 97 74 89 79 90 97 97 99 98 99 96 64 78 68 83 99 100 98 98 99 94 98 98 83 68 78 81 81 76 78 84 85 61 73 25 22 20 20 24 27 28 32
55 93 90 97 89 84 78 94 96 97 98 98 98 95 82 95 83 77 99 99 99 99 98 98 93 75 68 68 73 91 91 84 81 87 96 50 51 16 23 20 28 29 25 30 29
63 99 91 85 80 83 82 89 96 98 96 100 99 86 93 100 98 81 100 90 88 99 100 99 95 72 65 71 75 97 90 88 94 94 88 35 48 33 26 28 31 32 33 34 42
97 88 68 70 89 60 72 96 96 97 99 100 100 100 100 99 96 97 98 98 99 83 88 87 88 83 75 71 83 95 88 76 77 83 67 52 52 41 33 35 35 34 36 35 36
99 76 69 83 72 79 45 89 96 98 100 98 100 99 98 98 92 99 98 99 99 92 84 91 88 91 90 79 92 97 96 58 86 68 76 55 38 35 33 32 32 33 37 36 39
97 82 77 91 84 72 78 88 97 100 97 96 95 94 99 98 94 94 95 92 97 84 88 90 87 84 93 83 83 94 79 91 89 95 81 47 40 38 38 37 34 36 36 38 37
96 98 88 91 97 73 77 96 98 97 99 98 77 93 87 90 86 89 89 88 94 97 93 95 92 89 95 80 65 84 94 92 94 91 94 80 48 38 40 43 44 43 40 39 46
92 88 91 98 86 91 89 98 98 98 90 95 88 82 88 90 90 91 84 86 87 99 98 95 87 96 80 71 71 89 88 84 90 75 79 74 73 53 46 53 48 48 49 49 60
54 87 94 96 98 83 98 90 92 82 87 84 82 81 82 85 84 83 91 85 89 91 96 92 92 98 90 87 84 84 78 84 92 93 95 95 68 52 50 54 64 67 56 58 58
66 85 62 78 91 90 97 97 96 87 80 58 68 80 85 86 86 88 88 84 70 82 95 92 93 77 77 75 80 93 87 84 94 98 88 88 80 74 79 92 97 88 93 86 78
64 74 61 53 58 92 94 97 93 86 65 61 78 80 86 88 89 92 97 81 78 71 90 98 99 88 78 66 70 76 71 80 98 92 100 90 99 75 98 98 98 98 95 92 86
42 41 46 52 81 80 87 94 90 75 86 76 89 91 80 86 96 89 96 96 91 96 91 93 93 96 82 76 78 88 81 91 99 99 99 94 96 100 99 98 97 98 98 96 93
51 51 61 52 68 86 90 94 90 77 73 68 83 73 97 95 88 90 94 97 97 93 90 97 90 88 91 74 82 89 88 94 99 99 99 99 98 100 88 96 98 99 100 95 98

GFSSW_700_rhum_021.txt.gz
RH
4 3 3 2 1 6 46 81 67 84 89 69 32 26 22 24 22 21 18 19 20 16 15 15 16 18 18 19 27 35 68 51 34 31 26 25 34 35 39 38 35 36 40 39 42
7 4 3 3 2 1 8 52 76 72 82 90 63 29 26 27 26 21 22 22 22 18 15 15 15 20 22 18 26 41 54 48 31 27 35 43 43 39 42 40 39 37 40 42 40
9 7 4 3 2 2 1 4 35 89 79 90 87 44 30 31 30 26 30 27 29 22 16 16 20 31 29 27 28 39 43 36 26 34 55 56 48 45 43 46 42 37 42 43 43
22 16 17 8 3 2 2 1 21 93 84 92 90 77 34 35 36 39 39 38 37 30 21 18 24 30 41 37 32 37 43 44 29 30 56 54 47 43 48 44 46 42 38 44 48
98 90 49 22 9 4 3 2 3 43 98 94 98 93 39 37 37 64 78 57 62 42 36 22 23 42 63 37 48 62 53 62 42 48 56 57 54 40 46 49 42 43 40 45 52
97 95 87 59 54 11 4 3 2 41 100 95 100 94 48 36 49 66 69 80 81 74 76 47 23 36 55 61 77 72 72 70 64 63 51 56 55 46 32 40 46 42 40 42 52
94 94 84 71 69 78 32 12 2 13 98 98 98 99 59 38 56 68 99 94 82 86 88 84 80 91 80 79 91 84 85 82 52 28 36 29 29 30 17 16 19 21 20 37 47
92 82 71 67 63 61 50 32 8 20 98 100 100 98 64 45 42 66 81 87 89 86 94 98 98 88 84 92 80 83 86 76 33 41 36 42 40 26 30 33 26 20 22 18 26
80 69 74 67 69 64 60 52 19 14 80 98 99 99 71 43 40 64 86 98 88 89 98 92 100 99 98 85 84 75 81 63 61 54 63 61 58 40 39 47 50 37 29 24 18
66 73 72 70 73 71 64 74 35 7 96 98 99 99 84 44 39 61 86 90 93 97 97 99 100 98 100 96 82 78 74 70 66 64 72 71 70 57 57 48 34 39 31 30 24
73 75 77 69 72 74 68 83 41 24 99 98 98 97 76 47 44 56 82 88 88 96 96 99 100 98 91 86 85 74 84 78 66 65 64 60 60 61 40 43 42 32 26 21 20
69 72 65 60 74 76 71 79 90 83 98 98 99 98 65 46 43 61 84 93 98 97 100 99 99 94 100 97 83 78 80 71 61 62 60 57 49 41 29 18 16 13 14 13 13
48 48 63 98 86 88 84 73 91 98 96 97 98 99 77 48 45 52 71 86 91 100 99 95 86 84 95 98 90 85 82 69 70 52 48 52 28 15 13 14 18 14 13 13 13
46 61 86 93 95 92 92 70 92 93 98 99 98 100 87 67 59 71 84 92 100 93 100 97 93 88 91 90 89 85 79 76 78 73 66 60 76 11 18 18 19 13 11 12 12
43 91 93 97 99 94 84 90 93 98 97 98 99 98 92 72 64 99 100 100 97 98 98 88 96 90 94 76 92 90 80 76 74 73 75 54 61 20 15 13 13 20 24 19 20
44 96 96 95 99 95 68 84 93 96 96 98 100 91 100 92 81 97 100 99 99 98 94 98 90 92 93 86 84 88 84 71 67 74 85 36 45 30 20 20 23 26 26 25 25
54 88 76 77 99 72 83 58 86 96 97 99 99 90 86 97 90 100 100 98 96 95 100 99 94 86 75 72 80 91 81 85 88 93 88 48 58 32 21 24 29 28 30 30 28
81 68 93 64 88 66 51 67 96 98 98 99 99 92 93 93 100 98 99 99 89 85 90 88 77 81 73 74 66 78 79 74 91 96 80 61 62 39 28 25 31 34 34 34 33
64 76 91 90 86 84 98 95 96 97 99 98 98 93 94 91 87 100 99 98 94 80 76 83 85 84 87 82 86 84 91 81 85 76 83 52 38 27 28 33 35 35 34 34 35
67 82 80 85 96 96 94 96 98 98 97 97 95 92 89 88 85 92 93 88 93 78 84 84 82 89 92 83 93 81 72 85 88 100 95 67 51 40 38 40 39 38 41 41 39
65 68 72 93 86 84 93 98 98 99 89 80 77 93 86 90 87 88 80 82 89 76 92 88 88 94 95 84 70 82 96 90 86 91 98 99 62 41 39 39 47 50 50 51 50
55 65 86 66 66 82 97 98 98 98 96 96 86 77 75 85 82 82 81 84 86 87 91 90 86 87 76 67 78 78 68 85 81 72 80 83 71 51 46 47 48 55 75 73 80
67 44 51 58 69 96 93 94 97 80 85 89 87 83 75 79 82 85 97 90 91 97 94 89 95 89 89 85 90 90 86 86 83 84 89 90 66 53 55 69 90 96 96 98 95
60 76 72 59 83 80 76 84 84 77 74 78 86 81 84 87 86 96 88 85 95 98 96 88 93 78 79 89 90 92 84 84 90 98 88 88 79 68 73 99 99 98 99 89 95
45 54 66 77 81 79 72 68 67 68 65 69 82 85 84 84 86 88 82 82 82 92 94 96 95 87 79 67 74 74 74 74 87 81 99 72 90 66 97 99 100 99 99 92 83
40 49 52 68 88 85 84 73 61 59 55 69 81 86 86 87 84 81 77 79 73 73 88 99 94 86 74 82 81 81 79 79 84 92 99 98 97 97 100 99 100 94 100 98 100
46 49 65 79 80 81 82 77 70 68 65 63 74 76 84 83 88 91 94 87 89 89 89 92 90 85 80 80 82 82 76 87 91 92 98 98 89 98 98 100 99 98 100 99 99

GFSSW_700_rhum_024.txt.gz
RH
10 9 9 7 4 2 2 5 42 82 78 99 93 81 34 28 22 18 15 18 20 17 16 14 15 20 29 39 42 42 51 38 27 23 19 15 25 40 38 41 38 37 35 34 33
11 11 12 10 5 3 2 2 11 71 70 96 97 95 57 32 24 18 20 21 21 20 17 16 16 17 21 23 41 50 48 32 24 21 24 22 26 33 39 40 41 40 37 36 41
57 76 93 39 22 7 4 2 2 21 91 76 95 98 87 40 28 19 21 23 25 21 20 17 18 20 21 22 34 46 46 28 21 19 20 29 36 36 50 45 42 40 38 38 39
97 95 94 96 78 56 14 4 2 4 61 87 88 99 94 61 32 24 26 29 30 28 24 18 19 19 21 29 26 30 35 31 18 20 22 48 50 43 51 49 44 42 41 40 43
87 96 98 90 88 68 58 17 5 2 7 87 92 99 96 74 31 44 41 42 36 37 29 19 18 19 21 25 31 40 34 34 24 24 32 39 62 53 46 49 49 46 44 39 42
93 90 85 80 72 81 71 61 28 4 3 83 94 99 85 80 36 55 78 63 53 39 36 27 21 26 29 30 44 66 44 45 41 36 31 30 41 55 37 42 50 49 46 43 40
78 79 78 67 65 69 59 59 58 11 2 24 100 99 91 84 42 66 81 88 89 86 71 47 29 54 42 52 61 67 78 70 43 32 37 36 26 35 26 25 36 51 48 47 41
73 63 64 69 69 65 63 52 43 24 4 32 99 98 98 84 48 65 82 86 83 86 89 69 44 50 48 81 86 79 87 86 45 42 36 42 28 20 20 21 22 22 41 48 45
58 57 72 68 60 65 70 57 58 23 6 60 98 99 94 84 41 69 90 94 85 86 91 92 95 80 83 78 85 83 86 76 51 45 44 58 50 28 32 31 28 25 20 17 17
63 68 86 82 63 67 63 62 66 22 10 55 98 99 80 82 44 73 85 90 91 84 100 100 97 100 96 96 82 72 72 68 68 61 66 69 69 41 46 50 37 29 24 21 19
53 71 70 84 82 63 66 62 70 24 40 99 98 98 77 89 44 75 100 97 99 100 95 98 100 100 99 97 89 81 77 84 68 70 72 73 74 66 33 40 45 32 26 25 23
42 47 56 58 94 87 73 72 76 57 46 95 98 97 80 77 42 64 90 93 91 100 98 98 99 99 100 99 100 97 89 82 72 69 74 65 56 49 38 31 29 27 25 20 21
39 44 59 84 89 94 81 78 76 78 89 97 98 100 85 56 47 74 83 98 94 100 99 99 93 99 98 98 92 89 86 78 75 65 64 62 56 40 23 16 12 11 11 13 12
48 83 90 90 88 96 77 71 83 62 95 99 99 99 89 59 65 74 92 94 100 100 97 98 97 87 91 96 96 93 84 81 79 67 68 52 68 23 16 13 11 11 14 14 10
96 97 86 93 100 99 75 68 93 65 96 99 98 99 90 70 64 91 100 100 99 97 96 94 95 90 86 91 100 94 84 74 72 76 76 55 66 23 18 11 13 14 17 14 14
96 95 93 91 96 98 79 64 83 96 96 98 98 99 95 77 88 99 99 94 97 96 93 94 92 95 86 84 86 92 81 69 71 72 80 42 53 34 18 19 17 17 21 23 23
79 90 87 78 95 57 64 73 89 96 98 99 98 99 91 96 100 98 98 92 92 96 99 100 97 91 87 91 87 83 77 66 82 97 80 56 65 29 25 21 25 28 31 33 31
75 82 72 77 76 74 55 71 91 98 98 96 97 100 93 95 99 100 97 90 89 88 92 98 96 88 82 74 68 67 77 57 70 96 85 63 64 30 23 23 29 33 35 34 33
75 70 66 81 99 79 69 82 96 98 99 98 99 93 100 100 98 98 95 91 96 82 83 87 84 89 85 78 75 79 88 76 82 88 90 58 42 27 25 31 33 36 37 35 36
57 78 61 62 71 80 89 98 99 90 85 93 90 97 96 90 92 90 92 96 94 80 69 77 85 90 86 81 90 79 77 88 83 98 91 70 60 35 36 40 39 40 40 42 41
50 49 56 71 82 92 96 98 98 98 95 92 81 86 82 81 79 93 76 83 76 75 76 88 80 89 92 84 76 91 94 76 72 77 98 95 62 40 44 46 44 46 52 54 53
42 52 58 76 90 96 98 100 96 94 77 79 77 70 75 83 74 77 77 81 79 79 83 87 82 85 70 77 85 87 82 74 70 72 92 92 73 44 45 54 63 83 87 94 90
37 46 65 67 73 81 89 92 95 90 84 87 87 78 78 81 75 82 90 86 83 88 83 86 82 83 84 81 79 88 77 88 85 83 92 89 66 51 55 69 84 93 95 98 92
40 57 75 72 70 73 75 76 77 82 82 65 70 78 83 90 82 93 92 91 95 95 88 81 80 73 80 84 87 89 82 84 87 94 87 82 64 54 80 95 98 99 100 93 92
48 51 60 77 75 71 68 65 74 87 83 83 80 84 87 84 87 91 91 86 95 94 90 92 84 85 81 81 86 80 81 83 88 79 96 67 80 74 94 99 98 99 99 95 94
38 52 51 68 71 73 69 63 64 72 69 84 84 84 86 86 78 81 82 83 86 97 97 96 92 87 73 80 79 79 75 79 78 78 86 84 81 85 93 98 99 100 95 87 88
45 43 56 59 66 69 71 63 62 65 72 82 82 81 82 77 78 78 80 75 78 72 84 92 92 88 79 84 80 79 70 74 79 85 89 92 76 90 89 88 98 99 98 94 97

GFSSW_700_rhum_027.txt.gz
RH
10 12 18 38 29 14 7 3 2 5 42 80 97 99 88 75 31 24 16 16 23 20 16 15 17 23 30 38 45 43 41 39 30 27 22 19 20 27 35 39 35 36 38 37 34
11 50 94 95 97 88 31 9 3 3 14 78 86 99 98 91 48 22 20 20 22 22 18 16 15 21 31 36 44 44 42 38 32 28 24 23 24 21 32 39 39 40 39 38 36
27 83 87 94 89 96 98 75 11 3 4 44 78 96 99 97 73 21 24 22 22 22 22 18 17 18 22 31 43 44 44 36 27 28 26 28 25 24 25 36 39 43 42 40 39
47 80 89 93 94 94 97 85 71 14 3 8 78 92 99 98 81 35 25 24 26 23 24 20 18 19 22 26 34 34 38 26 24 27 28 31 28 24 23 28 37 42 44 42 44
91 84 76 75 68 71 86 73 68 62 10 2 46 94 99 95 76 47 35 27 32 38 25 23 19 20 19 20 25 34 34 23 21 20 26 28 26 22 18 24 45 43 45 43 42
90 82 68 65 63 61 67 63 61 61 34 4 23 99 99 93 88 46 63 48 40 50 35 28 22 22 24 23 28 38 31 30 24 20 22 21 20 26 16 18 29 46 49 47 44
91 90 58 51 66 64 68 57 55 50 49 6 4 92 99 98 86 49 74 66 55 58 48 29 24 38 36 32 40 45 47 31 26 25 27 24 16 16 20 19 21 36 49 51 48
77 68 68 77 67 59 62 63 58 47 45 8 27 99 98 99 90 50 88 85 82 68 46 37 34 62 52 60 63 59 60 69 36 28 26 33 19 19 21 18 20 25 36 46 53
95 94 94 85 74 67 58 59 57 56 35 8 50 100 98 98 96 52 92 96 98 99 89 45 51 68 62 87 95 90 81 67 36 40 46 56 47 22 22 20 18 15 15 24 36
94 96 82 66 85 86 65 63 57 55 31 8 99 99 96 99 96 61 72 96 92 98 97 72 80 82 84 91 89 92 77 62 60 53 66 62 61 21 34 33 41 23 15 14 14
96 51 51 47 56 76 89 77 58 55 27 30 98 97 92 98 71 74 79 95 89 99 94 97 100 91 78 66 60 72 74 68 65 58 60 58 70 39 28 42 35 29 23 20 17
59 42 44 56 65 87 92 82 72 75 19 75 99 99 98 100 62 90 85 98 99 94 94 100 100 100 100 95 91 89 83 76 73 73 78 67 56 41 31 31 36 35 32 27 26
96 87 71 80 75 91 88 83 76 54 58 94 97 89 98 99 59 100 100 96 93 98 100 99 100 99 99 99 96 98 84 88 84 72 71 66 56 38 31 31 27 19 14 14 17
89 97 85 80 79 100 96 73 69 69 68 98 98 99 99 91 56 81 100 99 100 99 100 93 97 94 97 100 97 89 84 82 80 77 73 62 70 34 24 16 14 12 13 16 15
76 78 86 82 84 88 90 69 87 89 95 97 99 95 84 80 58 82 99 100 98 99 99 99 97 94 98 97 92 92 87 86 79 68 67 51 59 29 17 12 13 13 14 22 19
65 66 70 65 72 87 69 69 79 92 97 98 99 99 84 76 76 96 99 100 99 98 97 92 97 96 92 90 97 96 94 85 73 61 78 54 57 19 18 21 20 18 19 19 20
60 65 65 56 48 56 58 63 93 96 96 99 99 97 81 98 92 100 98 98 97 98 98 99 99 98 98 92 90 99 92 60 63 87 75 60 66 20 21 29 30 22 23 24 25
45 88 62 46 54 61 53 78 93 100 99 99 99 94 98 100 96 98 94 87 93 86 98 95 98 93 91 92 82 87 82 53 54 86 82 62 66 29 23 28 28 29 31 32 32
36 50 49 57 60 57 62 88 97 97 98 98 96 89 99 97 96 98 89 84 85 89 84 91 86 90 93 84 79 78 84 71 69 92 91 56 42 21 26 29 36 39 39 39 40
50 60 68 65 71 80 77 100 99 99 100 88 88 93 91 93 93 99 90 83 80 88 80 84 81 88 92 88 90 82 68 77 68 70 85 64 54 29 35 40 44 45 46 46 43
57 64 65 71 81 90 98 99 100 100 90 81 76 84 91 90 90 91 77 78 88 89 81 76 72 91 96 90 84 88 89 76 70 74 89 95 48 35 39 46 51 58 76 73 71
61 69 69 77 74 88 100 100 93 94 80 71 70 66 68 74 76 79 81 80 78 89 88 84 81 81 82 90 91 92 75 70 62 76 94 96 61 44 47 58 70 90 81 96 98
59 67 70 63 74 81 89 84 80 77 73 71 71 72 68 63 63 77 70 68 83 75 87 86 74 78 87 86 90 88 78 81 85 78 83 84 60 50 56 79 89 96 95 97 99
56 60 65 72 81 79 82 86 93 88 77 81 80 79 74 77 73 76 88 87 84 86 84 80 75 76 78 80 77 80 73 79 93 89 78 71 53 56 70 82 91 92 92 97 99
40 49 60 63 72 72 75 82 84 80 70 74 82 71 84 92 80 82 87 87 92 95 89 88 85 84 80 81 85 81 82 81 81 74 85 51 67 69 82 92 92 92 95 96 89
31 43 66 68 69 66 71 78 82 81 81 70 82 89 86 80 82 77 82 82 89 93 93 91 90 89 71 66 67 69 64 69 77 82 82 72 76 84 85 86 93 100 98 93 91
41 31 41 60 71 78 71 71 74 74 83 78 83 84 92 86 76 84 84 85 83 76 87 96 96 86 78 88 88 78 65 66 65 69 73 82 79 87 78 84 99 99 97 98 96

GFSSW_700_rhum_030.txt.gz
RH
7 6 18 76 96 97 97 76 27 14 3 7 93 100 99 98 82 52 22 18 20 23 18 19 22 27 34 45 45 33 34 34 32 26 26 24 24 23 21 32 36 39 36 37 36
9 19 54 89 82 91 85 93 94 66 18 4 38 98 100 99 95 63 28 25 21 22 21 18 19 25 31 43 50 46 37 30 27 24 26 27 28 24 21 19 26 38 36 36 38
85 85 99 98 91 85 90 93 96 96 85 11 10 89 98 99 98 68 58 27 24 21 25 19 21 29 30 39 47 49 47 43 36 33 32 31 30 27 23 20 23 38 42 40 40
82 100 97 96 82 73 74 72 75 82 85 56 9 70 98 99 98 87 65 28 25 24 24 22 19 29 36 36 46 45 47 44 36 34 33 33 31 32 25 17 24 37 43 45 43
84 95 95 92 67 74 70 62 60 70 79 63 13 40 100 99 98 74 56 31 27 24 24 23 20 22 30 38 50 51 51 42 34 32 30 31 28 26 18 18 18 31 41 47 46
90 97 95 98 71 59 66 61 64 63 59 61 25 28 99 100 90 88 60 33 27 24 25 24 22 24 30 29 34 54 56 38 30 29 26 26 21 19 12 13 14 17 40 47 50
91 95 88 79 85 73 71 55 62 59 54 54 30 22 98 100 98 96 58 49 31 29 33 26 26 31 36 37 34 47 40 30 23 22 25 18 13 12 11 13 11 12 25 46 50
88 90 94 90 94 82 74 59 60 60 52 50 29 12 96 91 84 88 54 79 56 56 70 39 34 49 53 54 53 46 48 40 27 21 23 21 16 20 18 15 12 12 17 22 40
93 95 87 95 73 85 84 83 60 56 59 48 22 66 97 66 90 78 83 84 80 95 91 66 49 59 66 69 82 77 68 48 37 31 33 29 28 27 19 16 17 14 14 15 23
98 92 66 48 48 60 62 87 68 56 60 50 17 100 99 68 96 72 99 89 94 93 74 79 59 71 80 98 87 90 83 52 43 37 37 47 58 23 20 22 23 19 12 10 11
99 98 68 44 48 54 82 94 76 58 61 31 26 98 97 98 98 79 99 100 99 98 79 72 94 81 84 94 83 83 79 67 49 53 53 42 47 22 20 22 18 19 18 16 15
87 89 96 81 72 78 86 94 77 73 46 96 56 95 82 85 94 73 96 99 92 98 97 89 97 80 82 72 71 84 79 69 66 69 74 63 56 27 20 20 24 26 23 22 22
82 82 87 90 85 86 91 70 67 42 43 98 86 99 100 100 99 80 80 95 98 97 99 99 94 94 86 88 97 84 76 74 72 78 76 68 53 32 23 27 28 26 23 21 17
72 73 91 88 89 88 75 61 52 62 76 98 98 99 99 96 98 93 95 96 99 99 100 97 100 94 98 99 99 89 80 82 82 81 75 63 64 31 26 19 16 15 15 13 22
64 78 71 87 80 84 58 44 57 63 94 97 99 98 98 89 82 100 99 83 86 89 99 100 99 99 99 99 99 99 89 87 86 81 74 57 56 28 18 16 17 16 14 13 14
43 52 51 64 72 43 37 91 82 85 96 98 99 95 95 87 67 99 99 99 99 96 98 99 100 98 99 98 98 98 89 93 89 79 71 55 52 14 18 23 25 25 24 24 24
59 66 56 37 42 44 72 70 69 91 99 98 98 92 80 91 60 94 97 91 98 99 99 100 100 96 94 99 98 98 95 78 63 73 72 58 58 17 26 28 26 24 22 24 24
62 65 57 27 35 50 69 82 87 98 98 99 98 89 93 99 100 99 97 99 94 90 93 94 99 98 95 87 82 96 93 61 54 76 74 71 62 31 33 33 30 26 35 36 34
70 76 78 66 48 54 70 93 98 98 99 95 91 89 91 94 94 92 94 89 91 87 72 82 86 98 88 93 92 93 93 78 64 82 85 52 36 26 26 31 34 44 48 48 44
70 75 62 48 36 43 63 100 97 94 99 92 85 96 98 99 91 93 89 82 79 84 79 80 83 90 94 94 91 80 74 77 62 68 70 53 48 30 37 35 46 56 57 56 61
64 76 68 58 64 70 91 93 97 92 82 76 67 78 69 76 80 79 84 78 79 81 84 78 76 98 98 93 87 90 86 68 63 64 82 78 37 36 38 46 64 77 82 85 79
61 67 79 84 79 88 98 100 89 85 76 68 66 67 73 84 80 75 85 73 78 79 85 75 74 82 88 88 87 88 82 71 58 72 88 88 49 45 49 57 77 83 89 86 90
54 64 66 73 90 100 100 100 99 88 79 71 69 70 68 74 76 73 79 76 73 82 90 81 76 80 95 93 93 93 83 83 71 68 76 75 46 49 52 67 80 88 88 79 78
49 54 65 69 84 94 95 94 91 89 83 86 78 73 71 71 62 71 71 68 69 79 92 88 79 70 74 78 77 84 73 78 83 88 76 63 42 55 71 81 83 84 92 100 88
31 43 51 57 65 70 76 92 93 82 85 82 88 80 72 73 76 70 79 85 86 86 89 93 86 77 75 77 82 79 83 80 80 71 73 56 55 66 83 85 84 95 98 94 90
39 36 48 61 62 64 71 83 88 81 82 72 77 80 87 87 76 77 69 82 83 93 94 96 88 88 75 70 72 73 70 81 82 78 76 66 65 84 86 81 82 94 94 92 100
28 42 38 50 65 64 61 63 72 75 79 83 85 90 90 87 83 78 87 87 88 83 90 96 96 88 78 87 89 77 69 68 59 54 57 67 75 89 76 74 79 86 81 82 97

GFSSW_700_rhum_033.txt.gz
RH
6 6 18 66 89 87 96 92 91 94 87 58 12 24 96 89 99 96 58 26 28 23 25 20 22 28 37 46 38 37 59 61 48 39 33 30 29 25 24 23 31 37 40 37 36
14 35 78 100 97 93 80 86 85 90 87 98 61 5 57 94 99 73 82 67 32 24 26 20 19 27 34 50 48 38 36 33 32 30 28 29 28 25 24 22 26 29 38 38 36
68 77 93 96 97 98 93 94 89 91 92 86 91 16 18 79 99 98 97 94 35 24 28 22 22 27 34 45 52 45 38 35 31 26 24 26 25 28 26 22 21 22 29 37 37
98 94 90 95 94 96 85 83 71 60 59 70 73 65 10 81 98 96 84 91 37 27 26 26 22 32 36 48 60 52 47 42 37 33 29 30 32 33 30 22 20 19 24 35 37
90 93 98 91 94 96 89 74 65 50 52 54 77 62 12 84 98 95 99 89 40 28 25 38 21 22 29 46 57 60 52 48 43 42 38 38 41 39 31 24 20 19 22 36 42
91 99 97 94 93 90 65 72 59 47 55 62 69 60 21 75 97 97 99 87 42 29 26 43 25 27 38 45 60 62 57 43 39 39 39 39 43 42 30 24 17 17 20 29 38
84 96 94 96 96 76 88 81 55 53 60 64 74 91 23 64 95 99 95 86 40 29 25 42 52 29 27 40 50 74 65 54 37 38 40 38 35 31 24 19 14 13 14 17 38
83 88 90 95 92 75 78 82 77 54 57 52 52 67 19 72 99 98 91 76 53 37 33 36 79 50 45 46 41 57 70 44 30 29 31 34 30 29 17 14 11 10 11 12 13
83 87 94 82 61 66 78 64 74 67 55 67 78 72 30 70 84 99 89 94 66 59 57 59 80 73 69 57 69 62 65 47 39 28 30 24 28 19 16 14 12 13 11 10 11
78 78 83 95 42 45 52 64 88 80 59 65 59 53 25 43 64 88 77 99 66 68 91 92 73 74 78 68 81 80 75 41 30 28 25 37 47 31 25 22 20 17 13 11 12
82 76 84 84 73 65 68 83 90 72 73 55 48 91 70 49 70 78 69 99 96 95 97 99 86 77 87 83 66 54 44 40 33 40 49 51 53 24 22 21 19 17 16 15 16
60 70 81 84 91 88 85 92 76 74 57 50 92 98 100 63 76 88 95 96 99 99 98 98 91 69 81 98 77 76 67 62 57 54 59 54 47 21 21 20 21 20 18 18 19
56 70 76 76 93 91 92 73 66 56 94 48 91 99 95 84 92 92 98 98 99 98 98 89 88 82 82 95 91 88 73 60 71 72 72 70 46 24 28 30 30 25 22 22 24
41 62 76 80 86 80 55 49 50 93 92 46 89 99 98 93 99 98 98 99 98 99 98 98 97 93 89 82 75 76 78 83 81 80 72 66 61 27 29 30 29 23 23 21 19
23 45 67 66 56 36 24 49 83 86 95 97 98 99 99 98 95 89 99 89 91 99 98 99 100 99 100 99 92 89 89 89 83 82 79 65 55 27 28 24 26 24 20 19 22
13 13 22 19 38 45 68 90 87 77 97 98 100 99 98 98 100 96 94 84 91 97 99 99 99 100 98 100 100 98 95 92 89 87 74 58 51 25 26 33 33 31 30 30 30
19 16 36 38 42 55 71 75 76 91 97 98 99 98 86 92 99 98 99 99 98 98 98 99 100 100 98 98 99 99 95 86 65 75 73 57 53 25 29 34 32 29 28 28 27
35 38 46 52 54 64 73 67 82 100 99 97 95 94 90 95 99 99 99 95 100 92 94 95 99 97 100 96 89 99 91 73 61 57 58 63 61 34 37 34 33 34 41 41 43
29 32 47 46 54 67 66 61 96 100 97 93 85 72 90 78 70 84 85 92 89 93 84 92 98 96 100 95 89 98 95 76 61 76 72 44 33 28 30 35 43 52 45 36 35
62 36 29 42 39 45 52 100 99 86 92 83 79 82 79 81 82 85 78 87 86 81 73 75 93 98 96 97 92 81 84 80 68 72 60 44 40 29 38 43 54 55 54 54 58
62 58 58 57 55 59 82 100 100 100 92 78 70 82 86 85 86 87 89 79 84 76 75 76 75 100 100 98 91 85 78 65 60 56 66 56 32 36 38 45 52 57 62 64 62
53 57 63 70 81 78 94 96 98 91 83 69 70 73 71 80 79 82 83 68 80 82 77 77 76 96 100 92 91 90 87 78 55 67 72 78 39 38 44 55 64 73 78 78 73
50 58 59 61 81 98 98 99 95 85 78 73 70 68 70 72 78 81 86 83 79 86 81 76 73 83 99 90 90 89 81 80 70 57 61 64 39 47 51 67 78 82 84 84 81
34 44 55 62 61 69 80 88 86 83 82 78 77 71 70 72 70 71 77 81 78 78 87 85 75 59 62 68 73 81 73 77 79 76 66 54 41 45 64 77 79 81 82 82 72
28 31 38 54 61 68 68 74 82 76 76 83 88 83 77 70 67 62 70 75 70 66 79 89 82 76 68 70 74 75 76 73 75 70 72 48 48 57 80 80 78 81 84 80 77
18 37 35 49 64 64 66 78 79 79 75 70 81 84 81 78 76 83 64 67 73 78 82 95 85 81 76 72 74 73 72 77 75 74 71 63 55 82 88 81 78 78 83 74 72
8 17 42 40 51 68 68 68 73 70 74 70 77 86 88 85 85 84 86 85 85 82 85 90 88 89 77 81 86 81 59 57 56 55 55 62 66 83 80 82 75 80 76 68 61

GFSSW_700_rhum_036.txt.gz
RH
16 19 28 60 91 99 97 97 96 89 96 97 92 34 16 81 98 99 86 68 51 29 22 26 22 26 36 46 38 62 81 66 67 67 56 40 33 30 27 27 27 29 39 38 36
44 77 90 93 88 95 97 97 93 92 96 90 90 83 15 53 92 99 100 83 90 36 23 25 21 28 34 46 44 47 72 60 62 68 51 39 33 30 28 25 24 25 36 39 38
91 90 92 95 89 87 90 96 99 100 98 97 96 92 61 24 87 94 86 98 96 42 25 28 28 62 36 41 49 43 60 62 62 47 36 37 34 30 28 24 24 23 28 37 38
87 88 86 83 92 83 89 90 95 95 88 80 67 62 61 32 61 82 82 98 97 46 28 30 28 67 53 42 49 54 46 64 49 34 29 29 30 27 25 34 25 24 24 27 33
74 84 85 83 88 90 87 94 89 70 55 52 58 40 56 50 29 68 95 90 91 53 28 26 26 65 88 53 52 54 60 46 42 35 33 30 30 30 25 29 29 25 21 21 28
82 80 82 81 87 92 81 84 68 64 49 62 74 57 49 47 22 90 99 88 96 57 29 46 26 60 100 84 61 62 74 52 47 43 38 41 39 37 32 34 32 26 22 22 20
91 86 89 84 90 89 74 85 78 62 58 62 56 51 58 45 29 98 99 100 92 51 33 62 36 53 75 91 79 76 71 60 50 48 50 48 50 40 40 37 32 26 22 20 20
85 88 83 91 92 86 80 76 73 68 65 60 52 68 63 57 30 72 98 100 94 49 36 70 73 61 83 76 64 88 76 79 44 49 52 49 51 51 30 29 27 23 20 17 14
80 77 81 88 87 42 69 76 60 68 71 59 65 68 65 30 40 95 99 99 78 47 54 81 86 75 66 72 90 84 60 63 65 37 49 43 51 46 28 19 16 14 13 11 10
53 73 72 88 76 42 51 65 73 79 74 57 65 62 58 37 94 98 99 95 56 67 78 92 83 83 93 77 54 64 59 71 59 44 30 26 37 28 20 14 13 12 11 11 10
57 73 78 80 79 64 65 74 85 78 62 54 56 100 52 55 96 98 97 99 83 82 89 97 94 91 93 82 69 75 69 63 35 51 34 44 63 28 19 19 13 14 14 14 14
64 60 66 75 87 88 90 92 64 58 53 57 98 99 68 75 88 95 98 98 88 88 93 99 99 95 99 94 77 76 65 65 52 49 47 65 43 26 21 18 16 15 14 13 14
32 60 62 70 78 63 56 52 50 52 78 95 97 99 64 67 66 94 99 97 84 87 96 97 98 99 96 88 88 88 75 65 70 57 62 57 42 22 23 23 21 20 19 18 17
11 20 20 31 39 48 64 77 82 86 94 97 98 98 82 96 92 96 87 99 99 99 98 99 92 86 94 93 84 87 74 65 67 75 56 56 33 45 40 38 37 34 30 27 26
9 10 17 38 63 79 77 85 84 90 88 97 100 99 99 82 84 82 94 98 98 97 99 97 86 93 94 92 93 80 62 82 85 80 74 66 54 46 38 38 34 28 24 23 23
32 23 30 51 63 72 72 73 75 82 95 99 99 85 90 98 96 98 98 98 99 99 98 97 98 99 100 98 96 92 89 90 87 82 80 67 58 38 39 41 34 34 32 31 30
39 42 50 53 56 62 64 64 79 93 98 99 98 97 98 100 98 99 98 99 94 98 98 99 99 99 100 100 98 99 94 88 84 91 64 51 56 40 34 38 36 38 36 34 31
25 38 42 48 58 62 63 65 88 100 100 93 96 92 98 98 99 98 99 92 96 90 97 97 98 98 98 99 98 97 98 70 62 50 42 51 47 39 31 36 37 38 40 38 38
52 38 26 31 38 44 48 54 91 95 99 100 92 74 93 85 94 98 89 90 93 82 84 90 100 100 98 97 98 98 97 72 53 54 60 40 37 37 37 37 41 45 42 44 45
50 51 51 54 39 52 50 71 97 92 86 86 78 77 95 84 76 87 86 86 84 78 69 74 98 98 98 98 98 92 83 78 69 71 53 34 35 31 37 45 58 57 52 51 51
47 50 43 48 43 57 63 92 96 94 88 78 73 74 63 76 74 74 79 83 82 80 66 66 74 97 96 98 96 82 91 73 71 56 43 29 25 35 45 48 55 58 64 64 61
44 52 49 44 51 56 98 98 98 90 80 70 71 72 68 67 76 80 87 73 85 81 80 74 73 98 100 88 92 91 83 68 57 73 70 64 33 37 44 53 52 58 62 64 62
37 43 54 52 54 64 70 85 93 85 75 72 71 69 71 73 77 86 84 74 78 78 73 73 72 97 99 92 89 94 87 83 73 58 63 47 34 42 50 54 65 75 73 68 67
29 31 44 55 53 53 59 64 66 65 64 66 70 70 70 76 67 76 79 87 81 73 82 80 66 57 56 62 67 82 71 78 81 72 67 53 47 50 48 65 81 76 73 74 60
12 29 30 48 61 62 63 67 76 72 64 77 82 77 72 70 69 66 71 77 78 75 73 83 81 70 62 62 69 72 71 69 78 71 66 56 39 44 62 78 76 70 73 69 63
14 14 37 33 57 61 63 71 74 76 69 68 78 77 73 74 68 79 66 72 70 71 78 87 84 76 70 64 69 67 66 71 70 72 68 58 43 51 85 81 76 70 74 69 60
22 10 16 45 39 60 65 64 72 68 71 66 78 83 85 76 75 76 83 77 82 80 81 93 92 80 84 77 77 67 50 53 53 55 55 58 52 70 82 80 76 73 76 68 62

GFSSW_700_rhum_039.txt.gz
RH
21 38 77 85 92 90 77 77 88 93 98 94 99 95 65 11 74 88 95 65 82 47 26 22 23 26 34 42 48 96 96 87 67 52 48 53 54 48 44 38 35 37 40 44 46
25 72 96 88 83 82 70 70 80 93 96 97 98 99 85 33 26 92 85 100 86 82 31 22 22 23 30 42 50 64 86 72 60 54 56 58 52 44 33 30 36 37 35 39 40
52 72 71 80 80 77 74 78 81 91 94 95 97 97 86 80 22 32 99 99 83 96 44 26 25 26 35 49 50 47 67 68 59 56 61 60 56 45 36 40 38 39 40 32 38
90 91 86 74 75 74 75 84 84 94 92 97 97 98 89 82 49 47 89 100 100 97 52 44 40 57 85 51 48 76 53 58 55 60 60 60 55 51 34 40 42 44 30 24 34
92 96 96 89 85 75 75 84 87 90 92 89 88 71 50 58 53 64 49 96 94 99 53 55 46 56 93 91 83 67 67 66 66 65 58 55 55 50 49 49 32 27 24 23 24
76 72 84 89 87 80 80 84 91 83 65 52 41 59 37 34 72 76 63 82 92 99 53 66 59 77 97 97 82 90 77 79 70 61 50 50 59 54 39 55 33 26 27 24 22
59 76 78 85 87 82 83 81 86 73 55 44 46 46 42 41 68 43 100 70 94 88 62 93 96 100 98 93 95 96 78 85 75 58 58 45 62 64 46 58 34 30 30 26 22
67 77 78 79 86 83 69 76 74 63 60 56 55 47 43 46 44 54 99 81 100 99 89 76 99 99 98 96 96 96 86 77 63 54 60 59 54 57 51 48 39 50 41 32 23
62 76 72 78 80 59 48 69 52 56 62 64 58 67 62 50 42 51 98 99 95 99 78 57 95 98 99 97 96 84 65 67 64 38 62 58 57 55 54 35 30 37 34 28 23
44 56 61 72 76 42 51 64 58 73 72 75 73 70 55 55 47 63 98 99 100 97 63 98 99 98 96 77 63 59 65 49 52 59 49 72 69 55 50 43 26 22 30 22 18
21 40 59 77 87 82 77 68 77 83 74 98 100 81 79 84 66 95 94 100 100 81 63 99 98 93 81 66 51 44 56 42 47 52 51 65 57 55 57 32 18 14 15 19 15
42 39 31 34 46 58 77 84 64 66 76 63 92 93 99 91 91 98 82 99 96 93 97 98 94 90 77 65 57 63 51 51 57 60 47 48 56 59 56 19 15 17 21 19 18
40 51 63 68 66 37 35 41 47 71 96 96 88 89 80 95 98 98 99 94 88 98 99 92 91 98 94 78 73 60 58 54 62 68 53 59 55 33 36 20 17 12 13 13 13
34 37 54 62 70 74 66 88 92 96 97 98 86 96 96 97 98 98 95 98 100 98 100 96 92 95 89 90 66 57 65 72 83 71 42 54 22 40 40 22 20 18 17 16 15
27 36 44 54 64 79 80 81 80 100 93 98 98 94 98 91 97 97 94 99 100 99 98 99 97 98 85 82 70 70 73 85 77 76 74 60 51 39 42 42 38 35 31 28 26
38 45 48 52 58 71 72 74 82 92 95 93 100 96 91 92 83 88 99 91 98 99 99 99 99 99 89 87 77 82 74 78 84 79 75 58 46 36 41 43 46 35 31 27 25
51 33 35 31 42 49 63 68 88 91 96 96 98 99 94 96 98 98 98 98 98 98 98 99 99 99 89 89 99 85 79 77 80 91 60 63 60 36 36 40 49 41 40 33 31
54 53 43 37 32 43 52 63 86 98 100 98 99 99 99 100 99 99 99 98 99 97 98 98 98 99 98 97 90 90 80 74 63 59 49 61 49 38 41 37 46 53 36 33 32
44 54 60 55 38 45 47 60 95 90 95 99 96 99 98 99 91 97 99 98 98 98 98 98 98 98 98 97 93 99 99 83 57 40 46 41 42 43 41 36 38 38 35 36 35
45 46 51 50 38 44 41 72 96 93 88 91 82 87 81 91 93 94 87 91 89 79 84 86 96 98 98 98 99 94 97 90 69 76 45 36 29 27 36 38 39 41 50 46 43
45 46 50 48 47 50 49 72 96 78 78 89 86 85 82 87 86 81 84 73 77 75 65 80 84 100 100 97 96 97 98 92 78 63 54 29 25 34 34 49 50 55 50 54 60
34 46 50 46 60 68 59 77 84 83 71 72 72 79 82 87 83 80 76 89 74 76 78 66 97 98 98 93 87 92 82 79 62 70 59 60 40 41 53 60 51 51 52 64 63
20 36 50 48 97 81 61 63 70 73 69 66 66 66 69 90 84 89 88 65 75 76 83 72 85 97 96 94 86 88 81 81 72 61 79 51 40 40 49 51 56 55 68 68 66
16 30 44 50 54 88 73 67 69 64 64 65 64 63 66 82 73 88 78 73 69 68 67 74 74 76 61 69 76 80 72 89 82 83 62 50 46 49 48 59 61 64 68 66 68
22 20 38 55 60 58 61 62 62 79 60 67 76 80 78 78 78 79 90 75 79 68 73 82 79 60 54 57 63 65 71 87 86 76 66 53 44 53 54 63 64 72 69 69 64
23 16 39 40 57 62 64 62 69 70 68 86 73 90 85 79 72 76 63 83 76 73 75 74 77 75 68 61 58 54 56 84 70 69 77 67 59 58 47 58 69 72 68 70 63
25 23 13 42 50 67 94 72 72 74 68 67 78 91 93 91 80 81 88 86 87 69 87 90 84 77 84 78 78 76 40 44 49 46 55 75 45 66 60 78 74 74 70 72 64

GFSSW_700_rhum_042.txt.gz
RH
11 12 27 63 96 97 86 82 70 62 62 87 89 90 97 83 42 15 28 33 94 85 40 23 20 26 35 46 73 84 97 99 77 73 59 45 45 46 43 39 37 37 40 59 47
14 57 80 81 66 76 81 78 66 62 77 80 90 100 99 85 75 19 57 88 61 79 78 28 20 23 27 39 70 94 88 72 73 66 63 56 48 51 49 38 38 36 37 43 52
77 87 91 99 97 94 81 78 70 74 81 81 79 96 98 99 81 36 30 100 69 80 89 37 26 26 28 33 52 67 70 67 90 70 66 85 57 51 48 42 33 37 37 37 42
84 80 63 73 93 89 86 77 73 74 82 91 91 93 98 97 83 71 29 76 98 99 89 45 29 28 58 29 45 61 45 74 72 74 78 68 60 56 46 43 41 37 39 31 34
36 45 75 76 84 91 85 74 79 80 89 90 86 97 96 92 79 80 32 98 69 86 91 67 31 38 61 30 57 65 71 61 61 62 65 68 58 54 50 45 43 42 36 29 28
39 57 73 77 79 87 77 78 79 87 78 65 64 69 75 75 74 91 79 74 99 98 98 84 40 75 91 88 63 62 70 70 61 62 63 62 60 57 49 50 42 39 33 27 23
26 51 62 70 80 87 77 82 83 81 70 52 41 48 43 41 60 68 99 57 99 98 97 95 64 97 91 92 93 90 82 80 73 68 62 55 58 52 50 52 54 36 28 26 24
17 35 49 67 77 75 69 76 70 65 60 56 52 49 41 38 28 45 99 87 93 84 100 70 94 98 92 93 89 84 80 84 70 73 60 46 45 44 44 51 48 52 34 28 27
29 24 46 64 60 38 43 69 53 47 47 54 50 49 46 38 27 46 94 100 87 97 99 100 97 99 94 98 93 82 73 79 75 65 58 47 60 50 56 60 55 47 39 45 39
46 45 31 39 75 58 53 62 52 51 62 61 57 51 47 75 38 47 78 100 57 92 98 99 96 82 93 98 90 69 72 66 70 69 56 41 48 50 55 56 52 33 40 43 36
42 40 46 46 32 62 81 77 82 84 76 89 95 55 65 85 47 58 98 83 86 98 94 95 90 67 59 66 64 68 68 59 58 62 56 45 60 49 56 55 48 36 26 24 23
33 43 54 68 59 57 46 43 52 64 84 59 61 74 99 68 62 84 98 98 99 99 98 82 85 71 83 77 69 55 52 53 51 52 55 58 50 50 50 50 36 26 22 17 21
32 38 51 62 79 94 93 96 88 92 96 98 98 98 82 84 77 91 98 98 100 100 92 99 96 87 84 77 68 56 54 48 54 60 60 57 49 44 48 26 26 17 12 11 13
31 41 42 54 60 76 97 95 98 91 95 95 87 85 99 95 98 98 97 98 99 94 94 97 94 90 99 83 62 59 57 55 55 72 64 44 36 28 18 26 15 12 12 15 16
59 38 37 37 50 57 83 93 97 96 97 86 91 84 95 98 98 100 89 98 93 97 96 95 90 80 84 79 67 64 56 61 64 64 77 63 58 32 38 33 32 26 17 14 14
54 55 48 38 37 46 70 82 91 89 96 97 98 98 98 98 97 100 95 98 98 97 99 95 84 99 99 96 82 79 72 70 72 76 84 57 51 46 41 34 34 31 31 31 31
40 52 49 48 50 52 60 81 94 92 92 96 98 98 84 99 98 96 92 99 92 99 99 99 100 88 97 99 99 96 76 86 91 92 86 54 55 37 38 36 35 34 37 35 30
32 48 49 54 47 50 65 68 89 94 92 94 100 98 98 85 84 88 98 99 94 85 93 98 98 98 99 98 89 89 66 69 72 91 74 61 59 45 40 38 41 40 43 31 30
28 46 45 43 40 48 62 77 89 99 98 93 95 90 94 94 96 98 98 98 99 98 96 96 95 99 99 99 94 92 82 81 69 42 57 54 47 47 41 39 42 47 35 35 32
21 46 44 40 46 44 46 64 96 89 93 90 84 89 80 92 97 98 95 98 98 98 95 92 93 97 97 99 96 88 85 94 79 88 63 45 38 35 39 38 36 40 35 34 33
19 37 46 50 56 53 52 57 74 72 67 87 84 78 81 84 79 79 82 90 89 84 91 98 84 98 99 98 97 89 90 87 84 70 87 58 37 33 28 28 35 37 38 39 40
53 31 42 54 74 97 64 62 56 62 62 65 68 78 77 81 79 76 77 84 76 77 78 80 88 96 99 98 97 98 92 86 87 77 55 59 50 40 38 37 41 45 47 47 51
60 15 38 53 99 97 65 67 68 68 61 65 69 61 60 80 77 80 79 64 74 78 81 65 73 97 98 92 97 96 91 89 96 72 65 65 48 48 58 56 54 51 49 51 61
59 19 35 48 78 99 94 84 80 69 62 62 61 60 62 75 70 84 88 67 59 68 70 71 81 83 75 73 68 83 81 80 80 69 65 54 49 49 53 52 56 47 48 66 63
53 27 27 65 64 71 91 95 97 96 71 66 75 81 82 78 76 82 86 66 68 68 64 69 71 63 70 61 58 57 70 80 84 70 67 61 57 49 46 58 68 57 56 70 67
48 26 22 38 46 64 77 100 93 99 83 99 76 93 85 80 75 72 71 67 64 71 65 72 72 70 67 60 58 55 56 68 86 77 73 66 55 56 57 57 56 50 52 71 67
53 28 31 23 45 71 96 98 100 87 86 74 85 92 87 90 80 82 82 84 85 69 64 67 62 67 86 82 75 70 32 35 42 48 46 61 47 45 51 54 50 45 70 71 69

GFSSW_700_rhum_045.txt.gz
RH
10 59 92 87 92 96 96 81 83 77 73 67 64 88 76 85 84 54 16 26 99 68 75 27 23 30 41 67 91 85 99 99 94 85 39 61 62 46 43 36 38 38 38 46 48
19 48 52 71 79 80 92 96 85 80 64 59 62 74 84 96 85 71 27 20 99 90 50 46 23 25 37 54 94 96 99 75 59 67 66 76 74 52 44 36 40 39 38 53 57
11 14 37 56 66 70 93 92 86 77 64 66 70 72 85 94 89 52 69 23 46 70 89 69 31 28 35 38 72 87 79 60 70 67 93 95 80 59 50 45 39 38 37 37 59
12 14 50 63 66 76 84 87 84 70 74 70 77 80 80 89 96 80 72 36 24 45 83 71 38 38 35 30 47 66 73 75 69 69 99 99 80 75 52 46 39 38 38 35 43
11 13 30 48 64 74 79 69 72 78 79 91 93 79 99 90 96 93 63 40 95 71 78 74 42 44 33 31 34 43 74 71 72 69 69 83 97 74 63 49 42 42 38 34 30
17 16 24 44 61 78 69 68 72 77 77 63 67 96 89 97 97 79 57 67 99 80 90 83 48 43 55 50 34 36 70 73 76 92 81 89 83 65 56 49 46 45 44 39 35
26 29 23 48 56 57 67 64 78 75 65 48 46 55 52 93 80 95 100 55 84 95 98 90 48 49 66 80 54 76 64 78 76 62 80 66 73 74 54 50 44 44 44 42 38
39 41 44 31 44 34 40 68 70 59 58 55 53 47 43 39 41 77 98 89 88 85 99 96 53 72 81 95 88 82 68 82 66 69 75 67 60 64 62 58 48 36 36 37 37
38 56 53 45 41 46 56 60 50 49 57 56 46 43 42 42 34 51 92 99 98 99 99 99 87 92 91 92 91 88 82 78 75 73 70 52 42 43 41 48 38 36 35 30 28
31 44 66 71 77 59 54 55 56 59 62 66 59 56 54 48 34 26 73 98 98 98 98 99 97 91 81 84 88 80 69 67 66 65 68 59 45 49 46 43 39 43 38 34 32
30 39 54 65 78 93 42 51 66 77 74 75 64 51 62 59 39 21 40 98 95 98 93 87 79 82 81 88 78 69 71 68 64 70 69 50 52 48 47 54 51 41 40 37 36
59 38 46 55 52 80 92 84 82 74 74 52 56 58 76 62 78 51 96 91 99 99 99 99 96 91 68 71 71 70 64 62 63 65 66 62 56 47 49 45 42 36 35 36 32
62 67 50 43 46 62 86 93 91 93 97 100 67 65 75 82 79 87 98 99 82 96 95 92 90 75 76 79 64 73 69 60 61 70 73 68 63 49 41 43 44 33 27 29 29
51 59 60 44 42 52 75 85 92 81 93 100 86 97 100 82 71 99 99 96 98 98 99 94 83 73 76 78 73 70 61 55 57 60 67 60 62 34 30 33 32 28 25 21 19
33 50 53 42 43 52 62 80 81 78 93 71 85 88 78 89 99 98 97 99 97 99 98 97 100 82 89 73 76 72 59 58 57 60 61 66 57 34 23 28 21 19 17 16 14
22 43 55 49 51 52 50 65 69 81 97 99 98 96 97 98 99 93 83 93 97 98 97 97 94 100 90 77 85 71 65 62 63 62 78 60 65 40 23 14 23 22 24 24 20
18 37 53 48 48 44 58 61 65 88 93 99 99 98 94 99 97 88 99 100 99 97 98 99 98 95 96 95 92 85 69 90 88 92 89 55 57 53 40 34 31 35 34 28 24
36 35 54 45 47 45 54 64 84 84 100 93 99 91 98 99 99 100 100 100 100 93 98 96 99 99 90 86 89 88 73 70 87 98 83 56 62 45 28 40 37 36 37 36 33
57 34 54 51 51 49 42 57 78 76 96 97 99 95 100 98 94 99 98 94 85 97 83 92 99 98 99 94 95 97 96 74 81 57 69 56 54 50 42 41 39 37 34 33 32
60 25 49 48 50 55 50 63 88 92 85 92 93 89 87 88 88 98 98 99 86 82 89 88 92 100 99 99 98 96 87 88 81 100 70 59 49 39 40 40 41 42 41 38 34
60 20 50 48 58 72 62 64 77 76 75 74 81 83 81 81 85 85 92 94 99 93 91 94 85 98 98 98 95 97 94 87 75 77 89 63 43 40 38 36 39 43 44 39 34
58 21 45 64 96 99 86 66 65 65 67 71 77 78 81 76 78 76 83 86 84 89 96 97 91 98 99 92 97 98 93 97 78 79 65 64 47 33 31 36 42 44 43 38 39
59 22 42 73 94 74 72 79 72 66 65 70 72 69 75 78 76 77 75 75 77 78 84 77 86 97 98 97 99 100 91 89 82 74 68 64 48 35 33 34 39 40 40 45 48
56 30 53 68 100 88 84 79 74 71 64 64 63 64 75 80 83 83 76 66 76 74 74 68 72 73 70 66 68 89 88 90 89 94 75 65 53 51 42 41 42 48 45 43 55
53 38 43 99 96 100 96 95 88 86 75 65 70 67 79 79 73 83 84 70 66 76 72 70 72 71 75 69 70 66 72 89 93 87 87 78 61 50 46 44 50 43 41 45 65
60 38 23 46 87 94 93 90 95 90 91 94 73 80 80 85 78 78 75 67 68 70 73 66 66 66 63 61 55 52 53 70 85 83 78 66 63 56 53 52 59 52 47 47 62
66 43 30 33 42 93 100 98 98 96 92 84 87 92 83 87 84 82 79 79 81 74 75 70 70 63 76 78 78 67 41 43 38 49 52 73 53 58 53 57 60 56 50 48 69

GFSSW_700_rhum_048.txt.gz
RH
22 30 27 12 22 41 63 77 97 94 85 81 73 65 67 76 90 92 32 18 26 51 70 34 26 34 40 70 100 97 86 93 82 79 69 64 60 44 44 40 39 37 37 47 44
25 26 38 17 22 48 56 72 95 95 89 77 64 59 59 76 82 72 54 34 25 47 45 64 28 30 38 45 89 97 88 74 58 64 71 75 64 55 45 41 39 39 38 43 52
28 30 41 24 28 45 62 80 80 82 79 64 60 67 60 74 99 52 66 55 27 75 91 72 45 31 42 44 84 80 87 84 69 68 84 87 68 67 51 49 38 37 38 46 60
32 34 47 23 30 62 74 80 76 70 69 68 69 67 73 83 88 86 79 93 33 98 99 80 51 38 46 42 54 84 98 88 67 95 95 84 86 64 57 54 45 38 38 38 49
34 42 50 48 40 58 59 58 70 72 77 82 85 83 79 74 63 100 96 83 34 97 95 89 46 41 38 38 51 68 80 86 84 91 97 99 98 97 66 56 52 46 39 36 38
31 46 57 60 36 46 60 55 69 78 72 65 75 95 93 86 82 86 80 80 41 75 70 84 53 48 48 43 49 61 85 90 96 98 99 94 86 92 68 59 54 45 40 37 36
27 44 60 74 56 37 36 68 66 65 57 44 44 66 84 98 95 97 88 65 45 35 46 53 73 46 43 47 45 70 83 85 84 76 97 83 95 78 83 59 55 50 46 41 37
31 37 49 72 75 46 50 57 57 52 50 50 48 55 60 86 96 99 89 75 58 78 75 62 75 60 62 62 62 82 65 88 67 61 69 77 60 62 93 80 57 50 46 45 45
57 38 47 60 68 49 52 51 47 43 39 42 42 46 53 43 57 90 92 97 99 95 97 98 66 76 86 75 76 86 70 84 76 65 57 60 66 64 78 84 62 53 51 42 41
60 64 45 50 83 68 50 58 64 63 52 50 48 45 44 45 32 67 88 90 98 99 99 98 76 85 89 87 82 63 49 59 66 60 71 60 57 56 58 62 56 56 57 43 32
48 64 68 49 61 84 69 64 65 56 49 50 51 52 36 31 29 35 93 92 99 99 98 99 74 80 75 88 78 64 70 70 78 71 64 58 68 58 54 45 42 40 41 36 33
32 48 62 48 56 86 75 72 80 84 71 44 41 38 43 41 68 31 71 88 99 98 98 100 97 92 84 94 88 77 64 69 63 66 70 69 60 50 54 49 48 44 38 39 40
21 35 54 40 53 70 82 73 75 82 80 58 65 52 50 54 88 73 60 93 98 89 96 99 98 91 84 93 66 74 74 69 65 65 73 73 67 53 36 45 50 46 43 39 35
40 30 49 51 50 67 76 62 51 64 80 92 88 92 91 96 88 92 91 98 98 99 98 99 97 88 91 90 80 87 73 67 61 64 73 76 71 50 42 36 42 46 46 42 35
60 23 46 52 54 54 69 64 61 71 91 95 99 96 57 86 96 98 98 99 95 98 99 99 88 86 83 68 82 70 70 61 59 66 69 68 66 50 39 32 26 32 40 41 34
61 20 44 46 52 52 67 71 72 70 94 98 94 96 98 95 99 98 98 86 96 98 93 92 92 85 77 79 80 72 66 62 70 71 75 61 59 50 37 24 22 19 24 27 27
51 29 43 42 44 55 60 70 68 90 91 92 99 98 99 91 78 87 100 99 98 97 94 100 100 88 80 82 82 80 68 80 83 87 82 57 60 50 34 26 21 18 21 24 29
50 45 47 43 48 52 61 67 67 94 99 89 92 94 98 99 99 98 83 100 91 83 92 91 99 98 100 92 86 74 68 70 88 97 81 60 63 30 22 28 34 38 34 35 36
46 47 47 47 45 48 66 68 69 82 89 92 97 99 98 98 94 99 98 90 90 85 70 84 86 92 91 95 87 84 79 81 85 71 78 56 43 32 28 18 21 37 37 38 36
46 49 45 53 52 48 70 67 73 81 85 87 91 93 96 98 99 97 94 95 94 88 83 87 85 83 84 91 100 91 84 90 87 96 72 57 58 39 24 20 24 31 36 34 33
45 38 53 64 63 60 73 75 73 78 75 79 81 82 82 84 92 92 99 99 89 97 98 97 87 99 99 99 97 99 100 97 86 79 90 80 52 44 39 35 31 35 39 40 39
51 43 56 66 97 94 79 84 72 70 68 74 78 76 74 79 79 77 87 88 89 88 92 89 81 100 100 100 100 100 98 94 90 91 74 68 54 37 36 41 38 41 43 45 47
56 40 45 72 94 89 84 80 70 66 65 67 72 75 76 80 77 76 79 80 89 100 96 87 86 98 100 98 99 97 97 97 92 82 73 72 55 39 32 32 42 46 49 52 48
55 42 50 88 98 96 95 80 77 77 67 63 63 62 68 78 77 77 76 82 80 86 87 80 71 73 72 66 74 94 82 95 96 99 84 74 64 57 47 35 35 46 52 48 45
54 44 53 100 98 97 94 94 93 88 73 65 66 65 76 76 81 79 76 73 82 85 85 80 73 67 70 63 72 74 76 85 98 89 88 74 72 62 60 50 40 37 40 44 48
53 47 28 44 100 95 91 97 100 93 98 93 78 76 84 82 78 76 71 72 68 77 81 79 68 66 74 76 74 64 56 61 87 92 84 84 81 66 68 55 53 52 48 46 50
48 59 36 40 59 94 90 97 91 94 98 98 88 86 87 88 87 82 80 73 67 69 72 75 71 65 67 72 75 68 42 44 39 52 61 94 53 69 61 55 52 52 50 47 51

GFSSW_700_rhum_051.txt.gz
RH
26 24 24 35 42 30 21 70 58 71 98 98 95 87 76 66 72 84 82 34 25 33 62 47 29 40 52 78 98 100 100 90 70 63 52 47 52 65 46 42 40 38 39 47 38
26 28 28 43 49 28 44 68 71 93 91 95 95 81 69 64 72 78 57 81 34 36 49 68 29 32 41 53 79 89 100 91 70 57 49 54 60 65 47 41 41 45 37 43 44
29 28 34 55 50 36 64 68 72 83 84 84 77 66 58 68 67 58 79 87 49 51 67 75 70 35 38 57 74 99 93 94 83 76 65 64 70 72 54 42 45 51 49 38 42
20 28 37 61 57 46 52 46 47 56 66 70 68 63 64 61 68 69 77 93 72 58 73 74 92 46 42 74 62 77 81 80 88 88 74 76 80 88 77 53 49 52 66 55 50
29 30 41 63 53 42 37 42 56 60 66 77 82 79 67 59 67 85 84 89 79 30 72 72 74 47 42 97 72 66 79 88 99 85 70 81 93 99 72 56 50 50 57 58 46
52 46 40 60 50 41 37 53 66 68 65 62 74 96 90 80 65 81 98 87 68 29 88 96 77 52 53 91 94 85 100 88 88 84 92 91 94 100 66 67 53 50 50 47 40
52 63 47 50 59 47 44 54 53 60 53 42 46 61 68 90 78 67 93 92 73 44 72 86 88 55 60 86 64 93 96 90 96 96 88 86 100 96 73 80 61 56 64 62 39
48 66 70 52 70 57 51 49 44 42 44 42 44 54 86 92 100 88 77 94 83 99 99 98 95 57 63 79 62 78 94 93 94 94 83 98 95 65 94 90 64 64 72 64 47
35 55 66 64 77 62 52 55 52 47 40 38 40 45 74 86 92 96 83 98 81 92 99 97 92 65 64 74 54 92 66 88 81 66 61 72 74 68 73 87 67 66 64 55 50
29 37 57 67 63 69 58 57 60 57 44 36 39 42 57 66 69 96 100 91 82 80 98 98 96 81 80 76 76 62 63 48 73 66 82 71 76 65 62 77 80 65 58 55 50
66 24 45 60 55 88 64 58 55 43 38 31 34 34 36 37 39 86 98 92 77 68 93 99 98 81 62 67 63 63 57 63 82 73 67 81 82 72 62 66 59 57 61 59 58
63 28 41 61 53 79 78 65 68 62 46 31 36 43 43 44 46 36 85 98 89 99 98 99 95 80 84 85 76 63 64 70 80 80 75 80 80 73 62 60 62 54 52 50 45
60 44 31 59 58 69 82 74 76 62 58 58 51 46 46 55 58 38 78 93 97 97 99 93 94 89 88 100 88 71 60 58 65 74 77 81 81 72 47 57 57 52 46 42 40
56 53 26 53 62 62 78 77 71 78 82 98 88 97 90 77 87 51 72 88 97 99 99 99 94 90 88 96 88 84 79 67 68 69 79 80 79 51 42 41 47 50 47 43 41
44 59 24 50 58 62 69 75 81 89 93 100 88 84 84 96 94 98 50 72 97 98 97 98 91 78 86 89 81 80 78 77 76 63 68 75 76 54 45 37 26 36 42 43 46
41 57 26 49 51 56 70 79 79 88 96 99 92 97 97 97 76 86 82 99 95 98 99 94 99 89 92 82 73 77 78 71 63 67 82 69 70 54 41 25 26 29 29 34 40
46 54 31 49 48 51 63 74 74 86 86 94 97 94 96 100 100 96 96 96 98 98 99 97 100 94 92 89 81 80 79 93 91 93 91 64 65 51 36 33 29 28 23 22 28
44 51 35 50 45 51 51 69 76 88 99 98 99 99 88 94 98 98 98 97 96 92 99 97 100 91 89 86 81 81 78 72 86 95 81 63 66 48 32 28 26 29 22 19 21
44 53 36 47 46 49 55 70 80 90 98 89 98 100 100 98 95 98 100 94 90 75 76 87 98 97 100 84 79 85 86 74 73 75 81 62 56 44 36 31 27 20 28 24 17
47 56 45 48 47 52 66 74 82 90 98 100 92 88 91 100 99 91 96 92 91 77 69 76 91 99 98 92 90 80 77 88 79 92 81 60 57 43 32 26 28 22 18 30 32
52 49 57 51 61 71 76 82 88 90 90 91 90 88 88 86 96 99 90 90 84 88 78 70 71 99 100 100 99 92 97 90 81 76 82 88 53 40 38 42 30 29 24 33 35
54 52 69 64 90 94 91 82 87 89 86 83 89 88 87 87 88 91 94 94 87 87 86 85 84 99 100 98 99 97 93 93 91 94 84 78 62 45 40 35 39 39 41 42 43
54 48 60 63 95 96 95 82 72 73 79 83 85 84 82 83 81 83 86 84 89 96 97 95 98 99 100 94 96 99 96 87 90 94 83 81 64 46 41 42 36 41 44 45 45
51 48 50 81 95 96 90 83 74 76 70 70 75 73 79 82 78 82 87 89 96 92 92 98 86 82 75 73 81 96 96 98 99 99 88 82 70 60 45 55 50 34 43 49 48
45 46 53 95 94 90 89 90 88 88 80 66 70 73 87 82 79 76 83 87 90 94 96 95 83 74 73 71 66 70 74 87 100 88 99 81 78 64 59 58 53 43 42 50 53
46 51 40 50 72 84 82 96 86 95 88 94 86 79 87 82 77 75 72 76 78 87 90 88 81 68 65 74 74 72 69 72 72 81 92 90 79 70 66 60 65 64 57 44 44
46 49 54 44 76 92 93 96 91 99 81 86 93 94 92 91 87 81 81 77 69 69 78 85 77 72 63 65 73 68 39 48 52 49 42 90 26 63 65 67 62 67 61 55 47

GFSSW_700_rhum_054.txt.gz
RH
24 23 21 30 34 26 26 32 55 64 67 86 94 95 96 91 90 91 98 80 47 31 56 67 31 43 60 98 100 94 99 95 73 67 41 45 44 50 54 44 42 47 43 36 38
22 17 32 33 39 26 28 37 40 52 79 86 86 91 87 87 84 68 95 90 85 46 73 77 45 35 45 86 100 100 100 89 65 54 41 55 56 53 58 46 46 48 47 49 52
25 40 46 34 45 32 31 35 42 45 56 79 78 78 82 79 78 70 79 100 97 44 78 87 82 36 42 55 96 98 92 84 75 65 66 70 63 60 61 48 48 56 48 55 61
37 49 54 37 53 39 34 32 34 49 62 69 68 62 60 64 72 76 70 94 96 68 81 98 94 46 37 52 76 87 93 91 86 82 70 71 64 63 70 65 55 53 52 55 61
33 51 61 46 61 46 37 38 48 50 63 72 77 75 66 64 70 76 75 76 96 72 99 99 95 52 29 42 68 75 88 91 88 85 78 86 81 72 74 70 66 69 57 59 63
30 48 62 60 65 50 43 41 46 50 50 48 57 85 78 82 68 79 97 69 97 78 78 99 96 62 42 39 72 87 95 87 91 83 81 99 90 80 69 79 67 65 63 64 64
39 37 55 67 59 58 50 44 42 42 46 47 43 48 54 67 76 76 76 94 86 70 69 97 100 82 47 42 64 88 96 92 94 88 90 97 96 71 64 82 70 64 59 60 58
68 32 41 67 52 68 54 46 47 42 39 41 42 47 55 93 90 77 61 95 74 75 75 81 92 93 68 55 75 89 96 93 96 95 90 89 71 71 72 97 65 78 60 60 52
64 66 26 61 54 75 54 49 47 52 45 39 44 55 73 81 97 80 58 97 74 66 79 97 100 95 81 77 85 99 85 91 79 79 82 79 65 62 84 79 64 72 74 70 64
59 67 28 56 56 73 54 49 38 39 40 42 51 65 61 61 86 99 68 93 94 56 100 99 98 93 98 83 79 88 91 87 72 76 100 84 69 72 70 70 92 71 84 86 65
50 63 36 50 61 64 61 46 39 28 37 38 44 46 55 52 62 97 92 98 94 78 98 98 97 80 74 76 64 57 73 78 83 80 80 85 79 81 78 74 77 94 81 70 57
43 63 42 42 63 68 78 44 37 34 50 53 54 53 48 46 45 86 93 97 91 91 98 96 91 72 79 85 70 56 49 57 60 85 76 81 78 85 74 68 54 70 64 63 56
38 55 53 38 59 65 81 57 50 53 75 87 83 64 74 83 79 66 96 97 98 100 98 100 83 81 76 88 90 88 51 57 58 81 87 87 84 76 66 71 62 52 53 61 54
35 45 60 36 60 58 75 83 64 78 82 94 98 96 97 90 89 84 79 95 96 82 100 95 96 88 78 93 86 86 77 63 66 67 86 88 87 56 43 59 68 45 34 47 47
39 44 57 36 59 62 64 85 86 91 92 90 92 94 85 96 73 88 72 72 86 76 98 98 88 93 77 88 84 85 78 77 73 76 80 81 84 59 48 49 24 41 53 55 48
37 45 56 39 56 58 63 83 81 81 92 98 98 98 98 98 98 96 93 73 94 92 98 100 98 92 84 84 96 83 84 82 76 74 81 68 75 52 48 33 28 27 28 35 42
36 41 53 40 58 60 58 75 79 84 90 92 93 97 98 100 100 99 94 95 98 98 99 98 99 94 87 96 90 83 80 91 88 92 92 69 70 55 47 49 38 34 34 30 30
36 40 50 42 51 54 62 77 84 97 99 94 97 95 96 96 98 96 98 99 100 92 98 99 99 92 99 92 87 88 81 74 86 97 82 66 72 51 37 28 30 32 31 30 26
37 47 51 46 52 62 75 79 91 100 96 95 95 92 86 94 98 99 98 97 99 97 89 94 98 96 95 95 85 89 92 76 66 78 80 62 55 40 31 30 30 27 26 24 24
42 52 52 50 58 82 78 86 94 100 98 93 96 99 98 84 95 99 89 91 97 91 83 79 94 97 98 92 90 75 79 84 77 89 88 66 58 43 34 33 36 36 28 25 24
47 51 56 59 70 94 95 89 100 100 93 93 96 97 99 98 91 87 85 91 96 89 79 73 81 97 98 100 95 94 90 84 78 75 86 83 56 40 42 38 35 34 32 26 24
45 52 62 73 94 100 100 100 100 97 87 78 91 94 93 92 97 98 86 92 88 84 82 70 73 100 100 98 99 95 90 79 79 89 85 82 62 45 41 42 42 31 36 35 41
39 50 59 65 98 99 99 98 90 81 76 83 85 85 88 87 90 94 96 97 80 79 85 77 87 99 99 99 98 100 99 100 94 88 86 86 70 53 46 46 42 46 41 41 46
35 47 58 61 99 99 98 91 84 86 76 74 78 77 82 84 85 87 90 98 99 100 97 86 85 80 73 72 72 88 89 100 100 99 89 90 77 60 56 52 58 57 49 42 48
33 40 52 74 97 99 94 91 90 96 89 74 74 70 79 86 84 73 81 87 97 98 92 92 92 82 85 85 78 71 76 83 100 73 99 66 82 68 68 71 70 71 54 45 43
31 36 44 53 78 94 96 94 94 97 86 89 86 79 86 81 79 83 81 78 81 85 89 96 94 83 78 69 71 72 67 70 76 79 96 99 90 71 70 73 75 68 61 58 52
33 37 44 46 49 84 92 94 100 100 97 86 92 92 91 88 84 83 84 84 80 78 84 90 92 86 72 67 74 78 39 53 57 58 60 85 26 44 38 45 62 70 66 65 64

GFSSW_700_rhum_057.txt.gz
RH
29 25 29 43 36 34 20 20 24 32 37 44 79 88 95 96 95 95 76 99 93 75 43 51 51 46 75 100 98 98 98 93 72 52 43 42 45 41 54 48 42 42 41 37 34
38 35 36 51 40 36 23 24 26 29 31 44 70 82 94 95 96 83 76 96 99 86 60 56 53 42 70 98 100 100 98 94 73 62 54 55 55 52 52 49 43 50 43 43 52
33 32 39 54 41 42 27 29 27 31 41 46 55 65 74 91 87 79 73 71 98 97 63 69 89 47 50 94 98 95 73 70 72 65 76 63 50 57 62 52 51 58 54 53 53
38 27 37 54 45 55 38 34 29 42 49 55 57 65 60 66 74 69 72 65 98 97 83 96 96 66 47 64 96 93 99 88 75 73 88 67 57 54 67 62 56 64 54 53 60
63 53 30 46 51 59 48 39 31 42 50 56 60 63 69 63 55 66 74 67 95 98 96 99 98 84 43 51 58 87 99 93 100 92 93 88 77 67 57 66 73 66 57 52 57
55 61 48 35 56 61 54 45 35 38 45 40 37 44 41 50 66 57 61 70 70 98 97 95 97 87 56 61 51 72 99 99 96 83 81 83 78 71 50 62 71 75 77 58 57
53 56 65 28 59 59 62 50 41 40 37 40 40 40 38 47 53 65 49 65 60 99 91 100 99 92 71 57 82 72 84 87 82 86 82 72 69 65 58 58 68 72 79 69 64
54 52 58 34 56 55 66 52 42 45 41 37 36 38 44 81 94 58 53 77 90 98 94 100 100 90 72 72 78 87 80 80 74 83 92 86 49 58 70 66 67 73 76 82 70
45 45 57 45 53 54 67 48 39 35 36 36 35 38 58 73 97 78 57 70 82 93 97 100 87 93 80 75 70 90 78 83 79 83 89 78 87 64 64 83 78 73 79 78 64
29 42 58 53 47 58 70 43 36 26 30 31 38 43 46 84 96 78 57 87 85 94 85 97 98 95 91 70 78 78 84 85 81 76 95 98 94 78 65 69 69 76 74 65 60
30 36 51 58 41 61 73 46 53 31 29 28 33 40 48 86 98 99 68 98 92 99 79 99 96 95 88 76 69 51 80 97 96 79 91 99 100 90 73 72 62 69 72 72 60
31 36 44 58 38 64 70 52 45 39 68 65 45 44 51 70 94 100 83 92 96 98 77 99 96 99 98 89 63 75 88 90 92 85 82 85 77 70 73 55 64 51 64 71 72
29 39 39 53 35 62 70 74 59 84 84 97 90 68 87 90 80 99 96 98 98 81 79 98 98 96 95 98 74 70 67 77 77 86 90 79 76 56 59 53 54 51 63 69 70
28 37 40 52 37 55 66 79 81 73 82 96 98 98 96 82 95 100 96 97 99 69 98 98 99 92 83 90 84 84 62 48 54 53 78 76 83 34 39 48 46 39 48 60 51
29 35 42 51 41 56 66 82 89 92 92 95 98 82 82 94 97 97 100 96 79 78 97 99 84 91 78 73 90 82 86 69 62 68 76 89 88 43 38 46 26 41 52 51 54
26 34 40 50 45 54 62 77 83 90 96 98 99 95 97 98 86 93 87 82 78 68 88 100 86 96 69 78 80 83 87 80 79 84 82 78 82 67 42 32 36 35 29 30 45
26 34 41 49 50 51 53 76 84 90 97 88 96 97 97 100 89 98 74 72 80 59 78 94 100 94 90 88 93 86 88 94 86 85 83 68 73 60 44 49 45 40 41 38 33
26 36 43 50 49 44 56 83 90 95 98 85 88 92 95 97 100 90 87 77 88 66 80 98 99 93 93 85 87 85 75 71 86 91 81 70 76 50 35 30 34 35 38 40 35
25 41 46 51 52 58 76 90 96 97 98 90 95 86 97 99 97 98 99 99 92 95 98 96 99 99 95 88 83 94 80 72 66 79 77 63 62 42 32 33 36 34 30 30 30
26 44 50 54 65 78 80 93 99 100 94 95 97 100 100 94 100 98 98 99 100 97 97 94 98 95 98 93 96 88 80 83 79 87 83 67 57 35 34 40 41 39 34 28 26
27 42 52 59 78 99 97 98 100 95 96 93 92 97 96 97 92 95 98 100 98 98 83 78 84 100 99 96 93 89 91 81 78 73 78 75 50 39 35 38 37 42 34 32 25
27 38 48 62 92 99 100 99 98 96 89 95 97 97 97 93 95 100 95 94 92 86 81 70 78 100 98 95 100 98 86 83 78 85 84 82 62 45 44 41 43 48 46 41 32
26 32 44 58 95 98 98 98 94 94 86 87 96 97 94 85 86 97 92 90 88 89 82 75 85 96 95 88 89 91 89 89 86 83 82 80 64 50 50 46 47 52 49 53 44
28 32 45 56 90 98 96 95 97 89 77 79 80 83 88 88 79 81 86 100 100 96 83 80 80 76 73 72 77 90 94 94 97 95 85 83 71 52 46 50 56 62 63 65 50
29 29 38 55 79 98 96 97 96 96 80 70 69 69 77 85 84 75 84 100 100 100 99 92 88 85 84 83 82 78 78 89 99 98 100 70 82 46 50 54 55 62 61 68 64
27 30 36 45 64 89 99 100 97 97 91 85 73 69 74 80 80 86 81 82 88 94 97 93 87 84 80 74 70 66 65 69 71 74 100 86 66 39 34 46 42 58 81 76 60
31 35 37 40 45 54 93 100 98 92 92 94 79 87 82 77 81 82 81 82 81 82 85 89 87 86 77 66 61 48 37 37 43 47 54 77 33 45 44 46 36 43 61 70 67

GFSSW_700_rhum_060.txt.gz
RH
62 47 37 31 36 40 33 26 21 16 17 18 24 38 78 82 80 96 96 90 85 98 82 43 64 58 72 99 87 98 99 94 85 64 62 38 36 50 52 48 41 37 34 33 38
63 44 29 31 34 41 35 28 22 18 15 23 34 47 69 84 96 95 90 90 80 99 91 41 51 54 64 99 98 98 97 90 84 77 61 48 48 45 50 51 43 43 39 36 34
61 62 51 27 32 42 41 30 24 18 20 29 43 48 54 69 92 93 94 80 76 99 98 75 67 61 65 86 100 100 78 93 88 88 69 61 54 56 55 54 48 46 44 39 38
46 54 58 57 29 45 44 33 26 19 25 37 47 53 55 53 76 71 67 76 68 99 99 65 72 82 90 82 86 100 92 96 96 93 82 71 48 60 61 65 57 54 57 50 47
46 45 52 61 39 41 49 41 31 25 29 36 37 45 51 54 54 53 63 60 64 99 94 86 86 90 88 69 93 100 100 90 100 95 83 86 65 61 62 67 68 64 69 59 57
38 48 51 55 54 40 50 53 34 27 26 31 35 33 38 38 45 57 47 55 67 95 100 92 99 97 97 89 91 68 100 92 79 91 87 81 78 76 51 63 70 71 70 60 65
33 39 47 51 60 38 48 58 39 24 30 29 32 34 34 43 54 41 49 53 70 94 98 98 97 99 100 95 99 94 98 99 80 94 84 83 98 78 58 55 62 65 75 70 66
36 30 42 50 60 36 52 60 38 25 26 29 31 34 41 65 78 73 48 48 62 86 99 96 98 99 100 92 77 88 96 95 85 88 80 96 80 58 68 71 58 59 66 76 77
32 37 38 44 58 39 54 61 40 25 22 27 30 37 53 63 98 76 57 49 65 80 98 98 99 97 77 84 91 97 66 77 90 75 75 73 74 88 59 65 63 54 61 70 82
32 36 38 39 55 40 55 65 43 32 22 24 33 40 48 82 98 83 68 74 94 81 100 97 98 96 85 85 71 73 66 66 76 77 92 97 98 76 59 59 65 64 60 65 78
30 32 38 40 51 39 56 72 49 46 50 50 54 49 45 91 99 99 74 81 91 98 100 94 98 98 91 79 62 64 70 74 76 94 78 98 98 75 66 52 51 62 65 66 70
29 30 38 41 50 42 58 74 53 69 76 88 71 50 59 89 97 67 73 98 98 97 96 96 99 87 98 95 77 76 70 72 92 73 80 96 94 66 73 66 54 48 51 55 63
28 30 36 44 51 46 56 64 71 60 79 98 92 80 82 91 97 83 91 91 98 92 89 88 83 98 99 84 81 79 70 85 73 84 87 94 87 78 64 66 51 37 41 50 59
25 27 37 45 44 50 55 66 80 75 82 97 92 94 90 87 97 96 93 85 98 98 81 88 91 96 100 87 81 90 87 74 72 79 63 75 38 52 64 50 37 38 47 48 55
23 24 37 43 47 51 53 62 78 82 85 92 98 83 84 89 88 100 98 100 91 88 82 80 98 99 100 90 77 82 66 80 72 63 66 71 60 40 46 40 32 30 35 46 76
22 24 38 44 48 44 50 64 76 82 92 98 94 90 85 94 94 97 94 95 92 84 98 99 98 99 99 86 80 71 66 65 69 70 66 54 60 42 48 40 37 26 31 35 60
22 26 41 46 50 40 48 72 80 94 96 83 97 98 96 96 90 94 95 78 79 84 97 98 98 91 89 83 91 79 73 74 72 79 57 67 71 41 52 35 38 32 29 27 26
22 31 40 49 45 40 51 83 93 87 93 80 92 97 95 84 98 83 90 97 66 69 76 98 99 97 80 90 84 79 63 58 60 55 46 66 58 44 31 31 35 35 34 36 35
24 33 41 46 49 50 79 93 83 90 93 89 89 96 98 98 92 98 98 93 80 51 70 98 99 99 90 91 80 84 85 67 68 68 60 48 61 39 34 34 38 38 34 30 29
24 31 45 47 54 78 89 92 93 88 96 97 98 98 97 98 98 99 99 98 96 92 88 92 98 99 94 94 91 75 80 71 73 75 56 47 49 31 36 46 44 41 35 33 30
22 33 49 55 66 99 98 96 90 93 98 94 97 100 100 99 97 100 100 99 94 96 87 89 94 100 96 96 93 87 90 80 72 72 56 43 32 34 40 42 40 40 39 36 32
19 30 47 50 96 98 90 92 93 86 82 88 95 95 92 89 98 89 98 100 100 97 97 92 97 99 99 87 86 89 89 82 67 76 76 67 49 41 39 41 42 46 46 45 45
18 26 38 50 92 96 93 92 95 88 86 87 90 84 88 89 95 91 93 97 93 97 97 80 94 97 98 98 98 96 87 83 81 76 85 65 47 44 40 42 48 48 44 44 48
20 27 37 51 90 99 85 88 98 89 81 86 86 86 90 88 83 84 89 96 98 97 86 80 74 75 64 68 78 88 94 84 84 90 77 73 66 59 52 52 49 49 53 59 57
20 25 33 53 74 93 92 90 95 92 77 73 75 82 84 83 82 91 81 89 99 95 86 85 82 76 69 70 72 73 76 91 90 70 88 76 75 69 75 80 60 48 43 50 65
22 28 33 44 61 87 90 92 90 94 78 81 70 79 80 78 77 78 90 95 92 89 89 92 85 87 84 78 74 71 70 74 74 83 94 91 87 55 48 46 39 39 40 42 66
24 30 37 40 54 76 82 86 93 93 94 84 81 78 85 79 76 77 80 83 86 89 91 92 91 83 87 72 62 57 47 52 51 48 66 90 47 79 46 41 37 30 30 32 48

GFSSW_700_rhum_063.txt.gz
RH
36 52 60 47 29 28 30 35 33 26 23 10 11 11 20 34 61 72 62 95 98 84 83 68 56 78 57 94 87 90 94 86 72 55 65 70 45 38 36 38 26 34 40 31 30
34 37 50 57 54 32 28 38 37 30 18 14 18 17 25 41 63 83 76 69 97 83 100 88 34 81 71 85 96 96 99 97 69 60 70 60 67 44 44 41 40 37 41 35 38
30 41 47 44 48 53 30 41 43 34 17 17 26 31 37 50 60 78 92 88 96 85 98 94 85 81 98 93 99 88 93 85 81 78 92 62 74 45 54 66 70 41 38 35 34
34 32 44 45 45 54 34 45 50 41 20 19 29 37 42 56 98 77 86 99 96 86 98 100 99 83 100 99 90 95 91 95 86 97 87 70 66 61 67 88 47 45 42 38 36
34 31 31 46 44 54 36 50 56 47 26 20 27 30 32 36 75 48 63 73 94 82 95 99 93 77 96 88 98 98 100 90 94 90 90 82 68 77 59 61 64 53 51 45 42
33 33 32 38 42 57 36 52 58 52 30 23 24 28 29 35 38 39 50 58 62 80 96 99 96 96 92 76 92 87 92 92 99 86 82 95 68 67 61 59 67 62 68 61 53
30 32 37 34 43 59 34 54 61 48 27 21 23 27 26 32 36 50 47 46 57 65 89 98 97 98 86 71 76 97 87 99 100 70 88 98 88 85 52 75 68 70 71 72 71
25 30 35 37 40 54 37 56 64 45 28 19 24 28 29 36 48 55 70 40 46 70 71 98 90 99 88 76 80 88 98 100 99 100 97 82 77 80 78 78 82 68 68 73 67
23 28 32 38 39 50 40 58 67 51 22 20 25 28 68 44 63 85 68 85 54 66 94 98 97 98 91 85 87 89 79 98 96 82 99 92 79 86 98 84 68 80 73 74 71
19 28 30 38 41 47 44 61 69 53 37 48 39 40 82 56 86 76 58 74 70 77 97 97 98 99 95 87 78 67 60 62 88 96 95 100 82 90 82 90 61 64 62 75 72
18 26 30 38 42 46 48 64 72 58 68 79 89 42 49 92 86 74 64 70 80 95 96 98 96 98 85 73 50 49 51 40 59 96 88 74 91 91 78 69 51 65 55 62 69
17 23 30 36 45 43 51 66 76 63 78 87 80 64 77 96 91 74 59 86 95 97 98 99 97 98 78 67 58 48 51 52 54 89 88 88 89 82 79 80 62 56 51 62 65
16 24 30 36 42 41 54 68 75 70 75 90 87 83 84 96 91 75 85 94 95 98 93 92 93 97 89 86 65 52 53 65 72 82 93 74 65 70 79 85 75 49 61 70 64
16 24 29 36 39 44 53 60 81 83 83 96 96 88 82 95 97 97 96 96 98 98 99 97 97 96 86 73 63 60 57 55 61 81 64 71 43 52 57 67 63 57 49 48 60
16 22 31 38 42 48 48 62 77 78 91 90 100 82 85 96 96 90 85 92 99 88 73 92 90 96 97 74 64 65 62 70 81 71 49 69 55 34 40 50 62 65 42 43 44
17 23 36 39 44 47 49 70 78 90 89 89 82 82 92 84 89 100 83 72 90 68 63 89 89 99 96 84 79 70 83 84 78 58 61 51 46 31 37 44 39 46 51 28 25
17 28 37 40 43 46 58 76 93 93 81 97 96 91 84 98 97 94 95 87 83 79 91 78 92 97 98 78 66 70 70 63 63 71 57 55 43 36 45 42 48 49 51 33 49
14 30 34 40 44 47 72 83 95 94 96 84 96 98 96 95 92 81 100 88 91 94 97 98 98 98 98 84 85 67 51 50 54 51 42 62 49 37 42 44 45 35 36 34 31
13 30 34 40 45 57 86 96 85 100 92 100 99 98 96 93 96 81 85 98 94 80 97 97 99 87 93 94 82 83 82 70 60 50 43 45 42 43 33 32 31 36 33 30 26
16 30 35 46 50 76 92 95 90 98 94 96 96 94 98 98 98 94 96 87 84 61 70 95 98 93 80 90 86 86 78 62 73 65 42 38 35 28 39 46 48 44 38 35 34
16 28 37 47 57 84 95 93 87 94 92 100 99 94 98 98 99 97 94 95 89 76 64 98 93 99 96 97 89 84 89 76 66 63 53 34 28 38 41 49 52 41 40 37 35
15 26 34 46 77 86 90 88 88 98 85 96 97 99 100 100 99 100 98 100 91 92 99 88 99 100 98 96 95 89 75 68 59 69 58 58 44 35 41 43 41 43 38 42 42
14 23 34 42 95 90 82 90 86 88 76 87 95 83 84 99 96 100 99 99 100 100 96 92 97 96 98 98 88 96 88 83 72 81 77 57 41 42 43 42 42 41 62 56 46
15 25 35 40 66 90 84 82 89 78 75 80 88 84 89 94 93 100 90 97 93 96 93 87 95 88 72 70 76 90 83 84 79 88 68 60 53 53 54 53 55 62 71 60 46
18 30 31 37 61 84 86 89 97 89 73 73 72 82 88 87 94 99 95 93 98 93 92 92 88 72 73 64 68 77 82 80 89 84 80 64 61 61 65 72 78 70 50 38 32
17 27 33 33 48 76 94 96 100 82 88 72 76 74 82 89 86 98 100 98 99 99 90 85 84 79 74 72 72 72 71 87 84 83 83 79 76 73 77 81 80 61 50 48 34
21 31 35 34 52 84 96 98 90 83 81 69 65 88 77 76 73 73 80 87 94 99 99 92 85 85 88 77 70 61 61 76 84 86 87 78 72 74 78 69 63 76 83 68 46

GFSSW_700_rhum_066.txt.gz
RH
17 22 20 34 35 53 53 40 28 35 34 31 18 10 13 12 18 24 39 59 64 97 78 72 51 39 56 80 84 79 97 95 80 65 49 51 54 46 44 48 46 38 57 65 72
16 20 22 28 40 41 49 51 31 37 40 34 12 14 16 17 22 38 60 94 62 74 94 83 72 53 74 67 98 93 98 92 64 66 66 68 61 42 41 50 46 33 35 41 48
18 20 25 27 42 44 49 55 34 40 46 33 14 17 25 25 26 56 75 92 92 66 97 100 92 81 90 82 95 90 88 83 69 86 74 76 65 61 46 53 49 28 26 40 38
16 20 23 31 31 43 46 56 36 44 51 33 19 22 28 32 48 39 59 89 99 89 94 100 100 82 99 92 91 97 80 80 74 100 76 84 78 62 79 65 42 29 24 32 38
13 20 23 31 32 39 52 55 38 51 56 34 21 22 27 29 63 34 36 53 80 93 98 99 100 73 95 87 90 94 79 86 83 84 96 88 76 74 83 72 59 43 34 36 39
10 15 24 30 34 37 52 45 42 55 54 34 22 26 27 29 47 43 35 43 69 95 95 99 96 71 62 85 88 82 85 84 98 77 100 96 77 66 70 69 66 58 57 50 44
9 14 23 28 32 38 50 39 51 58 48 37 23 28 26 33 42 34 39 44 46 79 96 93 98 98 98 95 88 84 86 83 88 89 92 84 82 60 53 72 77 64 73 66 51
8 12 20 28 32 40 46 40 54 63 48 24 21 26 24 44 47 46 56 55 38 48 74 90 99 96 98 73 85 80 82 89 90 74 100 82 77 60 58 74 74 70 75 74 69
8 11 19 26 33 40 46 42 54 66 46 36 48 37 52 60 78 82 79 79 60 45 73 91 98 99 99 89 76 84 95 96 90 98 98 98 86 75 67 65 58 61 80 71 72
7 10 19 25 35 39 46 45 57 65 56 70 72 82 88 76 74 85 85 84 92 55 90 90 98 98 98 93 86 80 89 97 80 74 88 98 85 94 84 68 62 56 66 77 77
6 11 18 23 36 42 44 52 63 76 67 81 97 53 52 93 94 91 80 77 78 81 74 92 98 94 90 78 74 76 79 90 80 82 97 100 84 78 81 67 63 59 53 58 65
5 11 19 22 38 42 43 61 68 82 66 86 86 72 76 90 95 75 59 76 77 92 91 98 97 90 89 96 68 66 67 75 80 86 86 94 78 62 70 76 56 41 43 62 62
5 10 19 24 38 41 49 60 72 85 72 93 97 82 84 96 86 59 57 81 83 98 96 99 96 97 99 93 74 53 51 50 89 89 81 91 82 55 51 56 76 78 61 72 70
5 10 20 29 39 43 51 58 77 85 94 99 98 89 81 88 98 92 76 90 91 97 98 93 95 98 97 87 59 52 50 65 73 71 77 78 57 46 46 58 73 82 58 53 70
6 10 22 30 37 48 46 60 79 78 99 93 80 72 86 99 98 86 78 97 98 98 96 96 98 98 94 63 53 57 83 62 67 63 57 66 64 36 44 54 60 51 66 52 67
6 10 22 34 38 44 48 73 77 96 83 99 69 79 97 94 99 80 88 97 96 88 85 92 98 79 80 70 63 56 60 73 73 73 72 59 60 39 43 45 50 53 52 49 44
6 10 23 34 34 46 62 76 97 96 85 96 88 83 93 98 100 94 96 97 88 87 95 89 93 89 83 84 77 72 69 76 78 78 76 49 51 42 44 42 41 40 47 53 53
7 11 21 32 39 51 71 94 94 93 94 95 90 80 99 90 99 99 98 90 88 87 89 92 94 97 94 76 75 75 50 57 63 81 65 50 48 44 42 43 42 43 45 43 43
6 12 22 32 40 60 81 87 88 81 97 98 99 94 92 89 99 90 99 75 87 90 98 97 98 95 85 81 73 68 66 64 59 47 58 54 42 46 28 40 44 43 35 35 32
8 12 25 32 47 68 98 98 98 92 92 90 98 94 99 97 96 85 92 81 76 71 92 87 95 95 92 85 85 74 77 65 60 70 50 45 40 37 35 43 46 41 39 35 34
7 11 26 33 54 88 98 99 100 93 87 95 89 91 91 91 93 93 94 84 72 62 67 92 80 98 91 81 87 90 88 70 63 62 84 57 42 35 38 46 51 48 44 42 39
8 13 24 33 59 90 99 84 92 95 92 100 98 96 96 90 91 95 97 92 83 59 85 85 74 99 96 91 86 82 76 69 67 69 59 58 49 43 44 46 47 46 46 60 48
8 14 24 32 78 88 92 92 99 99 94 99 94 95 98 95 94 88 91 100 93 94 88 89 95 96 97 86 87 86 78 76 66 71 76 70 49 45 44 45 45 46 58 70 67
9 14 25 31 54 96 85 94 94 84 79 88 88 84 91 93 92 90 89 85 92 91 94 92 94 96 84 85 71 76 76 82 81 82 73 65 50 51 53 57 60 68 69 70 58
9 17 22 29 43 78 89 95 100 82 74 79 85 89 83 89 93 96 99 100 95 95 93 93 95 88 81 68 81 79 81 82 81 69 84 64 64 62 60 66 69 70 63 57 48
8 14 26 30 50 66 84 88 99 90 79 77 94 74 79 85 89 96 98 91 88 92 93 88 84 74 70 66 67 66 68 82 80 82 80 72 75 67 77 78 77 64 55 42 39
9 20 30 33 43 78 84 89 98 89 85 79 91 87 66 69 72 68 90 91 89 95 92 93 82 79 83 76 72 67 64 66 69 81 84 85 82 80 76 76 74 59 65 62 55

GFSSW_700_rhum_069.txt.gz
RH
5 6 6 15 19 20 33 38 46 47 31 34 40 34 15 9 12 13 14 19 31 38 30 44 52 91 73 50 94 94 96 91 82 70 56 52 55 47 41 39 50 54 54 53 61
6 6 6 10 20 24 29 38 46 48 35 41 45 30 11 10 15 16 17 35 49 63 51 85 85 81 84 53 100 99 98 73 68 71 60 60 54 53 44 37 40 50 66 66 69
6 7 7 9 18 24 28 38 46 48 37 47 47 26 12 13 19 27 41 50 63 86 81 62 100 98 72 76 86 97 71 58 71 75 66 80 58 53 46 48 46 37 49 60 50
8 6 7 10 18 23 30 35 52 44 40 48 46 26 15 17 26 28 31 34 46 86 79 66 99 99 80 97 67 98 77 73 70 77 96 82 68 54 50 45 44 45 42 44 31
16 6 8 10 18 24 30 33 51 38 44 52 44 28 18 19 22 23 28 36 41 65 92 74 97 98 96 99 81 89 91 81 76 87 81 90 76 62 62 53 42 36 34 31 39
36 6 8 10 16 25 31 34 47 38 51 52 45 28 17 23 28 26 28 36 44 51 98 98 91 98 97 97 97 66 98 88 88 95 91 86 81 72 70 73 68 54 38 32 36
42 6 7 10 17 25 32 37 43 44 59 51 38 19 20 28 31 42 36 40 40 48 87 97 97 97 99 100 89 98 85 77 80 85 95 98 91 84 82 92 81 70 57 45 44
53 6 7 10 17 25 34 37 41 52 63 49 40 45 40 36 46 41 52 64 67 53 81 98 96 90 97 86 99 95 90 100 100 98 82 100 86 86 97 92 80 74 78 65 60
72 6 7 11 18 26 35 40 42 57 61 56 69 68 76 58 76 76 86 86 93 70 63 89 97 98 89 76 94 99 91 99 100 100 100 99 93 98 90 80 70 68 78 73 69
67 6 7 12 18 28 37 43 46 62 59 64 77 85 76 72 95 96 89 99 97 74 80 84 98 99 98 98 97 90 91 82 100 95 94 87 100 90 89 74 66 58 60 62 57
50 5 7 13 19 29 39 41 55 63 64 67 84 79 77 85 95 94 100 87 86 76 84 87 87 90 91 96 98 95 71 94 83 96 87 98 88 91 89 76 67 64 56 58 61
27 5 7 14 21 30 38 41 54 62 66 75 92 94 97 87 91 76 82 83 83 89 94 87 85 99 94 99 98 83 86 87 100 91 81 90 93 79 88 62 58 61 54 54 54
22 5 7 16 22 33 39 48 56 72 68 81 93 93 84 95 94 74 76 86 86 88 98 97 95 92 85 97 98 88 76 74 90 85 90 80 88 90 83 80 62 51 51 57 53
26 6 7 17 26 31 46 44 60 71 74 94 86 85 91 100 99 93 82 91 88 95 97 98 99 93 96 95 91 79 66 58 70 95 99 94 91 65 59 68 62 50 42 46 65
52 6 8 15 28 34 38 42 68 69 89 96 78 81 98 98 96 92 93 98 92 96 99 99 100 83 85 73 78 71 60 62 60 80 77 62 79 42 49 48 57 56 48 50 62
89 7 9 19 26 33 40 61 71 83 83 96 81 80 96 96 76 84 98 95 99 97 97 98 99 99 96 90 88 72 61 71 80 68 74 70 62 48 42 41 45 37 38 42 49
77 7 10 18 25 37 47 69 84 75 88 84 89 89 95 92 89 84 94 97 91 90 97 97 99 99 96 86 78 65 79 94 84 76 75 60 63 44 45 48 51 55 57 59 52
79 8 12 19 30 39 58 80 76 86 94 89 84 94 87 86 93 80 92 92 87 76 84 91 94 78 77 78 75 69 54 59 82 92 69 53 48 42 43 43 43 42 48 57 52
50 10 13 21 36 44 75 84 79 80 88 96 98 89 91 94 92 86 84 90 86 85 80 97 98 88 78 70 72 58 62 61 54 54 62 49 44 43 44 45 40 46 51 50 48
19 13 15 26 41 61 95 86 90 86 91 96 98 99 94 97 87 94 98 80 65 67 83 93 97 86 84 78 74 68 74 59 57 65 59 60 44 39 46 41 44 43 39 31 34
13 15 20 25 45 77 98 94 95 91 92 87 95 93 89 98 88 98 88 78 59 57 84 78 87 97 84 81 87 76 66 61 57 64 83 60 44 42 42 36 34 36 39 42 44
15 18 24 29 58 99 98 93 94 95 97 89 92 92 79 86 84 86 76 78 60 78 68 76 71 84 86 87 87 84 70 77 61 65 58 59 48 41 43 47 45 48 47 46 44
17 18 23 32 57 98 99 91 94 95 93 94 90 88 87 78 81 86 89 94 65 65 71 69 84 92 87 82 77 81 81 71 72 67 65 57 49 50 48 49 50 49 53 66 69
16 16 22 32 63 86 97 91 98 97 85 98 89 90 95 88 83 86 92 92 84 73 72 81 80 75 81 76 68 71 64 73 76 72 67 63 53 56 57 64 64 63 67 70 69
13 13 19 26 43 86 96 89 90 75 81 89 88 92 97 84 88 95 99 100 99 90 92 84 90 88 86 85 80 69 60 70 74 61 71 48 58 60 67 69 74 73 68 66 64
12 16 23 23 47 79 90 89 93 79 73 87 87 89 89 89 85 97 98 100 95 96 94 87 83 84 82 70 73 81 74 74 78 79 76 69 63 66 67 69 71 70 63 61 59
13 15 23 29 38 68 76 89 89 89 79 79 87 83 82 87 85 84 99 90 84 92 88 86 83 79 83 81 76 72 65 68 81 83 83 85 84 83 80 78 73 76 73 67 50

GFSSW_700_rhum_072.txt.gz
RH
33 21 5 5 5 9 15 22 21 32 39 47 34 36 35 32 22 11 13 14 14 16 24 23 13 30 79 54 41 94 100 96 86 85 62 48 54 44 47 42 43 54 50 49 52
42 40 12 6 6 9 18 22 23 30 44 47 36 38 39 32 17 11 15 19 18 26 39 48 41 53 73 81 66 98 100 91 75 79 60 52 55 50 45 45 45 50 56 59 55
86 55 23 7 6 10 19 23 26 29 50 43 37 43 42 33 16 16 26 27 23 22 38 64 65 64 70 88 78 81 98 93 83 79 61 57 53 58 46 46 50 55 58 47 62
98 85 46 8 8 11 21 23 29 30 48 36 42 48 42 35 21 29 24 26 30 24 55 70 78 95 87 97 80 90 96 92 84 78 65 57 61 62 55 47 43 43 56 54 65
95 93 65 15 8 12 20 24 31 32 42 39 50 47 44 35 18 18 20 25 31 30 41 82 74 65 96 82 90 79 92 88 92 79 71 66 67 72 58 53 47 41 40 68 69
98 97 83 30 9 13 20 25 32 36 40 47 54 46 40 26 28 21 19 24 32 32 40 81 90 81 98 94 78 70 83 85 86 75 78 94 86 83 69 57 50 47 45 50 58
91 94 100 33 9 15 22 27 30 39 42 56 57 48 49 45 38 28 32 37 42 50 40 62 99 98 98 93 80 94 75 90 89 67 97 88 94 83 75 63 53 46 44 41 41
99 94 97 37 10 17 23 29 33 40 48 60 53 60 66 67 49 53 65 83 94 73 62 82 93 97 99 94 94 94 89 97 91 83 99 100 94 97 83 75 71 56 47 45 43
97 100 96 23 11 19 26 32 38 42 54 59 60 72 65 53 70 81 89 95 95 93 75 95 98 98 97 98 97 96 95 90 98 90 95 81 100 97 98 98 97 84 66 61 55
100 81 98 12 11 22 30 34 40 49 61 60 69 77 64 71 89 94 97 95 92 94 89 90 96 97 98 96 98 90 97 87 100 96 99 98 86 100 99 94 96 88 77 69 68
89 100 74 10 12 23 33 37 42 51 67 62 77 84 74 83 98 88 85 90 94 89 80 85 89 98 95 85 88 91 84 88 90 99 98 100 93 100 100 92 92 87 83 73 64
99 97 92 10 11 24 33 37 48 51 69 71 78 79 74 92 95 79 77 89 90 86 85 92 90 94 94 99 87 94 92 78 96 97 100 99 94 100 99 98 88 83 75 68 71
98 98 100 49 11 27 34 42 45 60 63 69 72 70 89 93 98 77 81 96 89 90 98 98 95 74 74 96 91 90 72 74 82 100 98 97 96 90 89 78 73 67 62 68 59
100 92 79 59 10 28 37 46 44 68 72 77 79 76 95 100 94 90 79 95 98 97 98 98 99 100 61 73 95 98 86 56 89 99 97 96 91 73 70 62 66 68 66 64 59
100 89 99 65 11 29 37 43 61 69 90 80 69 74 95 91 89 92 95 96 98 94 98 98 99 87 75 97 99 85 75 79 86 97 99 100 74 55 74 76 59 56 59 55 52
100 95 92 64 11 32 39 47 69 82 82 92 74 82 99 92 94 98 98 98 99 98 98 99 99 95 68 87 81 68 82 87 91 91 98 84 85 51 54 54 52 58 61 46 44
99 86 94 38 18 34 44 64 75 75 85 80 78 89 89 96 91 95 100 92 97 97 96 99 100 100 98 82 94 84 76 98 98 98 86 62 84 48 47 46 44 46 55 51 55
100 99 89 55 20 39 51 74 74 82 98 84 83 91 86 85 81 91 98 97 96 98 98 98 98 98 88 86 86 81 68 63 88 92 74 70 64 48 45 44 45 53 56 60 62
97 90 95 16 26 45 63 78 72 82 84 85 96 95 82 81 82 86 87 93 98 81 88 87 98 90 94 88 91 78 61 62 56 67 58 54 49 50 47 46 42 44 49 50 57
99 98 72 12 33 53 79 75 81 81 89 92 95 99 79 77 85 88 88 66 86 92 73 80 96 85 75 80 73 72 67 58 52 73 66 62 48 47 51 45 46 53 59 59 56
99 97 67 15 39 69 81 79 86 94 92 86 92 91 86 81 86 93 82 66 82 88 80 76 78 86 74 76 71 67 57 56 60 65 74 66 46 44 49 46 45 44 44 42 40
100 91 41 21 48 99 98 99 91 95 92 86 92 83 81 91 98 89 84 78 70 77 70 67 73 90 89 81 74 70 62 55 52 59 61 55 47 39 45 45 43 42 44 47 49
100 97 24 36 65 99 97 97 99 93 90 91 90 92 77 75 84 81 60 50 43 54 56 59 74 84 80 79 81 76 72 63 60 59 55 55 55 49 57 58 57 54 52 49 47
99 66 28 42 60 100 100 97 98 97 94 92 89 92 85 82 84 82 74 52 46 48 43 52 66 68 72 70 68 71 66 69 62 66 66 54 56 60 62 59 57 57 57 59 60
90 41 16 35 55 86 100 98 98 97 90 90 96 96 87 82 81 87 93 87 68 60 65 78 79 84 84 86 70 64 63 67 65 66 65 57 55 62 63 68 70 70 68 67 69
99 50 14 28 47 95 100 97 89 81 87 90 91 96 91 76 79 87 96 98 80 84 94 87 82 82 84 75 71 79 77 72 75 76 74 69 63 67 68 68 66 69 72 77 73
68 18 26 32 63 96 99 95 89 76 83 85 84 86 90 84 84 88 99 92 86 90 93 86 77 83 76 74 67 60 56 66 76 75 74 78 75 82 81 78 78 82 81 78 72

GFSSW_700_rhum_075.txt.gz
RH
99 90 88 53 29 7 8 12 14 20 25 30 40 45 33 32 33 32 18 16 17 17 15 13 12 11 12 33 37 65 100 99 96 99 59 54 52 47 45 41 51 58 66 65 52
100 97 88 71 56 20 8 11 18 21 28 32 47 43 33 36 38 34 23 16 16 19 19 23 25 22 16 40 85 72 98 94 86 95 93 61 56 48 50 46 48 52 57 64 63
100 99 88 70 75 45 10 12 19 24 31 33 48 37 36 42 42 35 27 25 30 26 23 20 19 38 42 38 72 85 82 64 98 80 92 69 62 49 55 56 50 51 60 64 63
98 99 96 89 95 88 11 14 20 27 34 37 44 37 46 49 43 34 30 29 24 23 26 25 28 66 51 58 63 99 61 90 96 81 92 73 64 54 58 56 49 54 54 60 55
100 92 100 85 100 94 14 12 20 29 34 41 41 41 52 49 43 35 27 22 22 25 31 30 49 85 70 72 69 100 75 84 99 95 91 80 69 67 58 58 52 53 70 63 49
100 89 100 97 100 81 13 14 20 32 34 42 44 48 53 52 46 43 34 29 30 28 30 35 41 81 86 79 92 84 90 85 99 85 86 76 74 68 55 58 62 54 64 63 52
100 91 100 98 100 78 13 12 22 33 39 42 52 58 56 63 62 57 39 38 40 47 36 38 44 78 81 90 91 86 89 90 83 97 98 90 97 81 72 65 70 60 66 76 73
100 99 100 100 95 72 14 12 26 38 42 48 62 58 70 71 59 60 68 81 84 78 74 77 72 91 97 90 98 84 99 88 95 92 97 99 90 85 84 74 76 66 62 61 62
98 97 97 98 95 74 12 15 30 40 46 54 63 68 76 60 76 89 89 78 77 86 91 92 94 98 95 94 98 89 98 82 94 90 98 100 87 73 99 85 79 70 60 54 56
98 98 99 100 95 81 15 18 33 40 53 62 62 76 77 70 79 70 74 86 94 93 99 98 97 97 92 98 97 87 90 86 87 87 92 99 91 92 98 98 86 75 66 61 54
75 92 100 100 99 75 18 24 35 45 51 66 70 75 72 74 79 55 67 90 88 94 96 94 98 96 94 96 96 84 85 87 76 90 79 99 86 79 100 96 92 81 79 66 62
95 93 100 100 88 92 19 31 37 48 66 66 64 68 74 79 90 64 65 76 81 82 93 99 97 97 95 98 95 90 87 92 93 99 99 100 100 100 90 99 90 91 87 79 69
97 88 100 99 98 79 20 32 43 50 70 71 64 77 79 81 88 81 62 74 81 79 91 99 98 98 93 84 98 96 80 92 78 71 98 99 99 95 99 99 98 95 88 80 76
100 78 99 99 98 55 19 36 39 60 73 70 60 82 78 95 95 89 85 81 95 86 88 91 97 94 94 88 79 89 90 74 82 90 99 86 96 89 86 89 92 90 83 73 68
94 93 98 100 100 66 26 37 41 67 82 76 62 76 73 88 94 95 98 96 90 95 97 97 96 100 86 83 90 76 87 83 82 85 98 98 93 65 62 62 66 81 71 64 57
99 95 100 99 98 36 26 41 57 81 74 86 69 83 73 90 97 98 100 98 99 98 98 99 91 99 71 75 97 98 95 95 87 98 98 99 80 57 65 49 56 58 61 64 62
98 99 100 99 75 35 30 50 71 84 81 79 78 79 75 87 92 95 100 99 99 98 99 99 100 99 80 95 99 100 89 99 97 97 93 80 88 56 50 50 56 58 60 63 64
99 99 99 99 80 30 34 64 76 70 88 81 82 76 76 85 89 100 97 98 99 98 98 99 100 93 99 95 93 97 82 91 92 92 78 77 78 50 46 46 44 45 52 65 56
99 98 99 98 74 32 44 58 61 72 89 79 83 79 72 81 87 92 92 98 99 95 96 97 98 99 99 90 85 82 63 60 64 68 74 71 55 47 46 44 46 44 46 55 61
99 99 99 99 64 44 65 54 67 82 88 95 85 83 75 76 84 89 80 80 98 88 90 96 95 99 99 95 77 72 58 51 54 85 68 64 52 48 49 45 41 45 54 57 59
99 99 98 87 56 60 56 59 74 84 92 91 84 79 67 70 81 91 77 86 96 82 70 70 78 91 89 79 80 77 62 53 59 60 80 68 48 46 53 52 49 51 56 58 64
98 99 97 80 65 76 54 68 81 92 91 94 90 84 68 76 98 81 70 72 82 79 69 59 70 80 86 81 71 68 60 58 48 62 61 54 54 45 46 56 56 52 49 49 48
98 97 97 81 87 58 56 68 90 90 87 96 87 79 72 79 77 68 59 69 81 68 65 65 68 83 78 77 74 76 62 58 52 54 58 59 60 46 55 55 53 51 48 51 51
97 97 97 91 74 56 78 90 89 91 86 97 88 80 77 77 81 74 64 49 62 55 54 58 68 64 71 68 68 69 69 65 58 51 55 55 61 65 61 60 61 59 58 56 53
96 97 97 97 67 54 92 96 91 91 90 92 84 83 82 82 86 88 86 67 63 49 47 60 69 72 77 78 70 66 67 70 67 62 61 58 55 66 66 65 64 65 67 68 66
97 96 54 39 43 52 98 98 96 97 93 93 80 80 90 83 76 69 66 63 56 51 70 76 80 84 80 79 80 75 67 62 67 70 67 69 63 59 64 72 72 70 69 67 68
96 94 59 30 34 61 98 99 97 93 94 91 86 78 89 84 85 88 86 70 77 70 78 81 79 83 82 75 65 64 63 65 63 62 63 75 66 67 65 68 72 73 75 76 76

GFSSW_700_rhum_078.txt.gz
RH
82 99 99 93 99 92 94 59 7 8 12 16 24 24 41 44 34 34 34 28 23 20 18 16 15 13 12 14 40 59 74 92 77 80 39 61 72 61 50 50 46 56 56 52 54
87 95 87 99 96 93 100 81 14 8 13 18 27 28 42 40 34 38 38 33 26 19 16 16 14 14 15 15 54 88 82 44 27 24 36 76 78 64 68 53 47 42 47 55 67
92 91 100 95 90 99 100 82 13 9 13 20 30 34 40 36 38 43 38 33 27 23 24 27 27 26 19 21 45 75 66 29 33 39 51 86 80 71 74 67 48 41 48 52 59
78 86 100 99 98 82 98 96 19 12 16 25 32 39 40 39 54 47 45 39 30 28 26 24 27 24 20 22 26 54 33 68 44 58 82 86 78 82 83 70 53 47 44 52 60
84 74 100 99 100 99 97 89 18 16 16 28 33 41 40 48 55 54 44 38 32 24 22 27 27 30 27 26 45 65 27 59 59 78 84 60 87 96 88 65 61 54 52 51 55
81 90 95 98 98 100 98 70 21 21 25 28 37 40 46 60 56 57 57 50 38 32 30 32 32 37 48 52 88 66 49 47 89 84 86 94 71 100 78 77 62 64 63 68 67
81 92 78 100 76 100 100 93 22 24 32 34 40 45 53 61 68 62 57 50 46 41 37 35 36 40 50 65 75 76 91 75 88 77 88 98 80 83 99 81 72 71 68 74 65
12 97 87 96 87 99 100 91 20 28 36 39 43 55 58 69 56 54 66 80 87 88 84 74 80 64 50 59 96 80 88 97 69 78 96 93 71 85 100 77 74 74 79 78 85
6 29 96 87 100 96 100 98 23 30 37 42 50 59 67 61 66 82 84 84 87 91 86 91 99 98 96 98 99 95 94 82 92 76 92 97 91 99 99 84 70 80 78 84 92
5 21 96 96 100 86 100 98 26 31 38 48 54 57 75 82 76 84 57 75 97 93 96 96 96 98 97 98 96 84 99 82 94 75 86 99 99 92 80 89 76 78 86 92 89
4 7 70 81 86 100 100 98 33 33 40 46 54 61 71 72 81 81 54 70 90 82 93 96 100 90 94 97 92 90 96 98 93 70 68 79 95 99 98 94 89 74 82 81 85
6 9 35 99 98 99 100 90 29 35 45 57 49 59 72 78 79 88 68 68 66 75 83 89 84 83 98 98 96 98 95 89 92 73 80 98 87 97 98 82 96 91 84 87 74
8 12 53 100 100 100 99 92 36 57 48 60 55 62 74 75 95 90 79 67 75 72 76 84 77 100 99 91 98 92 71 84 92 99 98 82 79 99 96 81 89 100 100 84 79
9 8 80 99 100 100 100 87 46 54 71 65 57 67 75 87 99 97 81 82 89 93 94 88 83 93 100 97 99 95 76 70 82 72 97 85 98 97 95 78 72 90 94 87 82
46 10 58 100 99 100 99 51 45 79 78 71 61 66 78 96 97 97 100 94 86 94 99 96 93 93 99 98 92 100 85 78 82 80 84 84 98 93 66 62 66 82 91 90 85
62 76 45 98 99 100 96 52 57 86 74 73 64 72 75 89 92 98 100 98 97 97 97 96 98 93 97 91 82 87 81 81 72 80 89 97 94 64 62 57 68 87 95 91 91
86 99 98 100 98 99 61 59 92 80 69 72 65 73 77 86 88 89 98 98 98 98 98 94 96 94 83 95 99 92 79 98 95 96 99 95 98 65 63 63 76 79 77 86 79
90 98 98 98 99 98 62 91 83 64 74 69 66 77 77 78 92 90 99 98 99 95 95 96 98 89 78 97 98 98 93 87 93 93 93 90 74 56 51 52 68 71 78 97 77
88 100 97 98 99 96 82 98 54 55 64 67 76 76 76 69 83 91 93 98 99 97 98 98 98 98 98 99 94 95 90 73 76 79 82 66 60 54 52 52 55 57 62 66 72
98 100 99 98 97 90 96 65 63 67 75 71 76 71 69 70 87 92 79 93 99 99 95 92 97 100 99 95 87 76 65 61 73 85 78 67 54 55 58 48 57 57 59 61 75
98 99 98 96 97 94 100 66 72 81 88 88 85 71 62 72 83 86 83 89 99 85 81 79 81 98 93 79 74 66 58 54 59 59 74 69 51 50 62 63 54 64 63 64 65
98 98 96 96 97 100 81 78 86 87 88 88 85 85 59 63 74 72 69 88 86 76 70 73 85 88 92 81 80 73 63 54 48 65 55 51 56 50 56 59 59 54 54 56 58
98 97 97 96 98 90 73 91 100 86 88 90 88 76 62 75 84 80 74 93 82 70 68 66 76 79 79 80 70 66 58 54 51 55 53 60 58 48 58 60 58 56 53 52 50
97 97 98 97 95 78 86 98 98 88 85 90 89 75 76 76 76 72 66 79 70 66 59 62 66 59 68 62 71 70 64 59 52 48 54 52 53 58 58 58 58 57 57 56 54
97 97 87 94 89 71 100 96 89 90 86 93 94 77 76 71 74 73 66 58 63 54 60 67 66 64 66 68 73 67 67 67 63 58 56 54 53 53 60 64 64 62 60 57 59
97 96 96 54 78 91 99 88 89 87 85 93 87 79 83 79 71 74 64 59 59 51 64 67 78 78 76 77 71 65 63 64 66 67 65 63 61 58 59 61 62 64 69 69 67
94 96 87 52 80 100 99 93 95 86 87 83 84 78 80 86 85 86 79 79 73 69 79 72 78 84 79 74 67 62 71 68 61 60 66 67 65 64 61 61 66 71 73 74 76

GFSSW_700_rhum_081.txt.gz
RH
80 64 76 81 100 98 81 73 84 81 13 11 13 14 15 21 24 40 33 29 30 27 24 22 19 16 14 14 22 70 76 54 38 26 19 23 42 47 67 54 59 58 62 64 59
76 75 65 75 96 100 96 88 89 85 20 17 13 17 19 19 28 38 32 36 34 31 27 23 19 17 16 15 28 75 72 37 15 25 29 26 54 44 66 64 58 57 60 65 60
65 65 76 75 73 84 96 100 94 84 25 12 16 18 30 22 33 33 35 37 36 36 32 23 18 17 17 19 26 44 47 36 44 33 72 76 70 71 77 82 55 63 63 58 70
30 62 63 74 70 90 81 100 98 78 40 9 19 23 27 32 40 42 39 43 44 39 29 31 30 27 22 23 28 45 23 48 32 51 54 72 75 88 74 73 63 64 64 63 57
8 16 52 63 76 67 99 94 99 98 48 12 24 30 37 34 43 48 54 52 49 43 36 29 24 23 25 26 25 31 16 26 31 44 64 79 82 79 79 81 76 71 66 68 80
4 5 15 58 71 80 99 73 100 98 46 17 29 37 40 38 44 54 63 62 59 54 44 35 33 36 30 29 43 36 29 24 30 39 49 72 52 73 56 78 71 66 87 76 69
5 4 12 26 68 87 90 100 89 100 41 20 33 43 43 56 52 57 46 47 53 54 50 46 44 47 40 34 45 48 69 68 41 30 73 68 76 80 41 78 70 81 72 86 80
5 5 5 13 57 94 74 100 86 99 79 24 36 48 54 56 52 49 59 73 82 82 82 86 81 77 73 50 49 64 84 76 29 45 40 84 70 48 51 75 88 84 79 97 92
7 5 4 7 33 88 97 92 87 97 54 32 34 56 61 53 53 56 65 50 62 83 98 92 90 96 92 89 88 86 94 91 49 51 52 81 77 55 89 57 75 91 84 94 92
8 7 6 5 29 100 82 100 99 99 59 33 42 60 54 57 52 67 76 50 72 92 91 95 99 90 92 95 96 91 99 93 74 42 66 74 85 89 76 69 77 82 94 96 97
10 8 8 7 22 88 100 99 98 96 46 42 44 56 66 61 56 75 83 54 64 81 79 86 92 92 75 94 96 97 98 92 84 75 68 70 98 96 99 95 65 82 98 86 86
13 11 10 38 29 82 100 99 99 93 42 50 55 57 69 74 69 76 82 66 69 76 87 91 76 67 94 97 98 100 99 92 89 61 89 69 93 96 96 98 99 100 98 79 82
17 14 12 70 87 88 98 99 99 52 49 59 60 59 79 80 76 90 83 72 70 71 80 77 61 79 97 97 98 96 93 86 98 99 96 75 90 82 83 90 94 100 100 88 88
23 26 22 39 93 45 98 98 99 48 72 65 66 63 80 83 85 96 97 91 90 77 89 87 93 83 88 97 97 98 82 82 73 86 98 93 96 79 85 82 97 87 98 99 95
52 64 56 66 97 40 98 98 98 60 95 71 68 64 79 90 89 99 100 97 98 96 91 83 99 88 94 98 99 92 76 74 76 76 77 77 71 71 80 98 86 81 88 86 100
69 96 99 62 91 73 99 98 72 80 93 81 70 67 78 86 89 92 96 98 98 98 98 85 100 98 97 93 88 94 82 82 79 70 92 98 61 72 85 87 81 68 66 78 98
92 88 98 98 99 80 98 95 84 95 76 82 64 70 71 87 87 92 100 98 99 98 95 84 98 95 95 93 94 84 76 93 90 88 95 99 96 88 75 86 71 83 72 74 99
71 57 90 98 98 100 98 96 93 77 80 83 66 66 73 82 89 95 97 98 100 92 99 95 90 92 88 86 93 91 88 80 89 90 94 98 94 83 69 61 67 72 90 99 100
96 68 77 98 98 98 97 94 76 77 78 71 73 60 65 76 83 92 97 100 99 99 97 99 99 88 84 93 88 95 78 71 78 80 79 79 76 82 77 70 79 85 85 92 100
97 88 85 94 98 98 96 86 79 87 74 66 54 51 57 70 83 88 94 98 98 93 98 98 97 98 99 98 91 92 74 70 72 82 95 73 57 77 68 62 54 72 84 99 98
100 99 98 98 98 97 96 92 96 97 80 71 57 59 66 74 82 86 98 99 99 88 86 82 86 100 99 93 87 72 64 58 59 60 80 75 55 70 72 73 69 70 75 82 88
98 96 97 97 98 95 97 94 100 100 94 86 72 70 65 67 79 86 82 100 91 81 84 78 76 89 86 83 76 69 59 50 45 60 53 54 56 59 71 73 73 73 74 74 72
95 97 97 98 97 95 92 100 100 98 90 88 78 74 52 67 77 77 95 97 78 72 72 79 78 89 85 77 78 69 62 52 50 48 50 55 62 60 66 66 64 58 59 60 59
94 98 98 96 95 92 99 100 98 99 96 90 79 67 62 72 67 70 85 84 73 70 63 67 68 60 68 68 76 67 62 57 52 46 52 52 53 63 64 63 61 60 58 56 55
80 91 86 96 96 86 99 94 93 98 96 97 86 73 70 66 66 69 64 70 56 58 63 66 64 65 71 72 75 68 62 61 60 58 54 49 51 54 64 67 66 64 64 62 60
79 87 94 96 96 96 89 95 91 93 96 96 81 78 70 62 66 58 54 50 49 41 61 64 73 74 75 79 72 69 70 69 66 68 66 61 56 61 67 71 73 71 68 71 74
86 97 97 72 90 88 88 98 92 88 88 90 89 77 74 62 60 57 53 54 51 48 65 64 70 75 75 69 65 63 70 77 74 69 66 66 65 65 64 66 68 70 76 79 80

GFSSW_700_rhum_084.txt.gz
RH
37 61 73 74 68 69 72 96 77 81 82 72 32 21 18 14 17 18 25 32 31 28 24 24 23 22 18 17 18 25 94 72 60 55 53 52 55 67 41 63 75 65 75 73 75
16 36 65 82 80 76 68 79 90 95 90 68 49 13 12 15 18 23 32 33 31 28 30 27 25 22 18 17 23 43 89 72 59 60 61 68 65 68 75 68 60 62 68 68 59
6 9 31 69 80 78 72 90 90 89 77 90 59 16 12 17 21 31 35 33 33 35 37 36 33 25 21 21 42 70 89 82 85 86 90 86 86 84 82 79 72 69 57 68 61
9 6 7 9 39 76 78 73 92 89 72 68 61 23 16 19 33 41 45 42 44 43 41 39 32 26 23 23 28 42 60 49 65 98 82 51 94 86 88 78 80 80 81 82 70
8 7 5 7 19 44 80 85 74 81 69 81 65 19 19 24 34 41 58 55 52 51 49 47 38 33 32 33 29 27 23 58 65 54 40 59 59 65 85 73 55 59 78 70 73
9 8 7 5 8 27 58 81 91 100 95 85 87 34 23 32 33 49 58 60 53 46 42 50 45 38 33 27 26 58 24 25 47 48 36 37 40 96 42 52 76 73 51 74 68
6 7 7 6 5 30 48 74 99 94 91 95 77 23 25 44 48 52 55 46 53 50 53 62 54 46 45 50 44 27 27 26 26 23 86 29 38 28 37 56 55 84 82 61 70
6 7 7 6 5 25 59 69 100 98 99 96 82 31 31 45 52 50 50 59 54 40 45 58 76 84 89 94 73 90 84 92 17 30 20 69 44 27 58 81 54 68 76 73 58
7 7 8 8 6 14 97 77 82 100 96 99 79 33 37 47 45 59 60 67 44 40 66 70 92 88 85 92 99 100 74 70 72 78 58 92 39 35 74 80 53 50 80 67 49
10 10 10 10 7 33 24 58 96 83 99 85 55 45 42 49 54 62 68 68 48 54 90 76 92 91 90 99 95 86 97 90 74 69 88 78 32 59 82 92 70 73 78 74 51
16 14 13 12 19 63 55 82 99 99 82 100 64 33 48 48 66 67 70 72 55 57 93 85 87 64 69 94 92 95 96 94 96 83 82 78 66 66 80 73 73 75 73 76 65
27 20 16 34 98 91 78 76 92 68 99 95 40 42 54 58 72 74 72 74 63 66 83 83 61 53 92 89 96 97 97 95 92 80 91 74 68 75 96 98 73 73 61 89 82
52 36 21 18 76 98 81 99 99 78 89 46 44 62 55 66 77 91 88 72 67 70 78 89 75 82 97 99 97 97 97 92 96 84 98 81 78 97 95 87 95 83 73 88 95
77 72 32 26 92 99 93 100 100 99 62 59 54 67 61 76 86 99 97 87 84 88 80 82 88 99 100 95 98 97 94 98 90 98 88 89 71 94 82 68 74 75 82 98 100
68 71 65 53 99 92 100 85 98 98 91 78 82 73 70 89 94 88 93 97 99 99 96 84 86 95 97 99 99 96 92 94 90 92 91 87 73 75 66 76 62 55 90 95 99
94 86 77 78 71 76 100 92 97 83 79 89 87 64 72 95 94 97 100 100 100 100 95 75 85 98 100 100 96 85 99 98 99 77 93 94 93 81 89 84 83 94 96 99 100
95 93 82 95 85 97 98 98 96 95 80 92 79 63 80 98 93 98 99 100 99 96 99 84 91 90 96 99 94 97 98 90 89 76 83 97 86 86 72 83 87 84 79 93 100
96 74 70 86 98 98 96 98 97 94 97 95 64 76 95 88 97 100 100 100 100 99 94 98 91 86 92 92 97 92 89 83 72 83 92 94 80 76 75 69 59 91 80 98 96
98 95 58 94 100 82 98 96 92 92 79 80 76 90 89 86 95 95 93 92 98 99 98 91 94 85 87 86 92 78 97 77 80 79 64 79 87 82 84 92 79 92 99 87 99
98 84 73 84 99 100 97 97 91 86 81 69 86 81 88 77 90 88 95 97 98 96 98 99 97 98 98 93 97 93 87 82 73 73 81 54 60 71 85 85 98 99 91 98 100
87 79 100 86 100 98 96 89 100 96 79 76 71 66 62 81 83 86 97 97 97 99 93 92 95 95 92 92 84 82 79 62 60 66 50 47 56 79 86 79 88 89 99 100 100
88 98 98 98 97 96 96 95 95 94 93 94 74 62 72 73 75 79 97 96 84 88 84 84 83 98 88 82 76 71 58 61 56 55 56 46 56 76 80 80 88 96 99 100 99
77 96 98 97 95 97 90 93 97 98 97 92 79 64 66 66 68 79 87 80 71 69 78 71 71 84 81 77 72 69 58 52 48 48 64 45 60 75 76 76 76 78 79 76 72
64 96 96 95 94 91 84 98 94 98 97 79 64 63 68 62 67 86 84 69 69 65 66 68 65 60 62 76 75 66 61 52 46 62 51 60 68 72 75 72 68 66 64 62 60
70 74 78 95 90 85 95 98 92 93 95 76 70 73 66 58 64 73 70 65 53 62 66 64 65 63 61 69 72 67 64 57 52 53 59 58 69 68 68 67 67 66 63 61 59
65 76 83 87 74 89 91 94 92 89 84 76 69 72 62 52 57 54 53 52 43 46 58 61 73 68 72 64 64 62 65 67 65 59 58 55 57 62 65 66 68 65 64 62 61
76 64 65 72 71 87 93 89 95 92 89 80 77 64 56 56 51 49 45 40 38 35 49 60 66 70 73 67 63 63 67 64 64 64 64 69 62 61 62 66 70 71 70 68 72

GFSSW_700_rhum_087.txt.gz
RH
9 8 11 26 55 71 87 72 68 78 65 60 65 57 54 26 18 13 13 19 23 23 27 27 26 23 22 20 24 86 91 64 59 53 45 42 38 45 50 56 58 57 59 56 67
15 11 8 11 13 44 78 88 85 88 91 74 65 55 47 25 18 14 18 20 23 27 29 32 30 26 24 22 55 92 82 65 54 48 44 43 45 43 42 50 58 67 68 73 75
14 13 12 8 12 28 39 71 93 95 100 89 75 71 64 25 19 22 24 23 26 31 33 38 40 36 31 58 66 82 84 72 62 58 66 73 77 74 52 56 52 58 58 74 95
13 11 10 11 8 14 40 74 82 93 92 83 66 82 55 25 35 25 23 25 34 46 42 42 42 38 40 74 70 64 74 75 71 74 80 89 82 84 78 68 61 65 67 68 80
10 10 10 9 8 6 31 87 69 99 91 86 75 77 76 35 25 24 27 34 42 50 49 51 50 52 66 70 79 82 82 71 61 63 72 82 86 86 81 85 83 79 88 70 89
7 7 7 8 8 6 8 54 56 85 85 98 78 79 77 31 34 28 35 42 40 40 39 42 45 46 46 61 79 72 74 82 86 81 76 74 76 77 42 80 82 72 81 70 83
7 6 6 6 7 7 5 36 46 72 74 99 76 88 76 35 31 32 41 37 34 43 49 45 53 50 88 90 86 85 87 85 70 68 73 83 78 68 22 44 75 73 82 90 69
8 7 6 6 6 6 7 99 76 77 94 99 68 93 69 41 34 42 37 39 39 49 36 41 52 64 77 94 93 90 83 69 54 50 54 73 66 58 43 44 58 74 85 90 70
16 11 10 8 7 7 11 77 93 56 95 84 84 88 51 38 41 44 45 44 42 40 37 56 66 82 94 100 100 97 85 62 55 55 55 62 64 48 47 42 46 62 70 83 78
30 17 13 11 10 9 88 35 99 91 100 89 93 68 52 47 44 43 46 51 51 45 50 72 96 86 92 100 83 66 80 76 67 58 55 64 62 57 54 42 57 57 69 83 96
61 35 19 15 20 68 72 70 95 81 86 80 81 66 55 50 46 50 53 53 50 52 88 89 99 85 96 98 100 98 90 79 73 75 94 76 57 52 49 72 69 71 80 88 100
64 55 29 17 96 98 97 82 98 92 96 91 98 89 51 56 52 59 64 57 58 92 98 92 95 97 97 92 96 98 100 95 90 86 87 79 56 57 52 76 75 90 81 86 90
64 58 42 22 48 98 99 78 90 64 99 83 97 70 61 53 61 62 72 72 87 82 90 98 85 97 100 99 98 89 95 94 96 96 82 80 60 55 53 82 82 87 80 81 82
65 56 50 26 53 99 96 90 98 98 98 76 65 70 65 61 69 75 89 93 100 84 100 100 89 97 99 100 98 95 95 99 98 98 78 74 53 47 68 86 83 86 76 69 68
74 78 54 33 74 98 97 91 96 98 98 100 77 75 69 84 88 87 84 83 94 95 100 97 100 100 94 97 96 90 99 97 100 100 98 74 65 52 72 80 89 96 74 74 76
94 91 67 50 40 82 79 73 85 97 96 99 86 82 75 89 86 86 95 96 95 99 98 81 70 85 92 99 98 98 98 81 85 98 94 96 87 77 81 82 89 98 79 63 89
90 96 65 51 43 90 78 82 97 98 99 95 92 74 98 88 82 91 97 97 96 99 95 95 86 77 93 95 95 99 99 92 97 97 71 90 98 85 80 80 89 85 98 94 98
93 67 60 59 97 65 87 96 98 97 99 99 80 97 98 83 92 97 98 98 100 99 96 96 89 89 80 100 100 99 100 97 84 79 82 92 99 98 100 82 75 96 95 99 96
91 70 52 80 92 90 89 97 96 97 99 100 99 98 97 94 94 95 93 93 99 92 99 100 93 78 80 81 98 89 99 98 98 88 85 98 98 98 98 98 86 100 97 96 88
50 58 64 87 91 96 98 96 97 96 95 90 73 75 81 93 96 99 95 96 91 97 96 86 95 85 87 80 88 95 88 86 79 84 74 55 67 90 98 99 100 100 95 97 100
47 62 96 81 95 96 97 98 97 98 100 94 83 78 80 94 98 97 92 95 96 95 87 94 98 91 96 90 98 91 76 72 67 60 70 45 68 89 100 99 99 100 100 98 96
52 73 95 89 99 96 97 96 94 83 68 71 70 84 82 95 98 96 99 98 91 82 98 87 91 87 86 76 74 80 78 66 54 47 49 44 73 98 99 99 100 98 99 100 100
41 85 96 91 90 96 100 99 97 84 83 90 75 78 72 94 90 100 96 71 68 75 82 69 79 79 73 76 84 80 74 64 60 61 46 48 69 90 88 97 98 99 99 98 98
54 97 90 91 83 95 98 98 92 86 88 70 62 68 90 87 83 80 70 64 60 60 68 64 74 81 70 91 82 84 76 61 54 60 48 55 81 86 79 76 76 77 76 72 70
55 73 88 91 68 91 90 87 91 96 81 69 70 80 89 81 83 67 53 49 46 57 60 58 64 63 70 68 68 66 75 68 58 57 51 58 64 69 70 71 68 67 65 63 63
61 67 69 64 66 90 82 94 81 79 93 92 72 62 73 65 75 59 51 41 32 48 52 56 58 59 64 57 61 62 57 66 63 71 63 64 67 76 64 59 64 67 68 65 63
34 66 52 54 68 97 75 78 85 87 78 64 68 73 52 43 45 43 39 35 35 34 48 56 55 62 78 61 62 62 59 60 64 58 66 61 62 57 61 66 68 68 69 68 67

GFSSW_700_rhum_090.txt.gz
RH
21 18 14 17 24 58 81 86 100 78 68 70 54 62 56 50 38 32 22 22 19 17 19 20 21 22 22 20 21 65 90 90 76 67 59 52 44 40 39 45 48 47 49 49 50
21 18 15 13 13 21 53 70 94 98 98 81 75 68 59 58 50 35 26 22 18 17 21 20 23 23 25 24 23 43 82 73 64 59 54 49 45 43 40 38 48 49 54 53 64
22 16 15 13 13 12 21 63 82 93 81 99 88 82 69 67 44 31 27 22 18 20 21 24 28 30 32 40 52 46 63 69 75 65 58 55 50 52 56 50 43 44 52 47 64
24 14 14 11 12 10 10 20 62 98 100 90 88 80 70 75 48 37 29 23 22 27 33 32 36 38 41 52 63 65 76 83 78 71 70 76 80 66 63 55 56 58 68 56 56
23 15 10 10 9 9 8 12 29 92 95 88 89 86 79 79 65 44 30 26 30 36 35 30 34 40 44 60 72 75 76 76 73 69 64 65 70 74 53 58 69 72 81 84 69
32 17 11 8 7 8 8 7 20 52 91 95 97 92 92 83 54 40 31 32 36 33 28 26 29 33 34 42 54 64 75 73 72 79 77 71 56 65 53 41 48 64 75 78 64
63 21 12 8 6 7 7 6 8 52 73 78 98 83 95 86 66 42 32 41 36 33 30 17 23 24 34 45 78 87 83 79 74 50 49 47 50 49 48 28 26 24 45 67 65
81 27 14 8 7 6 7 8 14 54 61 67 100 88 87 78 62 39 41 39 36 37 30 18 21 25 29 38 44 75 79 86 56 63 61 61 60 49 67 52 26 17 20 37 67
74 47 16 12 8 7 8 21 97 87 76 98 98 91 92 73 51 40 46 42 44 43 31 21 23 27 31 55 59 91 86 79 70 60 57 51 56 59 55 52 49 44 18 29 76
80 64 33 16 11 18 12 33 99 99 88 100 98 100 87 61 44 44 46 51 49 44 31 26 28 30 42 99 91 79 85 94 82 72 63 70 55 54 40 53 52 41 41 39 60
78 68 53 19 51 91 88 98 86 100 99 98 92 87 72 56 50 44 53 57 57 46 38 40 42 35 55 89 90 94 96 81 70 71 70 80 79 63 60 46 63 44 54 56 70
73 69 50 25 100 100 97 98 82 98 96 93 95 90 84 54 51 55 61 66 69 75 93 74 51 70 86 90 97 97 98 88 73 75 91 89 79 62 54 53 51 79 60 69 78
67 66 48 38 44 98 99 75 92 95 99 96 100 100 83 56 68 69 74 78 89 100 100 100 68 91 90 81 91 88 96 88 96 87 92 87 89 78 50 52 52 72 89 85 88
56 53 45 46 32 73 98 97 98 90 91 99 95 98 73 68 74 75 88 98 100 97 100 97 88 87 83 97 98 98 96 98 99 98 96 78 84 58 56 51 57 58 62 56 60
73 89 62 54 70 59 95 97 97 100 94 99 94 84 74 71 92 90 96 100 95 100 97 82 94 93 89 87 99 92 100 99 98 95 96 85 88 49 48 63 65 74 91 66 52
89 94 71 53 41 96 96 100 97 95 97 98 94 85 74 99 95 99 96 97 92 81 82 74 70 73 86 85 98 98 100 100 99 98 97 82 84 44 47 62 76 86 94 91 70
96 89 57 63 29 95 98 80 86 95 97 98 100 89 91 96 98 99 100 100 92 86 92 86 85 91 99 99 94 98 98 98 97 97 98 97 96 99 96 84 85 85 98 97 70
95 74 57 72 30 86 72 74 96 97 100 96 82 96 97 98 100 98 93 78 88 90 98 97 96 88 90 90 93 96 98 99 96 96 96 89 99 99 94 86 84 86 91 95 99
45 43 56 73 31 54 71 92 97 97 91 91 96 93 95 96 96 82 79 88 99 94 98 95 97 94 86 80 76 79 96 97 98 89 98 99 98 98 99 94 93 100 100 100 100
44 53 54 49 70 67 81 95 97 99 79 87 76 77 88 92 89 96 94 89 84 98 98 87 94 84 78 86 88 98 82 85 82 97 94 97 97 99 98 99 99 100 100 98 98
41 47 63 73 73 87 96 96 95 94 98 95 72 72 76 90 92 100 91 98 97 99 92 99 98 73 72 80 82 86 74 68 76 61 96 70 97 98 99 99 100 100 100 100 100
53 58 64 75 87 99 94 90 79 79 88 72 74 77 84 92 84 87 95 95 86 84 95 96 85 87 80 76 78 78 70 58 58 60 52 67 98 97 99 98 100 99 100 100 100
44 58 65 84 98 98 100 83 96 100 95 76 58 70 85 89 87 93 96 69 71 75 78 77 80 81 78 76 66 77 59 51 56 53 56 72 92 94 99 100 99 99 99 99 99
55 69 80 91 95 98 93 85 76 68 58 57 66 79 85 82 84 73 82 62 60 65 67 67 76 76 80 80 81 75 63 53 54 55 65 72 90 91 79 73 73 75 74 70 69
64 65 74 82 87 82 78 93 82 62 56 65 80 87 79 82 72 60 55 61 52 62 61 63 62 62 74 71 72 64 75 58 55 57 62 75 72 75 74 71 70 69 69 67 65
56 68 56 61 78 79 82 95 69 60 81 84 82 76 74 69 72 71 56 44 33 61 52 54 56 63 68 61 69 62 51 55 56 63 64 72 84 89 84 65 65 68 70 67 67
62 48 59 57 90 78 66 72 67 68 72 60 60 57 45 46 44 40 36 34 31 31 39 50 54 55 78 54 57 71 53 55 60 56 66 73 79 86 88 81 74 72 73 71 70

GFSSW_700_rhum_093.txt.gz
RH
37 28 23 20 18 18 32 66 76 99 100 94 73 72 65 57 39 37 34 30 23 21 15 14 14 16 17 18 17 20 58 78 72 80 66 43 55 46 44 42 44 45 48 48 48
45 38 28 22 17 17 18 36 78 83 100 100 100 76 68 55 51 48 35 27 26 18 16 16 16 17 19 19 20 23 31 40 32 32 59 64 58 52 46 41 39 45 47 50 51
49 41 33 26 18 15 14 21 29 72 96 93 94 90 74 61 61 44 33 31 24 20 19 20 21 22 22 24 22 23 20 22 35 43 56 65 58 54 50 44 41 39 47 49 54
42 50 36 28 22 16 15 12 14 70 97 93 85 88 75 69 59 44 45 32 25 23 26 30 32 33 33 30 31 28 32 39 40 36 63 66 64 54 60 51 44 47 45 49 52
77 52 40 50 24 17 13 11 10 29 100 88 100 95 79 73 67 62 46 34 28 25 27 27 26 22 22 24 28 35 49 64 74 72 58 63 64 64 54 53 48 47 49 50 55
90 84 57 29 55 28 9 9 9 12 57 100 85 96 88 84 65 53 43 34 28 30 25 23 23 25 22 19 21 25 27 34 53 54 54 48 38 57 56 39 47 47 51 60 59
96 93 85 29 17 59 14 8 8 8 58 64 94 96 99 94 59 64 64 34 31 29 25 25 22 21 19 21 22 23 27 28 24 44 68 68 48 31 40 41 42 40 51 59 63
96 94 80 25 15 33 43 7 7 9 76 77 96 89 100 84 82 76 45 36 38 31 30 21 19 17 18 21 26 36 43 46 33 54 61 73 54 37 34 36 30 27 25 50 63
87 92 74 42 15 9 36 22 10 24 58 83 85 82 99 78 77 59 43 44 37 37 37 23 19 18 21 25 28 40 52 61 49 59 75 67 61 57 47 49 47 26 24 18 22
93 93 70 53 45 28 35 49 98 78 96 86 94 98 88 81 61 45 46 41 42 40 38 27 19 22 28 38 45 56 65 58 57 39 63 77 75 74 73 58 56 52 51 35 18
83 82 64 49 78 99 92 96 100 100 96 98 99 92 79 78 54 48 46 47 45 44 38 26 31 42 48 61 65 81 75 75 50 60 89 74 54 62 62 62 62 56 54 49 37
69 67 58 46 72 98 88 99 100 98 98 99 91 93 80 60 48 48 54 59 57 62 60 54 47 55 63 71 90 86 95 69 71 85 97 84 67 57 57 51 50 51 61 55 48
69 62 57 50 62 94 99 98 99 98 98 98 98 99 83 66 51 58 62 68 92 100 100 91 66 73 85 81 83 82 93 90 98 89 96 91 79 54 48 50 44 44 55 69 57
56 56 40 49 31 74 97 94 99 86 96 98 98 99 94 72 77 86 79 91 100 98 100 90 65 74 73 74 89 93 85 93 99 98 96 96 91 56 51 43 48 54 62 78 74
73 65 49 42 34 36 89 95 98 63 95 99 99 98 87 85 82 96 88 100 99 99 98 74 65 73 69 80 97 92 96 99 99 94 96 73 93 55 49 44 51 41 53 76 78
86 80 40 39 36 59 94 84 91 90 98 99 99 79 81 96 96 96 100 90 89 85 89 84 88 76 83 68 84 88 98 98 97 96 99 68 75 58 51 67 52 48 65 76 67
64 40 26 68 72 63 78 94 82 92 99 97 99 86 98 96 92 98 98 97 90 83 90 90 88 80 78 69 70 94 100 97 97 97 93 96 88 73 62 77 75 80 84 87 90
32 26 24 31 61 67 93 88 89 97 94 97 89 97 94 87 93 97 99 100 85 88 95 94 81 89 85 89 97 86 99 98 96 97 98 98 98 99 98 89 96 90 84 95 100
32 24 20 25 38 73 82 82 98 88 83 92 94 96 93 98 97 100 97 99 100 99 95 95 84 86 76 80 85 94 97 96 98 98 96 96 98 99 97 90 93 92 84 99 98
22 21 26 60 81 74 70 99 97 88 86 88 82 82 85 91 99 99 91 96 92 93 98 99 96 78 69 76 75 86 86 89 86 97 96 98 98 98 98 99 95 94 96 100 100
57 62 74 77 74 76 77 97 91 94 93 80 77 81 75 86 96 92 92 95 98 100 99 94 98 72 78 75 83 83 76 68 71 72 92 89 97 98 98 98 99 99 100 100 99
49 59 68 62 65 64 74 83 86 86 79 77 78 83 85 78 82 84 91 90 80 87 94 98 95 86 78 82 79 78 70 63 63 65 63 73 98 98 99 99 99 99 99 99 99
48 62 63 58 60 61 63 73 86 66 63 68 75 74 77 83 83 88 73 69 74 77 78 78 77 83 74 71 65 75 61 51 53 62 77 83 94 98 99 100 99 99 99 99 99
49 67 69 71 60 71 81 77 79 75 70 69 82 85 85 82 79 73 60 53 64 68 69 79 81 72 82 82 85 80 65 55 47 61 78 83 95 93 87 78 74 76 78 73 75
55 68 79 90 88 85 81 80 56 67 69 64 76 80 81 81 68 57 50 51 56 62 66 66 60 62 59 62 67 69 66 59 59 60 63 85 79 78 74 74 75 72 69 70 70
59 66 74 80 91 83 64 61 45 47 52 61 69 71 72 64 58 54 55 44 33 47 50 55 52 53 66 60 62 63 56 54 66 74 76 73 76 91 80 78 70 69 72 71 73
51 63 71 70 71 71 50 42 38 40 50 54 46 50 52 55 54 40 34 36 34 32 35 43 46 46 51 53 54 65 51 56 56 70 78 74 71 71 72 73 72 73 73 73 73

GFSSW_700_rhum_099.txt.gz
RH
95 92 90 70 47 34 26 55 93 95 100 98 83 69 57 59 57 47 36 26 26 25 23 21 18 18 15 12 11 12 14 11 11 11 13 14 17 32 20 31 40 47 49 46 50
86 75 73 78 96 80 35 30 75 90 100 90 100 98 79 65 59 53 41 36 31 26 25 19 18 18 14 12 12 12 12 12 13 13 13 12 12 12 28 31 36 47 50 46 45
88 96 96 93 75 97 65 26 32 85 91 89 99 95 99 95 70 55 47 41 33 28 24 18 21 19 15 14 15 15 13 14 14 14 13 10 11 11 10 14 36 42 50 49 46
92 94 96 95 90 75 96 53 22 41 72 97 95 100 99 94 81 59 43 38 34 29 22 24 22 18 17 16 15 14 14 14 11 12 12 10 10 9 10 11 13 40 48 50 52
90 92 90 87 97 91 80 97 40 16 52 92 99 99 93 98 85 56 45 49 44 27 26 26 22 17 14 11 13 11 9 10 11 11 11 12 11 11 8 12 14 12 32 49 47
76 92 94 92 95 87 76 73 92 20 26 74 98 98 99 97 91 78 60 49 39 30 30 25 19 16 12 10 10 9 10 12 11 14 16 15 15 17 12 12 10 15 15 34 55
60 75 94 90 85 70 61 43 84 64 15 97 97 97 99 99 95 82 66 52 42 36 31 25 19 16 11 11 11 13 13 14 14 17 19 23 16 18 24 19 13 8 15 20 39
59 70 88 82 73 59 38 26 50 49 39 68 73 81 88 99 98 88 70 61 60 47 33 24 21 14 12 12 14 16 18 18 23 29 33 42 22 30 33 34 27 20 17 16 29
68 67 80 78 74 46 15 24 40 36 34 97 94 97 100 98 91 94 82 70 54 39 31 25 24 15 13 15 17 22 28 33 35 39 48 62 45 32 48 54 48 34 26 23 17
55 74 84 81 60 35 35 43 12 27 90 98 97 99 95 95 98 85 79 63 46 37 30 28 25 16 16 16 32 42 47 50 51 56 68 67 53 51 50 60 52 56 40 28 25
53 61 73 61 28 98 55 62 59 91 88 92 80 87 86 99 97 83 68 49 42 33 31 30 28 24 22 34 45 50 61 67 66 74 85 76 72 55 40 46 46 53 49 35 27
55 57 60 46 38 98 97 97 76 96 90 89 82 98 99 96 86 58 47 45 39 39 37 36 35 33 38 46 52 67 75 65 73 83 97 78 60 60 48 37 42 47 48 39 37
60 44 49 43 41 97 98 89 98 90 92 98 98 97 94 66 57 51 47 43 45 46 45 42 48 48 48 48 56 65 76 86 99 93 91 96 72 63 38 39 50 48 44 40 38
45 37 38 36 86 89 98 97 95 95 90 98 99 94 78 62 63 58 51 60 59 68 56 49 55 52 50 52 77 82 77 85 100 100 99 99 92 60 46 55 49 45 40 38 50
33 52 39 68 96 91 97 97 88 90 90 97 95 85 80 84 71 61 65 68 98 100 72 72 54 58 59 68 76 71 87 100 99 100 99 93 98 57 61 48 58 50 47 53 67
32 46 60 66 82 90 96 92 85 61 96 98 94 90 86 88 81 71 88 82 82 70 73 67 69 64 65 81 89 89 89 99 89 97 96 95 85 64 88 88 78 85 69 70 88
45 48 53 62 68 82 79 71 71 90 98 100 97 96 84 84 86 99 97 97 95 79 72 66 67 73 81 90 90 96 97 94 83 89 88 95 97 68 99 98 99 98 80 85 94
78 79 71 65 65 71 75 73 82 99 100 93 95 85 92 99 97 91 96 98 90 95 99 92 66 82 84 90 90 87 100 98 97 100 95 93 91 88 92 100 100 99 97 92 98
63 70 70 60 63 69 66 60 91 96 75 80 98 90 92 89 87 87 93 98 98 98 99 100 75 78 79 84 82 81 88 99 99 97 98 92 96 91 98 100 100 99 100 87 98
54 50 56 56 57 58 43 71 78 66 73 80 83 88 93 91 94 90 91 96 98 97 99 99 90 70 79 75 72 76 84 91 94 96 94 95 98 98 95 100 100 96 100 99 100
55 54 56 60 53 47 54 88 91 89 86 83 79 80 86 93 98 95 91 92 99 100 99 99 98 57 69 73 82 72 83 89 97 89 97 96 98 98 97 97 99 100 99 99 99
52 61 58 46 35 48 76 85 89 90 88 86 81 82 87 86 91 90 87 85 83 88 98 97 89 70 52 70 75 69 74 85 95 72 79 84 96 99 99 97 97 97 98 98 98
54 62 56 45 42 54 68 73 75 76 76 77 80 75 83 85 82 81 73 70 69 73 72 73 73 68 45 55 57 54 61 78 71 79 85 90 86 95 99 99 99 98 98 98 98
45 53 49 38 45 49 54 60 69 72 74 76 76 76 79 80 73 59 57 70 68 68 71 78 80 67 63 57 64 52 49 64 62 66 76 75 73 76 76 78 82 86 86 88 89
31 36 42 52 49 55 63 69 69 71 71 72 74 70 66 60 54 46 51 55 60 62 66 68 61 55 48 57 61 56 56 58 60 60 68 66 68 72 72 75 75 77 79 82 86
32 37 42 45 49 50 52 59 61 58 60 60 67 68 60 57 58 38 39 35 34 39 44 54 61 55 29 39 55 53 54 58 64 59 61 61 60 65 71 75 78 79 78 79 83
24 25 33 36 38 40 42 43 46 50 52 57 59 60 58 54 46 35 32 34 37 39 42 51 56 57 42 54 50 57 36 49 51 53 52 55 63 54 59 63 68 73 76 78 79

GFSSW_700_rhum_105.txt.gz
RH
75 81 88 87 81 79 74 81 38 78 98 99 99 97 78 57 72 64 57 47 38 24 22 22 20 20 18 16 14 14 12 11 10 10 9 9 9 10 10 11 14 17 18 28 38
89 96 96 97 94 76 80 85 62 45 87 100 99 100 99 73 66 66 57 49 39 28 26 25 22 20 18 17 14 13 12 11 10 10 10 10 9 10 10 10 10 10 15 17 27
79 80 79 89 97 95 79 72 92 40 53 95 99 99 100 90 67 61 53 48 40 30 28 24 22 19 17 17 15 13 12 10 11 11 11 10 9 8 8 7 7 7 8 10 15
66 70 84 92 93 97 85 76 83 86 74 86 97 99 99 99 83 63 53 50 42 36 29 25 22 19 18 17 16 13 12 13 12 11 9 8 8 7 7 6 7 7 6 6 6
44 69 64 84 95 96 91 80 94 96 84 80 99 99 99 99 90 81 61 51 43 35 30 26 22 20 20 19 17 15 14 12 10 9 8 8 7 7 6 9 10 10 10 9 8
54 59 49 84 89 97 94 79 69 91 87 71 99 98 99 99 95 81 66 48 41 36 32 27 24 22 21 20 17 14 12 10 9 9 9 8 9 9 11 13 15 15 14 13 12
57 64 58 82 95 97 95 73 71 96 96 88 99 96 99 96 84 58 54 56 47 40 32 25 24 24 21 19 15 13 11 10 9 9 11 10 10 14 19 26 26 24 24 24 23
57 65 62 58 93 78 80 63 60 95 89 78 99 90 99 98 92 82 76 62 48 37 29 27 28 27 23 18 14 11 10 10 10 10 16 18 16 19 32 26 20 19 25 32 29
60 78 72 86 80 66 58 41 86 95 66 83 99 98 99 94 98 89 74 61 47 34 30 33 34 26 21 17 12 10 10 10 11 18 28 30 21 28 39 34 26 37 38 29 19
63 78 86 80 70 55 36 48 94 88 94 92 97 99 97 98 95 87 76 64 56 46 38 36 30 25 22 15 11 12 14 15 16 34 34 28 20 31 48 38 41 33 20 24 21
60 68 52 52 49 80 91 94 97 93 91 97 91 83 96 95 86 85 73 65 57 48 41 33 29 24 20 16 16 18 24 25 30 47 44 34 36 34 47 47 34 31 39 40 29
41 48 29 64 76 89 93 91 96 96 98 99 84 98 98 100 87 88 74 57 52 40 33 30 26 26 25 24 24 29 30 40 40 55 71 58 43 40 51 41 49 47 48 43 32
72 58 65 65 79 69 97 96 96 95 94 98 98 98 100 97 85 77 68 49 38 34 30 28 30 27 30 32 30 34 48 61 73 88 84 73 52 52 57 62 58 59 65 54 41
73 55 52 64 91 80 96 97 95 89 90 97 98 96 92 85 79 64 50 42 34 34 31 31 31 32 32 35 43 50 61 81 97 99 96 91 91 65 56 54 57 65 70 61 46
79 69 67 62 79 93 88 95 91 71 86 97 97 82 70 66 54 47 38 33 36 34 34 37 41 38 46 57 66 81 81 96 100 100 99 90 100 68 67 61 72 74 80 57 62
74 75 73 77 85 81 83 73 61 59 97 96 92 82 68 60 58 43 49 41 38 41 42 48 49 51 66 79 78 87 98 95 99 100 97 79 96 73 66 90 87 88 83 74 91
77 80 78 81 77 77 88 72 65 93 98 96 89 81 63 63 54 53 51 46 51 50 51 52 61 71 78 81 87 98 89 92 85 92 82 86 100 62 82 90 92 96 97 85 98
58 63 70 77 78 78 79 64 80 99 100 87 80 80 78 68 62 66 70 72 66 65 52 56 70 71 79 82 88 99 96 96 95 97 90 100 97 80 90 97 94 99 99 94 99
58 61 60 52 58 56 54 48 92 89 80 83 86 84 83 69 73 81 88 86 88 82 72 65 67 70 76 80 80 81 98 99 97 93 98 82 85 82 96 96 95 99 99 97 100
43 46 54 54 45 44 39 71 82 75 73 77 77 68 70 75 80 78 83 83 85 78 78 76 63 64 73 79 82 83 89 92 84 92 96 74 86 92 84 90 91 93 96 97 98
28 32 48 48 40 34 34 76 82 76 74 76 73 73 77 81 80 79 73 76 75 74 73 95 91 63 66 71 78 77 76 78 93 98 96 96 73 72 73 82 84 85 91 97 97
24 25 38 34 34 42 66 78 80 81 79 82 83 84 82 78 73 70 70 73 75 83 99 98 98 88 57 66 64 78 79 72 83 80 89 93 76 73 69 77 81 84 86 85 92
23 27 33 34 36 43 58 64 72 73 74 75 81 79 76 71 63 60 62 72 75 79 87 89 91 87 40 62 62 65 60 65 75 88 90 92 64 61 64 68 69 78 83 90 93
24 30 34 35 39 41 47 54 56 60 61 62 63 64 66 68 68 65 58 63 70 74 77 79 71 68 62 43 50 52 57 67 72 85 77 73 59 59 62 67 70 70 73 74 78
23 27 30 34 35 36 35 40 44 46 48 50 53 58 61 59 53 51 46 47 44 53 56 70 59 51 41 37 46 40 38 51 63 61 76 50 61 62 65 67 70 72 73 75 75
20 24 28 29 30 33 34 35 35 36 38 37 40 42 45 46 44 44 38 40 39 42 48 58 61 62 47 32 29 29 32 38 48 55 58 53 41 50 53 59 65 67 70 74 76
13 17 21 22 27 30 32 30 31 32 34 37 39 40 37 37 36 34 31 30 32 34 41 57 64 73 66 44 40 35 33 26 26 37 34 47 37 52 57 59 63 64 66 70 73

GFSSW_700_rhum_108.txt.gz
RH
98 97 86 75 91 86 74 80 59 53 97 100 100 95 82 50 59 58 46 39 34 26 23 20 19 19 18 16 15 14 13 12 11 10 10 9 9 9 9 9 9 9 11 14 20
93 79 89 81 96 94 87 90 79 53 42 85 99 100 98 67 60 58 54 47 38 30 22 22 21 20 18 17 15 14 13 11 9 9 9 9 9 9 9 8 8 8 8 8 9
53 63 78 88 95 98 93 70 69 85 48 75 99 99 99 84 75 64 54 51 44 33 23 24 22 20 18 18 15 13 11 10 9 9 9 9 9 9 9 8 7 7 6 6 6
60 48 48 70 95 94 99 81 65 84 61 52 98 99 99 98 83 69 58 51 43 34 25 25 22 20 18 16 15 13 12 12 12 11 11 10 9 8 8 7 7 6 6 6 6
37 37 59 57 78 96 96 84 66 68 80 75 96 99 100 99 83 72 58 48 41 35 28 26 23 20 18 16 16 16 14 14 12 11 10 9 8 8 7 7 7 8 9 8 9
44 43 48 54 71 85 91 86 62 62 88 98 90 98 99 99 88 75 60 50 40 35 31 27 23 21 19 19 18 16 14 12 10 9 9 9 8 8 8 9 13 14 13 12 12
46 46 49 74 93 95 95 73 58 83 95 96 88 98 98 93 81 67 51 46 42 37 32 27 24 22 21 20 18 17 14 12 10 9 10 9 10 12 12 15 19 17 14 15 16
46 52 57 94 97 96 81 65 62 81 93 96 93 98 98 97 65 62 58 55 47 39 32 27 24 24 23 20 17 15 13 12 10 9 11 12 26 13 19 19 16 14 15 17 19
67 66 71 78 74 85 70 50 73 87 97 94 94 99 97 98 94 83 64 54 44 37 32 28 26 26 23 21 18 14 19 9 9 10 12 16 15 15 18 19 13 21 26 30 27
65 72 73 68 68 55 55 55 93 95 98 94 98 99 99 98 100 88 74 58 46 37 30 30 29 25 23 21 25 13 13 12 12 18 16 17 18 14 26 24 30 34 36 22 18
48 46 48 57 95 59 63 98 97 98 92 94 98 87 97 98 98 88 75 62 52 42 33 29 27 25 23 18 14 16 17 17 16 23 20 18 21 26 32 35 41 34 22 27 26
38 54 56 96 93 96 98 89 97 96 98 98 94 94 97 93 83 72 59 53 50 42 36 28 26 23 20 19 18 20 21 30 28 35 39 31 30 33 37 46 36 30 47 48 44
62 55 76 87 88 92 93 90 97 93 95 100 99 97 93 89 76 66 58 48 39 34 30 26 26 22 23 22 23 26 34 41 58 55 58 56 60 43 51 47 47 65 71 66 50
59 64 78 91 92 91 97 88 89 83 89 99 95 91 89 82 76 67 54 42 35 31 27 26 25 25 27 28 33 40 50 69 84 89 91 81 77 66 54 58 65 71 66 58 61
65 69 83 81 96 96 92 88 71 57 83 93 81 85 83 69 66 53 41 35 30 27 28 33 30 34 38 42 50 66 76 83 90 95 96 95 99 67 63 70 70 74 72 69 76
70 74 70 78 59 68 62 55 56 56 93 92 79 72 62 55 51 40 40 35 34 34 34 35 37 40 50 62 73 77 74 87 98 98 95 77 91 63 72 72 77 79 71 75 72
55 60 66 75 63 55 56 58 64 93 96 93 86 79 65 59 55 52 46 40 43 46 44 45 46 58 72 76 82 84 93 86 88 94 69 73 100 66 68 74 82 79 86 79 74
45 52 58 64 68 67 61 62 84 99 100 84 86 81 72 61 59 58 58 59 53 47 43 55 60 67 77 79 83 82 90 88 92 76 68 98 98 83 63 69 78 81 85 85 85
44 37 44 50 52 53 57 60 94 86 74 74 75 70 62 62 62 69 68 70 68 56 66 63 68 70 75 77 77 82 100 95 94 89 90 76 70 68 58 68 68 75 84 88 84
36 37 38 38 38 43 38 67 75 68 69 69 72 57 65 60 63 65 71 71 72 66 70 75 72 65 66 74 78 80 81 95 96 84 76 60 73 80 59 62 61 61 73 83 85
23 25 34 35 36 26 24 57 64 67 61 64 59 62 61 67 72 79 77 78 78 78 69 66 70 65 64 65 86 86 96 80 86 89 72 57 54 63 56 70 62 66 70 74 81
23 26 30 29 24 26 37 44 50 52 55 60 61 62 67 69 72 72 71 66 65 66 70 60 64 64 54 67 73 72 77 84 65 69 81 80 65 66 57 62 65 67 75 77 81
23 28 30 30 32 34 44 49 51 51 48 49 56 58 58 58 59 54 53 53 54 56 55 48 59 68 44 55 59 61 55 63 71 75 83 66 47 58 63 61 67 66 66 72 78
23 29 33 34 34 36 36 40 42 48 48 45 47 49 49 50 47 45 42 41 37 35 37 40 39 42 47 40 40 56 64 68 74 84 60 68 52 62 59 66 66 66 67 69 75
20 24 25 32 32 34 34 36 37 38 40 40 40 41 40 36 34 32 27 24 26 30 35 52 45 38 33 31 42 48 47 62 94 46 72 48 61 54 47 65 68 66 66 66 66
15 20 24 28 29 32 33 34 36 37 40 41 45 44 42 42 45 44 37 35 39 36 45 54 64 57 46 32 37 36 38 40 43 44 65 65 36 32 46 51 58 65 66 66 67
13 14 17 20 24 27 28 27 29 30 32 34 38 38 37 38 37 38 38 38 41 47 55 68 70 74 77 49 50 41 30 28 29 30 34 65 26 42 48 53 58 63 63 65 65

GFSSW_700_rhum_111.txt.gz
RH
89 96 98 88 91 84 77 64 64 60 96 99 100 100 76 64 67 50 32 29 26 25 23 20 17 17 16 15 15 14 17 29 35 24 32 9 9 8 7 8 8 8 9 10 11
99 93 95 90 75 75 79 76 78 57 49 97 99 99 97 71 76 66 46 37 33 27 25 21 19 18 17 16 15 14 28 32 15 13 13 8 8 7 7 8 8 8 7 7 7
79 82 66 73 83 95 86 80 71 77 60 91 97 100 100 79 81 74 63 47 38 32 23 21 20 19 18 16 15 14 37 14 10 9 8 8 8 8 8 8 10 7 7 6 6
60 67 68 63 76 90 92 86 71 72 76 87 98 98 99 96 89 75 67 56 44 34 26 21 21 20 18 17 16 13 13 11 10 9 9 9 9 8 8 8 7 7 7 6 6
34 34 43 56 54 71 90 96 77 64 72 77 97 99 99 99 76 73 68 58 48 36 27 23 22 20 18 16 15 15 13 12 12 11 10 10 10 9 8 8 7 7 6 7 7
41 46 44 38 37 45 75 91 76 66 70 85 92 100 98 99 81 72 63 55 46 35 26 24 22 20 17 16 15 14 14 13 12 11 11 10 10 9 8 8 8 8 9 10 12
39 44 40 38 34 38 57 86 71 60 74 91 89 88 98 98 87 71 58 49 41 34 28 26 23 20 17 16 16 16 15 14 12 11 10 10 10 11 10 9 10 13 12 13 12
46 38 47 68 74 78 80 69 70 84 87 99 92 88 96 98 78 55 50 41 37 34 30 27 23 21 19 16 16 15 14 28 22 11 10 10 15 33 10 10 11 11 10 11 15
59 46 84 96 87 83 62 74 80 99 98 98 89 95 98 96 64 54 47 44 40 36 31 27 24 22 21 20 20 17 23 25 30 15 11 12 17 9 9 13 11 11 18 29 35
48 56 63 62 78 60 60 93 98 98 99 98 92 97 98 92 68 59 51 46 40 34 30 28 28 23 23 21 55 29 23 28 26 42 13 11 9 7 10 15 20 28 34 37 28
50 54 86 78 53 48 94 99 98 99 100 95 97 94 98 96 80 68 58 48 42 37 32 30 24 23 22 21 19 16 14 17 38 29 13 14 19 12 21 22 32 37 34 27 28
56 84 96 93 60 72 97 91 95 86 96 98 98 98 98 98 89 78 66 52 47 41 36 29 27 24 22 18 16 16 16 48 28 31 35 27 15 29 27 35 39 36 36 43 48
88 88 93 99 96 96 98 91 96 90 97 98 98 98 93 82 71 62 53 51 43 39 33 59 26 22 19 18 19 20 27 42 51 41 54 67 50 34 34 40 43 51 58 59 57
76 76 74 84 97 96 97 98 93 84 86 97 97 94 85 71 65 58 48 39 36 33 29 26 24 21 22 24 28 63 39 55 67 78 80 67 62 52 54 46 57 63 70 67 61
79 73 80 84 92 92 91 86 75 73 86 87 87 88 88 71 61 52 43 36 32 30 28 33 28 31 34 36 43 66 63 66 61 87 92 83 86 52 52 59 70 67 70 72 70
74 73 70 62 65 70 59 58 61 82 93 90 82 76 68 60 48 40 38 36 34 30 29 32 33 33 36 54 64 70 66 70 99 99 91 86 78 49 61 55 57 63 71 73 64
64 61 61 59 53 52 52 54 67 95 91 97 94 74 60 50 51 52 48 33 36 42 38 39 40 53 68 77 77 76 84 81 82 88 72 85 80 48 61 51 61 56 60 66 71
55 59 58 55 52 48 49 68 87 99 98 65 64 57 49 42 42 36 40 77 42 62 61 90 82 68 72 71 69 92 89 84 84 69 63 88 89 72 54 56 56 51 53 63 76
35 40 43 50 46 43 53 49 98 81 50 50 43 78 45 46 57 73 81 88 57 44 86 85 78 63 68 69 71 97 91 84 92 78 82 70 77 58 55 63 57 48 49 52 65
29 34 36 34 39 37 29 38 46 41 38 38 66 62 73 58 81 82 80 60 57 51 51 54 78 59 58 64 64 74 66 87 99 74 68 49 57 64 57 47 47 51 55 56 57
24 25 31 33 26 23 24 41 41 38 34 58 48 65 70 77 81 77 64 55 50 47 44 44 60 76 56 56 82 64 89 72 77 66 62 44 43 53 51 44 45 47 51 57 62
23 27 25 26 26 22 33 41 41 46 46 56 51 54 73 51 69 72 76 46 40 37 62 37 61 76 70 59 50 65 82 74 59 48 62 56 53 47 48 41 48 49 52 54 52
24 27 27 27 27 29 36 41 40 42 42 43 46 41 40 41 62 41 41 41 39 39 78 46 81 71 62 47 45 52 49 64 74 72 64 47 38 54 51 45 44 51 53 54 57
22 26 28 27 26 30 32 34 35 37 37 37 39 37 36 37 37 43 40 37 32 30 33 39 54 58 52 40 56 62 65 79 76 74 60 51 47 47 50 58 44 50 54 56 57
19 22 23 25 27 26 26 30 31 32 35 38 38 39 40 63 36 35 31 27 26 28 30 39 55 64 37 30 32 38 71 72 70 77 80 51 48 42 46 58 70 50 51 57 59
12 21 24 25 26 28 26 27 29 30 31 32 34 36 37 40 36 38 29 31 38 28 34 38 50 66 40 27 57 48 52 66 71 70 72 71 63 52 49 55 53 56 55 54 59
20 16 16 19 22 24 27 26 25 25 26 28 30 31 32 32 32 31 30 30 33 36 45 72 67 79 80 63 69 52 27 29 27 24 29 62 40 56 57 54 49 57 59 54 61

GFSSW_700_rhum_114.txt.gz
RH
93 86 98 98 97 89 71 61 64 56 51 88 100 99 77 77 69 34 27 23 22 22 21 18 16 17 19 19 16 26 28 29 31 30 37 21 10 9 8 8 7 8 8 12 8
87 95 93 91 98 92 73 62 57 62 45 68 100 99 94 89 81 41 32 26 25 24 22 19 17 17 16 16 16 16 32 33 35 27 22 10 8 6 7 7 7 7 8 7 7
69 60 95 86 96 79 62 60 55 52 54 61 97 99 98 84 89 62 41 35 28 27 24 21 19 18 17 16 15 15 37 33 22 10 9 8 7 7 7 7 7 7 7 7 7
52 56 55 74 86 88 80 74 66 67 65 53 96 99 99 90 81 70 53 44 37 27 24 22 20 19 18 16 15 15 14 13 10 8 8 8 8 8 7 8 8 7 7 7 7
37 36 41 46 57 70 82 80 74 70 70 79 96 99 99 98 64 78 68 54 42 34 23 22 21 19 18 17 16 14 12 10 10 9 9 9 9 9 8 8 8 8 7 7 6
33 31 31 32 30 37 57 55 78 68 64 90 98 97 99 99 76 74 71 59 47 36 27 21 21 19 17 15 14 12 12 11 11 10 10 10 10 9 9 8 9 8 8 7 8
47 43 37 32 26 32 49 64 75 63 76 90 97 99 92 98 79 76 69 59 49 38 27 22 20 19 16 15 14 14 13 13 12 11 11 10 10 13 12 10 8 8 8 8 8
60 59 66 56 57 42 64 68 63 75 88 98 89 94 98 98 80 68 61 55 45 34 27 23 22 20 18 16 15 14 13 13 17 18 13 11 10 15 11 9 7 7 8 9 14
67 84 93 79 79 70 67 65 79 99 98 98 87 85 95 97 69 54 48 42 38 32 29 26 24 22 20 18 16 16 22 26 25 23 16 13 11 10 12 9 8 8 11 22 31
67 76 88 87 70 62 71 100 98 96 99 97 95 90 98 98 68 46 43 40 37 34 30 26 24 20 19 19 41 38 24 23 26 31 18 13 9 7 8 11 10 19 28 32 34
87 95 63 72 57 90 90 100 98 100 100 100 100 80 97 84 60 49 45 41 37 32 27 26 22 21 20 18 20 29 22 19 28 42 16 13 12 8 11 13 29 33 38 34 33
96 91 55 53 97 99 99 100 90 87 98 100 86 78 86 71 63 54 47 42 38 32 29 25 22 21 20 20 19 17 15 33 28 28 26 18 10 21 27 33 36 42 40 42 48
88 74 59 66 88 94 100 98 92 93 88 98 98 98 94 78 70 61 50 40 39 35 34 37 27 23 21 19 18 18 20 24 34 28 35 51 35 38 38 40 40 47 44 44 47
70 77 75 86 84 95 97 97 96 81 87 97 96 96 85 61 56 50 49 42 40 40 33 35 26 23 22 21 23 42 37 40 50 55 62 64 64 54 52 43 54 48 47 43 42
77 80 92 96 98 91 82 81 73 66 88 95 90 81 73 58 53 47 41 37 31 32 29 35 26 25 25 26 33 40 51 58 58 78 93 82 79 54 50 54 58 50 44 38 44
58 60 66 68 67 62 61 63 66 71 95 86 78 74 64 54 44 37 32 31 29 27 26 28 27 27 27 40 53 60 65 77 100 99 93 84 70 45 59 57 39 46 43 35 43
60 61 59 58 55 52 49 55 59 92 88 87 80 79 49 36 32 28 26 22 24 30 33 34 33 38 45 52 68 76 84 89 94 88 94 76 76 45 58 45 34 46 43 32 37
50 52 54 57 57 59 58 52 78 95 95 63 56 42 44 39 33 37 81 43 34 64 42 62 49 44 52 58 64 86 79 76 91 93 86 84 78 49 48 45 28 29 35 32 38
40 46 50 41 47 60 53 46 67 64 46 47 71 56 51 55 68 81 70 67 38 31 79 60 62 42 56 61 64 89 86 56 79 78 81 70 57 52 62 45 30 32 35 36 36
33 34 42 37 30 29 25 40 56 49 47 68 62 66 74 69 81 84 79 53 46 48 51 58 87 58 61 62 63 72 71 88 91 93 87 55 60 52 50 47 33 30 36 38 40
21 21 24 29 22 19 20 34 31 30 35 70 59 60 53 58 77 67 55 46 43 41 42 52 73 79 63 52 74 71 67 63 73 67 88 75 50 53 54 48 38 32 37 39 44
21 23 25 23 19 16 20 22 20 22 25 33 36 45 67 50 62 66 74 51 42 39 81 37 64 64 53 67 62 76 86 81 70 54 62 61 61 42 43 44 46 43 36 43 46
22 25 25 20 23 25 30 34 30 33 32 36 41 38 40 47 64 46 39 35 29 23 22 29 57 46 67 59 55 51 42 47 64 71 71 71 45 45 49 46 44 48 47 41 48
20 23 26 26 21 26 27 30 34 36 36 36 35 36 34 35 36 44 33 26 20 19 22 25 27 28 35 31 48 54 56 64 65 76 72 63 48 38 50 47 56 56 55 45 48
15 20 21 24 25 24 25 26 27 28 30 30 31 30 31 46 33 30 26 20 20 22 26 32 32 33 32 28 30 31 31 36 58 64 75 29 55 26 37 41 44 52 60 48 50
14 15 19 23 25 28 29 26 25 26 28 27 29 28 29 31 37 46 34 34 42 27 33 36 42 49 37 26 42 50 22 29 37 33 63 61 36 25 44 58 58 42 46 52 48
8 18 18 16 19 22 27 28 29 28 27 28 29 28 28 28 29 29 29 30 32 36 36 55 58 77 82 59 59 43 23 29 36 29 28 46 17 36 52 54 48 34 41 47 44

GFSSW_700_rhum_117.txt.gz
RH
90 85 98 99 97 96 90 48 61 60 93 99 100 100 72 71 49 37 29 19 16 15 16 17 17 15 13 12 13 18 24 32 32 38 31 28 15 11 10 9 7 8 12 15 5
89 96 97 97 99 99 92 70 52 64 70 96 99 99 84 65 57 35 27 23 20 20 19 19 20 21 21 17 18 26 30 32 30 29 26 19 9 8 8 8 7 7 7 7 7
71 73 94 82 97 97 83 81 73 60 66 77 97 99 87 67 62 42 29 25 24 22 20 18 17 18 17 18 18 23 28 31 29 23 13 9 7 7 7 6 6 6 6 7 7
62 87 88 93 93 93 75 69 63 59 63 59 76 98 98 78 70 51 36 28 26 24 22 20 18 17 16 16 16 17 21 23 20 12 8 7 6 6 6 8 7 7 8 8 8
38 58 80 85 67 81 85 73 69 61 57 66 64 93 100 76 62 57 46 33 27 25 23 20 20 18 17 16 15 15 14 13 10 9 8 8 8 8 7 8 8 8 8 8 7
35 34 42 50 36 45 70 80 79 72 70 67 64 86 99 86 70 66 51 42 32 26 23 22 20 18 18 16 15 14 12 10 9 9 9 9 9 8 8 9 9 9 8 8 7
28 24 23 24 27 45 80 87 77 80 86 63 70 84 100 92 78 74 60 49 38 31 24 20 19 17 17 15 14 12 10 10 9 9 9 8 8 10 10 9 9 8 8 7 7
82 65 27 23 27 57 78 76 68 73 81 100 88 94 98 96 81 77 66 54 42 31 26 22 20 18 16 15 13 12 11 10 11 13 14 12 10 11 10 10 9 8 7 8 8
92 89 54 41 60 79 75 85 76 97 95 86 93 98 99 98 75 71 64 54 43 31 26 23 22 20 17 14 12 13 19 25 22 21 16 13 13 12 10 9 8 8 10 10 10
84 77 80 72 80 89 80 99 98 99 100 99 85 96 89 84 66 64 58 48 40 32 27 24 23 20 18 15 15 26 20 24 26 22 16 15 12 9 10 10 9 11 13 17 29
57 70 59 71 86 93 76 80 95 99 100 89 86 88 98 84 51 42 40 38 35 32 28 26 23 20 18 16 19 28 27 23 21 18 15 15 12 8 9 10 14 23 27 32 40
48 54 71 80 84 95 97 96 84 93 99 100 91 77 99 68 47 44 41 37 35 31 28 24 22 20 19 18 17 17 17 16 21 22 21 12 8 10 12 19 27 33 35 39 36
54 77 86 88 87 97 99 98 98 99 96 99 89 78 74 56 49 47 41 36 34 29 25 21 21 20 19 18 18 17 16 16 19 15 23 21 14 22 31 36 37 35 38 37 36
72 87 90 83 88 93 96 90 85 91 94 100 89 77 64 59 57 51 48 36 31 28 25 28 23 21 20 19 17 17 27 28 29 29 39 42 50 25 30 48 40 38 40 46 40
62 81 88 97 98 98 90 76 70 70 90 96 93 73 60 53 50 49 45 40 36 32 28 28 23 22 20 19 19 26 30 39 44 57 74 64 78 40 47 51 50 46 47 47 38
82 79 68 62 57 64 58 61 59 55 95 72 71 59 52 48 43 40 37 32 30 29 28 25 24 23 22 26 34 41 53 59 98 98 96 70 81 42 56 53 57 45 39 28 22
56 61 59 54 47 52 52 52 47 81 74 71 69 52 42 38 32 31 28 26 29 26 26 26 25 25 28 34 48 54 53 89 88 96 90 83 80 47 47 48 55 31 22 20 21
47 46 46 46 49 48 53 54 57 74 73 55 45 48 44 39 47 54 48 30 32 30 26 30 27 30 37 48 59 60 67 72 62 95 90 78 69 31 41 46 42 34 19 20 24
42 44 47 50 51 54 47 45 72 62 57 51 56 49 46 46 44 38 36 29 25 23 40 39 41 34 52 58 57 74 85 63 61 84 90 56 46 33 37 41 51 39 24 23 29
28 32 30 31 30 32 31 51 56 52 57 61 61 58 49 55 64 67 57 42 41 37 40 44 58 46 47 57 59 64 72 71 87 88 89 62 52 30 38 49 56 44 42 40 30
18 18 24 23 20 18 22 34 35 36 35 46 56 56 49 60 70 74 56 45 45 44 45 47 56 71 56 46 47 61 74 65 71 76 90 88 44 44 43 51 47 46 46 47 42
18 21 23 20 18 16 20 23 25 31 36 48 54 54 58 54 59 60 49 41 32 32 32 29 59 48 34 57 63 65 62 71 64 55 65 67 59 33 31 45 50 44 55 55 52
16 19 20 19 21 19 25 31 30 33 35 37 40 41 42 47 47 41 36 32 29 27 27 35 42 39 59 60 63 64 43 46 67 80 76 75 41 27 24 29 32 34 48 46 46
15 17 19 21 20 23 26 30 32 33 33 32 32 33 34 35 35 37 32 28 26 22 24 28 29 24 19 23 38 51 44 45 56 65 61 58 31 19 28 34 37 45 51 52 42
12 16 17 18 20 21 22 24 26 26 28 29 30 31 31 34 35 34 30 24 23 24 27 32 29 30 28 28 32 34 31 31 49 42 74 21 42 11 24 30 40 44 40 40 29
9 14 14 19 20 21 21 23 25 26 28 29 28 28 28 32 33 33 34 34 33 30 36 42 41 46 40 27 32 31 20 23 26 32 56 43 30 13 31 33 39 38 35 35 37
39 13 12 18 17 18 20 23 23 26 24 24 25 26 27 26 28 30 31 30 35 35 38 51 52 60 53 41 35 29 21 23 20 15 27 39 12 24 24 25 29 27 27 24 26

GFSSW_700_rhum_120.txt.gz
RH
81 97 94 82 89 88 89 77 43 58 96 100 99 88 56 52 50 35 20 14 11 10 9 9 10 10 11 11 12 16 27 32 38 39 35 32 29 19 15 12 11 10 6 5 6
81 95 98 99 99 98 97 78 54 55 80 100 99 83 56 52 47 34 24 17 14 13 12 11 11 11 11 12 15 19 24 32 32 33 31 28 15 10 9 7 6 6 6 6 7
90 94 88 97 97 98 96 70 54 61 61 93 99 97 69 63 44 30 24 20 17 17 16 17 16 17 13 13 18 20 22 27 30 28 28 17 9 7 6 6 6 6 7 7 7
84 93 99 97 95 97 95 77 60 63 62 86 98 99 83 70 45 31 25 22 20 20 19 20 20 21 19 18 21 25 25 26 28 26 13 9 7 6 6 6 6 7 8 7 7
90 93 96 77 84 87 81 74 69 62 84 93 99 99 90 65 55 34 26 24 23 21 18 18 18 18 17 17 18 20 22 24 23 13 9 7 6 6 6 7 7 8 8 8 8
36 46 57 43 63 69 69 61 65 63 64 82 92 88 99 84 63 38 28 26 24 23 22 20 18 18 16 16 16 16 16 14 11 9 8 7 6 6 6 8 9 10 10 9 8
22 21 22 28 47 58 75 70 70 67 74 77 75 88 98 90 76 48 32 27 26 24 23 22 20 19 17 16 16 14 12 10 10 8 8 7 7 7 9 10 10 11 10 9 8
17 13 16 24 47 71 77 95 79 85 63 59 77 78 99 82 74 57 42 32 27 25 23 21 20 19 17 16 15 13 12 11 10 10 10 9 9 10 11 11 10 10 9 8 6
41 18 20 40 68 76 70 94 83 100 99 82 92 69 82 85 72 63 49 39 32 27 23 22 19 17 16 14 13 13 14 13 16 15 14 13 12 12 12 11 9 8 7 6 6
31 27 54 74 81 88 85 81 97 93 99 92 93 83 95 90 75 70 56 47 36 28 24 22 20 18 16 13 12 11 11 13 14 13 13 13 12 12 12 11 9 8 7 8 20
61 71 81 85 90 95 85 99 96 84 87 83 83 81 88 80 72 67 57 48 38 30 26 23 21 19 17 15 14 16 21 21 18 15 14 14 13 11 10 8 8 7 8 23 34
74 83 90 99 80 88 96 97 90 79 87 89 94 80 64 57 53 55 49 42 36 31 27 24 22 19 16 15 15 16 18 17 17 16 17 14 11 9 8 8 10 15 26 38 40
61 56 70 97 97 98 98 93 88 83 94 98 98 75 53 48 44 42 40 37 34 31 28 24 21 18 17 16 17 17 17 17 18 15 15 13 12 11 11 15 20 26 38 40 40
74 74 81 92 98 96 90 92 83 78 77 94 96 78 56 50 47 43 39 35 32 30 24 24 20 19 19 19 19 18 22 23 20 21 27 24 35 12 13 19 28 36 45 37 38
90 96 95 96 81 76 91 93 88 76 90 86 76 71 60 54 52 48 42 34 28 27 27 26 22 21 21 20 19 22 21 26 33 38 38 38 61 22 20 26 34 48 47 35 29
64 63 70 78 72 64 68 62 68 68 97 78 66 60 52 49 47 45 42 38 35 29 30 26 24 24 22 22 23 28 35 43 51 71 83 60 68 34 31 32 41 53 49 27 17
50 49 49 51 56 54 60 65 64 86 73 67 57 47 43 40 36 37 33 30 30 29 26 25 25 24 25 28 35 40 46 44 62 87 85 87 88 39 46 44 48 61 40 27 16
46 46 45 46 45 48 52 50 61 96 87 68 54 47 42 42 39 32 28 24 26 25 24 24 32 26 31 38 45 48 45 53 48 85 88 65 64 24 34 40 53 56 41 33 29
28 32 38 43 44 44 42 42 72 63 53 48 40 39 37 37 44 36 30 24 22 20 27 22 31 29 35 41 45 62 59 58 52 79 97 53 36 19 22 34 42 48 45 42 36
22 21 25 30 34 36 35 46 53 43 39 35 39 33 38 48 54 47 41 28 27 23 27 31 34 26 25 38 47 54 59 66 74 71 80 52 44 9 13 22 38 46 45 39 36
16 14 17 19 24 21 22 34 34 32 31 34 45 47 41 49 49 51 44 41 42 40 42 43 51 57 50 40 41 53 73 69 62 69 91 84 35 9 17 24 28 42 42 40 36
13 18 14 14 11 10 18 22 26 31 36 42 47 46 51 52 52 49 42 44 32 31 32 26 42 36 27 31 48 60 71 70 62 51 66 74 49 21 19 21 25 36 34 36 39
14 16 17 17 16 16 20 24 28 34 36 38 38 43 42 43 42 38 36 32 26 24 27 33 30 32 35 49 52 56 36 51 68 71 72 70 37 23 21 21 23 32 36 41 41
12 14 17 19 20 23 24 25 28 30 30 31 32 32 32 33 35 34 30 28 24 22 23 26 28 24 16 17 24 41 32 38 59 87 69 62 42 19 24 28 24 25 36 32 30
11 13 14 15 17 19 22 23 26 27 30 30 32 32 35 38 38 36 32 30 28 28 30 38 33 30 26 27 30 30 31 34 46 46 71 22 34 10 22 23 26 28 26 30 33
16 11 12 14 15 17 18 22 23 26 27 28 31 32 32 31 32 34 36 36 36 32 37 44 45 44 38 24 30 34 25 25 29 33 43 29 27 17 18 20 21 22 24 22 28
54 31 10 12 14 15 14 17 19 20 20 22 24 25 26 28 29 31 30 29 35 37 46 62 60 59 48 38 39 30 14 17 21 24 27 30 18 21 21 25 24 23 27 27 26

GFSSW_700_rhum_123.txt.gz
RH
83 96 96 87 80 98 85 71 50 66 75 82 99 90 64 56 49 24 10 8 8 9 9 9 8 8 9 9 10 11 15 23 24 28 24 31 31 28 24 19 18 10 7 6 6
94 97 97 98 95 98 84 80 52 58 89 100 99 93 64 58 50 27 16 10 9 8 9 10 9 10 10 11 12 15 20 25 25 26 29 32 32 24 15 12 8 6 6 5 5
92 89 98 98 96 84 96 88 52 56 88 99 99 93 66 61 47 26 18 13 11 10 10 10 10 10 11 12 14 18 23 26 28 32 31 30 20 9 8 6 6 5 5 5 5
98 96 99 97 96 96 99 85 49 55 90 98 98 97 73 63 39 28 20 17 14 13 13 11 11 11 11 13 15 19 20 25 29 29 28 26 12 6 6 5 5 6 6 6 6
96 90 94 95 82 96 96 76 60 52 78 99 100 93 82 59 41 29 23 19 17 17 16 16 16 14 13 14 16 21 22 26 28 27 23 12 8 6 6 5 5 6 7 7 8
70 56 66 97 93 92 89 74 64 65 82 97 100 99 87 59 46 28 23 21 20 19 19 20 20 20 20 20 21 22 25 26 24 20 11 8 7 6 6 6 6 8 9 9 9
23 29 44 64 66 60 64 74 67 58 68 87 98 99 94 74 48 28 25 23 21 19 18 19 19 19 18 17 17 18 20 17 13 10 9 7 6 5 6 8 10 10 10 10 10
18 20 38 71 71 68 72 77 70 64 78 70 96 96 93 75 44 30 27 25 24 23 21 21 19 19 17 17 16 15 14 12 11 9 8 7 6 7 9 11 11 11 11 10 8
14 20 46 76 84 96 96 87 63 72 76 79 86 98 96 74 52 34 28 26 26 24 24 22 21 20 17 16 15 13 11 10 10 8 8 10 8 11 12 12 12 11 10 9 8
18 60 78 83 86 96 98 98 90 91 86 93 88 91 92 77 60 44 34 28 25 24 24 22 19 18 16 14 12 11 10 10 11 11 11 12 10 13 13 12 12 10 9 8 8
56 71 82 92 72 98 92 100 100 100 100 83 89 79 84 75 66 54 42 35 29 26 23 21 19 18 16 14 12 12 11 11 15 15 14 12 12 13 14 12 11 9 8 8 16
66 88 84 99 94 89 93 93 95 99 90 93 93 89 83 71 67 58 48 39 33 28 24 22 21 19 17 15 14 14 15 15 14 14 15 14 14 14 13 12 9 8 10 17 32
76 81 64 82 84 98 98 91 96 94 96 75 65 77 69 62 62 55 46 41 36 31 26 24 21 19 17 15 14 14 15 16 16 16 16 15 14 14 12 11 11 15 22 30 37
78 80 89 83 86 90 96 90 79 81 84 82 70 60 54 47 49 48 42 39 35 31 28 24 20 19 16 17 17 18 19 20 20 19 21 20 26 12 10 10 10 15 29 37 38
91 78 74 89 84 80 75 69 66 62 88 88 71 62 50 51 48 43 40 38 33 30 24 22 19 20 20 19 19 20 21 22 24 28 33 27 49 11 11 12 16 26 37 44 40
63 75 72 55 60 64 64 65 68 65 95 84 74 63 54 50 46 41 40 33 30 28 25 25 23 22 21 21 22 23 25 28 35 50 72 59 57 23 23 22 24 35 41 51 37
44 47 51 51 51 50 58 63 60 83 75 68 63 54 49 48 46 44 41 36 32 30 29 27 25 24 24 25 27 28 29 30 53 75 66 73 81 17 20 24 30 37 46 50 38
36 42 48 57 58 52 50 54 62 84 78 61 55 50 44 42 39 36 34 32 29 28 26 24 30 24 25 28 36 38 36 35 43 67 79 51 46 14 18 18 28 42 53 50 42
28 34 40 45 50 45 47 51 72 62 52 45 40 37 37 35 36 28 24 21 22 19 21 19 22 24 29 37 40 50 54 53 49 68 96 41 23 9 9 12 23 37 44 49 44
20 23 31 37 41 41 38 50 56 48 43 38 37 35 32 36 38 30 30 20 19 19 18 22 24 30 29 32 38 46 57 60 52 57 68 42 30 7 7 10 12 23 26 33 24
15 14 21 21 26 26 26 35 39 40 41 44 42 41 40 48 47 47 40 37 37 35 38 33 42 46 34 28 37 52 61 60 58 59 84 78 26 7 10 16 17 15 18 24 31
16 16 13 13 12 12 17 21 22 26 32 33 34 33 45 48 46 44 41 39 34 32 28 30 32 30 27 30 34 40 49 57 60 54 63 71 43 14 13 14 16 18 25 28 32
14 15 18 16 15 15 19 24 27 30 31 32 34 36 38 38 35 32 32 29 27 24 25 26 30 24 25 35 34 41 31 40 61 67 67 63 30 19 16 19 26 31 33 36 36
12 14 16 18 18 22 23 26 27 28 28 30 29 30 32 33 36 34 31 29 26 24 25 27 25 23 17 17 22 29 27 33 50 87 69 55 29 16 23 22 26 34 40 39 30
14 11 13 14 16 18 20 21 24 23 25 26 26 26 26 28 29 28 28 28 28 28 28 35 33 31 28 29 33 32 33 37 51 46 67 19 34 12 23 28 24 23 20 20 19
44 17 12 13 16 18 19 21 22 22 22 24 24 24 26 26 27 27 28 29 32 31 35 41 43 43 30 21 30 32 26 28 30 38 48 30 27 21 26 27 26 22 24 19 22
49 50 35 18 11 13 17 20 25 22 21 22 24 25 24 26 24 25 24 25 27 30 37 50 52 54 44 31 31 28 16 17 21 21 24 26 18 18 18 19 21 20 20 19 21